Date StartTime U_cm/s V_cm/s W_cm/s Ustd_cm/s Vstd_cm/s Wstd_cm/s Uvar_(cm/s)^2 Vvar_(cm/s)^2 Wvar_(cm/s)^2 KE_(m/s)^2 TurbulentKE_(m/s)^2 HorizWindSpeed_cm/s FrictionSpeec_cm/s DragCoef SpeedOfSound_m/s SonicTemperature_C Pressure_mb 
11/14/2013  00:00:00      -82.712      -59.635       -3.016       30.607       27.294       20.540      936.815      744.955      421.897        0.625        0.105      101.968       15.395        0.023      335.676        6.470      866.933
11/14/2013  00:01:00     -105.642      -60.967       -7.016       44.873       26.194       21.058     2013.608      686.124      443.428        0.903        0.157      121.972       22.903        0.035      335.668        6.456      866.948
11/14/2013  00:02:00     -105.312      -58.556       -7.208       21.865       19.738       14.087      478.079      389.598      198.442        0.782        0.053      120.497        5.936        0.002      335.720        6.542      866.954
11/14/2013  00:03:00      -99.390      -55.857      -15.206       20.726       21.791       12.594      429.582      474.855      158.601        0.715        0.053      114.010        5.561        0.002      335.724        6.549      866.918
11/14/2013  00:04:00      -96.230      -65.320       -6.954       17.609       16.732       15.469      310.072      279.970      239.278        0.720        0.041      116.305        9.980        0.007      335.648        6.421      866.854
11/14/2013  00:05:00      -77.349      -50.725      -11.319       27.263       17.757       15.549      743.270      315.299      241.768        0.499        0.065       92.498       12.305        0.018      335.661        6.443      866.802
11/14/2013  00:06:00      -83.110      -66.814      -10.975       28.277       19.543       13.539      799.609      381.918      183.313        0.643        0.068      106.636        8.990        0.007      335.694        6.500      866.775
11/14/2013  00:07:00     -132.218      -62.079      -15.911       24.256       16.356       11.262      588.331      267.507      126.828        1.129        0.049      146.067        5.693        0.002      335.636        6.403      866.764
11/14/2013  00:08:00     -111.600      -62.797      -14.331       22.583       18.836       15.232      509.972      354.779      232.028        0.885        0.055      128.055        7.265        0.003      335.683        6.480      866.806
11/14/2013  00:09:00     -120.015      -69.773      -13.644       20.961       19.083       13.912      439.377      364.167      193.556        1.023        0.050      138.823        5.198        0.001      335.657        6.436      866.851
11/14/2013  00:10:00     -121.157      -52.583      -14.193       15.180       10.515        8.446      230.427      110.564       71.329        0.903        0.021      132.075        6.035        0.002      335.640        6.409      866.869
11/14/2013  00:11:00     -120.088      -64.014      -14.777       19.417       22.649       11.172      377.034      512.973      124.814        0.988        0.051      136.084        6.626        0.002      335.619        6.374      866.861
11/14/2013  00:12:00     -137.944      -59.154      -13.160       16.189       16.173       15.630      262.092      261.571      244.300        1.173        0.038      150.092        5.757        0.001      335.582        6.312      866.821
11/14/2013  00:13:00     -153.914      -53.983      -20.266       18.731       15.349       14.715      350.837      235.602      216.531        1.391        0.040      163.106        9.559        0.003      335.544        6.249      866.776
11/14/2013  00:14:00     -130.274      -66.982      -10.982       43.197       25.210       18.727     1865.946      635.563      350.695        1.221        0.143      146.485       17.964        0.015      335.528        6.221      866.758
11/14/2013  00:15:00     -119.774      -65.289       -3.176       35.106       19.662       18.387     1232.416      386.598      338.090        1.029        0.098      136.413       12.896        0.009      335.492        6.162      866.772
11/14/2013  00:16:00     -100.870      -43.303       -5.606       24.274       20.046       15.474      589.240      401.845      239.433        0.666        0.062      109.772        9.947        0.008      335.484        6.149      866.812
11/14/2013  00:17:00     -103.120      -34.661      -14.859       14.422       20.549       10.513      207.986      422.251      110.531        0.640        0.037      108.789       10.152        0.009      335.472        6.128      866.850
11/14/2013  00:18:00     -106.383      -35.946      -18.096       17.643       15.202       11.550      311.282      231.092      133.412        0.681        0.034      112.292       11.007        0.010      335.476        6.136      866.879
11/14/2013  00:19:00     -121.249      -59.439      -19.435       12.876       23.658       12.067      165.799      559.703      145.613        0.974        0.044      135.035        4.346        0.001      335.460        6.109      866.881
11/14/2013  00:20:00     -100.367      -69.093      -12.575       29.945       23.928       17.498      896.708      572.529      306.181        0.839        0.089      121.850       14.488        0.014      335.505        6.184      866.878
11/14/2013  00:21:00     -101.006      -61.278      -11.954       23.058       20.779       15.118      531.668      431.784      228.561        0.765        0.060      118.140        9.143        0.006      335.481        6.144      866.891
11/14/2013  00:22:00     -104.756      -51.909      -10.221       23.250       23.696       18.044      540.560      561.480      325.594        0.760        0.071      116.912       14.569        0.016      335.562        6.278      866.912
11/14/2013  00:23:00      -96.975      -64.530       -9.624       26.106       25.416       19.300      681.498      645.989      372.487        0.768        0.085      116.483       10.904        0.009      335.531        6.226      866.917
11/14/2013  00:24:00     -114.068      -74.859       -6.175       30.194       23.276       23.464      911.693      541.770      550.554        1.033        0.100      136.438       19.244        0.020      335.482        6.145      866.911
11/14/2013  00:25:00     -125.359      -62.600      -16.201       27.179       25.909       17.198      738.721      671.288      295.762        1.080        0.085      140.120        9.157        0.004      335.491        6.160      866.907
11/14/2013  00:26:00     -149.858      -44.222      -21.708       27.725       23.421       18.411      768.687      548.566      338.978        1.327        0.083      156.247        9.812        0.004      335.505        6.183      866.880
11/14/2013  00:27:00     -121.550      -45.993      -15.479       27.767       24.193       18.950      770.994      585.321      359.103        0.942        0.086      129.960       14.669        0.013      335.468        6.121      866.846
11/14/2013  00:28:00      -90.174      -52.124       -7.394       20.264       29.652       17.815      410.616      879.242      317.372        0.625        0.080      104.155       13.008        0.016      335.529        6.222      866.827
11/14/2013  00:29:00     -130.161      -16.660      -23.324       25.419       25.532       18.408      646.128      651.891      338.855        0.970        0.082      131.223       14.668        0.012      335.480        6.142      866.809
11/14/2013  00:30:00     -122.609      -22.200      -24.947       22.151       21.278       14.621      490.646      452.741      213.781        0.865        0.058      124.603       11.944        0.009      335.499        6.173      866.779
11/14/2013  00:31:00     -126.538      -25.733      -18.765       19.450       22.103       15.182      378.310      488.553      230.482        0.906        0.055      129.128       13.239        0.011      335.507        6.186      866.767
11/14/2013  00:32:00     -134.455      -25.167      -22.218       21.488       25.556       13.558      461.719      653.123      183.832        1.025        0.065      136.790        4.652        0.001      335.535        6.233      866.761
11/14/2013  00:33:00     -120.695      -28.727      -20.893       25.091       24.267       14.901      629.581      588.896      222.051        0.863        0.072      124.067       13.308        0.012      335.502        6.179      866.753
11/14/2013  00:34:00     -104.034      -33.693      -15.089       36.037       33.792       16.271     1298.645     1141.885      264.731        0.745        0.135      109.354       18.263        0.028      335.475        6.132      866.748
11/14/2013  00:35:00      -87.462      -35.060      -15.745       26.986       21.839       14.561      728.260      476.925      212.013        0.527        0.071       94.227       11.707        0.015      335.516        6.202      866.754
11/14/2013  00:36:00      -86.680      -25.237      -23.889       16.657       14.564       12.433      277.456      212.100      154.584        0.468        0.032       90.280        9.135        0.010      335.515        6.202      866.757
11/14/2013  00:37:00      -89.541      -18.440      -19.886       13.739       12.342       10.596      188.772      152.333      112.274        0.460        0.023       91.420        7.210        0.006      335.606        6.352      866.761
11/14/2013  00:38:00      -84.408      -26.186      -17.819       10.652       21.318        9.724      113.476      454.456       94.550        0.440        0.033       88.377        7.777        0.008      335.583        6.314      866.748
11/14/2013  00:39:00      -96.592      -38.399      -14.905       12.462       21.842       13.273      155.296      477.066      176.163        0.592        0.040      103.944        8.377        0.006      335.515        6.203      866.738
11/14/2013  00:40:00      -91.883      -46.172      -21.622       15.684       16.344       12.900      245.987      267.112      166.412        0.586        0.034      102.832        5.889        0.003      335.503        6.180      866.745
11/14/2013  00:41:00     -112.071      -40.375      -14.424       15.426       16.753        9.512      237.954      280.680       90.482        0.750        0.030      119.122        8.807        0.005      335.479        6.141      866.758
11/14/2013  00:42:00     -119.918      -60.587      -11.577       22.695       25.837       15.160      515.068      667.574      229.840        0.980        0.071      134.354        5.565        0.002      335.512        6.195      866.760
11/14/2013  00:43:00     -147.550      -58.078      -22.800       14.720       13.173       10.963      216.681      173.522      120.188        1.309        0.026      158.569        4.742        0.001      335.427        6.054      866.751
11/14/2013  00:44:00     -116.524      -58.417      -14.550       17.440       17.105       14.334      304.160      292.594      205.454        0.900        0.040      130.347        7.808        0.004      335.403        6.014      866.739
11/14/2013  00:45:00      -84.318      -58.931       -2.870       32.930       22.509       20.955     1084.387      506.664      439.108        0.631        0.102      102.871       21.093        0.042      335.492        6.162      866.730
11/14/2013  00:46:00      -65.374      -48.063        7.716       41.886       27.493       20.108     1754.424      755.869      404.312        0.478        0.146       81.141       18.812        0.054      335.343        5.913      866.730
11/14/2013  00:47:00     -119.355      -72.634       -5.040       35.828       31.188       24.269     1283.614      972.682      588.969        1.120        0.142      139.719       18.750        0.018      335.283        5.815      866.717
11/14/2013  00:48:00     -109.211      -72.696        3.838       53.927       39.351       31.692     2908.124     1548.514     1004.381        1.134        0.273      131.194       29.588        0.051      335.227        5.720      866.683
11/14/2013  00:49:00     -130.681      -88.296      -11.807       71.614       47.712       38.215     5128.576     2276.441     1460.381        1.694        0.443      157.714       32.285        0.042      335.179        5.640      866.670
11/14/2013  00:50:00     -162.061     -121.776      -15.887       47.293       55.497       30.719     2236.598     3079.900      943.667        2.380        0.313      202.714       25.116        0.015      335.151        5.592      866.667
11/14/2013  00:51:00     -172.933     -112.482       -4.366       42.639       52.437       30.705     1818.057     2749.635      942.814        2.404        0.276      206.296       24.208        0.014      335.054        5.432      866.687
11/14/2013  00:52:00     -147.020     -102.714       -6.423       74.189       48.104       37.972     5504.073     2313.995     1441.896        2.073        0.463      179.346       43.121        0.058      334.998        5.338      866.709
11/14/2013  00:53:00     -175.549      -98.866       -6.795       44.562       46.364       27.318     1985.750     2149.642      746.271        2.276        0.244      201.474       26.002        0.017      335.042        5.414      866.715
11/14/2013  00:54:00     -176.368      -97.103       -8.104       45.477       39.330       25.031     2068.140     1546.848      626.553        2.242        0.212      201.332       23.224        0.013      335.172        5.628      866.703
11/14/2013  00:55:00     -145.802      -95.989       -5.337       44.022       32.034       22.159     1937.942     1026.169      491.035        1.698        0.173      174.562       18.878        0.012      335.105        5.519      866.664
11/14/2013  00:56:00     -117.979      -71.361       -0.491       41.048       33.081       24.031     1684.952     1094.330      577.480        1.118        0.168      137.882       21.800        0.025      335.088        5.491      866.648
11/14/2013  00:57:00     -124.392      -73.317       -2.593       42.145       33.188       25.589     1776.215     1101.466      654.796        1.219        0.177      144.391       23.853        0.027      335.096        5.504      866.641
11/14/2013  00:58:00     -112.868      -78.406        3.562       43.565       35.023       26.528     1897.899     1226.632      703.744        1.136        0.191      137.429       27.570        0.040      335.078        5.474      866.637
11/14/2013  00:59:00     -110.375      -75.770       -0.032       45.578       31.048       26.479     2077.337      963.971      701.153        1.083        0.187      133.879       23.184        0.030      335.104        5.517      866.636
11/14/2013  01:00:00     -105.801      -65.994       -8.076       34.126       30.949       22.192     1164.614      957.866      492.493        0.911        0.131      124.696       13.277        0.011      335.128        5.555      866.644
11/14/2013  01:01:00     -136.631      -56.349       -5.618       42.713       20.995       18.438     1824.371      440.783      339.971        1.224        0.130      147.794       19.802        0.018      335.155        5.602      866.660
11/14/2013  01:02:00     -145.243      -40.938      -12.025       21.293       24.324       16.231      453.392      591.648      263.448        1.211        0.065      150.903       11.127        0.005      335.079        5.475      866.672
11/14/2013  01:03:00     -114.481      -43.606        2.720       36.433       28.164       17.622     1327.339      793.198      310.536        0.872        0.122      122.504       18.152        0.022      335.039        5.410      866.696
11/14/2013  01:04:00     -102.456      -61.701        3.523       56.463       29.123       27.416     3188.110      848.142      751.619        0.955        0.239      119.600       24.631        0.042      335.118        5.540      866.700
11/14/2013  01:05:00      -92.670      -84.125        0.245       55.268       42.487       26.109     3054.524     1805.104      681.703        1.060        0.277      125.159       27.645        0.049      335.285        5.817      866.694
11/14/2013  01:06:00     -128.835      -88.455        0.486       48.577       46.049       30.224     2359.749     2120.478      913.481        1.491        0.270      156.278       27.769        0.032      335.273        5.796      866.690
11/14/2013  01:07:00     -104.711      -57.117       10.418       63.802       40.940       24.898     4070.707     1676.095      619.912        1.035        0.318      119.276       27.524        0.053      335.216        5.702      866.679
11/14/2013  01:08:00     -153.233      -78.188        2.934       46.848       39.503       26.293     2194.745     1560.465      691.330        1.702        0.222      172.028       27.385        0.025      335.208        5.689      866.666
11/14/2013  01:09:00     -123.991      -64.949        4.768       50.925       34.970       23.994     2593.385     1222.874      575.694        1.200        0.220      139.971       18.531        0.018      335.173        5.629      866.660
11/14/2013  01:10:00     -102.104      -71.232        5.051       51.405       51.465       27.353     2642.523     2648.692      748.203        1.078        0.302      124.496       25.093        0.041      335.188        5.657      866.660
11/14/2013  01:11:00      -87.273      -63.953        2.469       70.886       61.668       31.027     5024.864     3802.997      962.680        1.075        0.490      108.197       37.811        0.122      335.112        5.530      866.671
11/14/2013  01:12:00     -185.113     -122.341       -8.256       59.876       55.196       35.941     3585.152     3046.621     1291.770        2.861        0.396      221.887       34.556        0.024      334.974        5.298      866.680
11/14/2013  01:13:00     -142.801     -112.339       -2.407       62.570       50.996       34.489     3915.008     2600.591     1189.459        2.036        0.385      181.693       34.301        0.036      334.813        5.032      866.667
11/14/2013  01:14:00     -130.991      -92.933       -2.367       50.263       48.060       28.988     2526.349     2309.717      840.290        1.574        0.284      160.609       29.340        0.033      334.668        4.791      866.654
11/14/2013  01:15:00     -115.756     -100.973       12.290       77.410       51.311       36.760     5992.384     2632.775     1351.287        1.686        0.499      153.607       39.237        0.065      334.768        4.957      866.667
11/14/2013  01:16:00     -163.583     -116.668       -6.870       47.653       42.229       27.268     2270.773     1783.306      743.518        2.261        0.240      200.925       24.907        0.015      334.718        4.871      866.685
11/14/2013  01:17:00     -149.300      -80.304        2.381       59.635       37.068       26.321     3556.314     1374.007      692.785        1.718        0.281      169.527       30.506        0.032      334.823        5.049      866.712
11/14/2013  01:18:00     -139.773      -72.146       -3.846       40.785       28.286       20.585     1663.426      800.122      423.760        1.382        0.144      157.294       22.397        0.020      334.844        5.084      866.770
11/14/2013  01:19:00     -120.395      -42.816       -4.354       26.890       26.331       17.284      723.063      693.316      298.728        0.903        0.086      127.781       13.169        0.011      334.891        5.163      866.815
11/14/2013  01:20:00     -102.606      -49.559      -10.989       20.426       19.219       16.577      417.213      369.373      274.796        0.708        0.053      113.948       12.271        0.012      334.912        5.199      866.825
11/14/2013  01:21:00     -129.912      -22.488      -13.432       30.329       26.083       17.575      919.876      680.343      308.870        0.974        0.095      131.844       18.282        0.019      334.878        5.141      866.818
11/14/2013  01:22:00     -154.473      -62.348       -9.183       24.342       24.736       16.455      592.527      611.856      270.782        1.465        0.074      166.580       13.532        0.007      334.847        5.089      866.792
11/14/2013  01:23:00     -123.332      -77.365       -0.881       28.513       26.490       20.556      812.999      701.731      422.551        1.157        0.097      145.589       19.316        0.018      334.883        5.148      866.762
11/14/2013  01:24:00     -145.179      -48.632       -9.844       16.340       19.533       12.097      267.010      381.552      146.342        1.217        0.040      153.108        4.468        0.001      334.983        5.317      866.726
11/14/2013  01:25:00     -150.400      -44.310      -16.595       10.311       16.417        9.940      106.312      269.510       98.805        1.267        0.024      156.792        7.071        0.002      334.881        5.146      866.680
11/14/2013  01:26:00     -130.833      -61.772       -8.762       17.920       19.315       13.284      321.126      373.052      176.469        1.094        0.044      144.683        9.921        0.005      334.858        5.107      866.638
11/14/2013  01:27:00     -129.682      -64.448      -11.589       22.150       24.488       18.293      490.634      599.655      334.640        1.126        0.071      144.814       13.425        0.009      334.940        5.244      866.606
11/14/2013  01:28:00     -112.647      -51.211      -13.922       21.330       20.606       12.621      454.973      424.590      159.278        0.827        0.052      123.741        8.781        0.005      334.932        5.232      866.604
11/14/2013  01:29:00     -121.815      -43.734       -6.249       25.772       24.338       17.282      664.210      592.335      298.672        0.917        0.078      129.428       13.594        0.011      334.980        5.311      866.617
11/14/2013  01:30:00     -131.560      -19.845      -11.630       40.669       29.083       19.955     1653.943      845.830      398.214        1.037        0.145      133.049       19.190        0.021      335.141        5.578      866.638
11/14/2013  01:31:00     -158.916       -7.546       -9.115       27.333       29.416       16.357      747.096      865.326      267.555        1.364        0.094      159.095       11.883        0.006      335.237        5.738      866.664
11/14/2013  01:32:00     -109.977      -13.912       -9.935       37.875       27.723       20.523     1434.484      768.551      421.173        0.751        0.131      110.854       20.674        0.035      335.262        5.778      866.695
11/14/2013  01:33:00     -158.142       -0.269      -11.175       28.969       36.493       17.430      839.213     1331.718      303.818        1.380        0.124      158.142        8.316        0.003      335.487        6.152      866.703
11/14/2013  01:34:00     -107.379       11.725       -2.812       36.099       24.410       16.558     1303.152      595.835      274.169        0.692        0.109      108.018       15.604        0.021      335.431        6.061      866.694
11/14/2013  01:35:00     -123.551        8.398       -9.617       28.559       17.941       12.662      815.635      321.897      160.322        0.836        0.065      123.836       11.613        0.009      335.510        6.192      866.670
11/14/2013  01:36:00     -148.264       -5.067      -13.626       22.782       19.298       12.372      519.001      372.407      153.068        1.162        0.052      148.351       12.332        0.007      335.527        6.220      866.668
11/14/2013  01:37:00     -119.198      -27.152      -11.515       31.522       21.827       15.709      993.646      476.398      246.778        0.840        0.086      122.252       17.538        0.021      335.445        6.083      866.661
11/14/2013  01:38:00     -127.836      -12.959       -9.050       34.681       27.335       20.002     1202.764      747.205      400.094        0.947        0.118      128.491       15.837        0.015      335.433        6.064      866.650
11/14/2013  01:39:00     -125.394      -22.354      -18.408       29.044       27.845       16.935      843.564      775.333      286.790        0.923        0.095      127.371       13.363        0.011      335.348        5.921      866.638
11/14/2013  01:40:00     -112.123      -21.602      -15.988       44.004       27.090       20.517     1936.316      733.857      420.930        0.819        0.155      114.185       21.514        0.036      335.215        5.699      866.604
11/14/2013  01:41:00     -132.908      -41.024      -21.963       25.802       24.144       15.469      665.722      582.916      239.305        1.066        0.074      139.095       11.903        0.007      335.188        5.656      866.565
11/14/2013  01:42:00     -116.113      -26.855      -12.422       33.543       28.318       19.413     1125.133      801.925      376.882        0.833        0.115      119.178       14.789        0.015      335.241        5.743      866.537
11/14/2013  01:43:00     -152.015      -31.909      -10.273       29.844       27.995       22.875      890.653      783.734      523.281        1.321        0.110      155.328       18.683        0.014      335.248        5.755      866.535
11/14/2013  01:44:00     -160.123      -14.012      -13.620       22.181       25.473       14.285      491.983      648.884      204.056        1.368        0.067      160.735       10.781        0.004      335.281        5.810      866.564
11/14/2013  01:45:00     -124.909       -8.961      -10.154       27.909       26.335       16.470      778.933      693.508      271.246        0.876        0.087      125.231       15.149        0.015      335.230        5.725      866.579
11/14/2013  01:46:00     -113.105       -9.471       -5.352       36.727       26.711       20.027     1348.893      713.481      401.074        0.769        0.123      113.501       19.802        0.030      335.236        5.736      866.587
11/14/2013  01:47:00     -114.018      -19.895       -8.461       33.080       26.681       22.985     1094.264      711.867      528.300        0.790        0.117      115.741       20.635        0.032      335.222        5.711      866.595
11/14/2013  01:48:00     -114.351      -22.808       -4.388       28.336       26.913       18.865      802.915      724.302      355.885        0.775        0.094      116.603       17.473        0.022      335.240        5.742      866.602
11/14/2013  01:49:00     -138.630      -39.677       -7.396       26.104       23.465       16.295      681.427      550.602      265.541        1.117        0.075      144.196       14.249        0.010      335.183        5.646      866.584
11/14/2013  01:50:00      -94.897      -67.315       -3.611       46.318       30.423       20.412     2145.311      925.577      416.668        0.852        0.174      116.347        8.231        0.005      335.105        5.519      866.566
11/14/2013  01:51:00       -4.680       -1.572       16.788       27.150       18.474       18.273      737.115      341.299      333.899        0.086        0.071        4.937       13.314        7.273      335.017        5.372      866.554
11/14/2013  01:52:00      -21.560      -10.861        0.381       28.177       18.374       16.737      793.955      337.602      280.142        0.100        0.071       24.141       16.242        0.453      335.032        5.398      866.546
11/14/2013  01:53:00      -18.772      -25.863        2.922       19.722       18.065       12.046      388.949      326.326      145.094        0.094        0.043       31.958        7.007        0.048      335.004        5.351      866.532
11/14/2013  01:54:00      -40.942      -12.031       -1.568       18.581       21.550       11.874      345.262      464.388      140.992        0.139        0.048       42.673       10.722        0.063      334.927        5.223      866.522
11/14/2013  01:55:00      -89.869      -34.990      -11.089       19.120       20.159       11.061      365.560      406.384      122.354        0.516        0.045       96.441        6.652        0.005      334.944        5.251      866.516
11/14/2013  01:56:00      -91.397      -45.785       -0.291       19.431       17.579       17.770      377.549      309.020      315.784        0.573        0.050      102.224       12.750        0.016      334.945        5.252      866.508
11/14/2013  01:57:00      -87.292      -50.277        4.878       40.355       22.684       21.217     1628.527      514.573      450.176        0.638        0.130      100.735       25.141        0.062      334.929        5.226      866.511
11/14/2013  01:58:00      -70.516      -50.803        2.526       41.335       24.134       20.295     1708.585      582.456      411.888        0.513        0.135       86.911       21.543        0.061      334.931        5.229      866.534
11/14/2013  01:59:00      -52.682      -57.572        7.810       35.500       24.759       23.352     1260.245      613.008      545.299        0.428        0.121       78.037       17.480        0.050      334.958        5.275      866.560
11/14/2013  02:00:00      -78.279      -73.724       -2.115       34.362       36.111       20.400     1180.754     1304.028      416.143        0.723        0.145      107.530       15.654        0.021      335.003        5.349      866.581
11/14/2013  02:01:00     -124.995      -63.355       -2.667       35.865       46.713       22.634     1286.310     2182.078      512.288        1.181        0.199      140.134       20.275        0.021      334.961        5.280      866.583
11/14/2013  02:02:00     -130.441      -76.542       -1.722       50.520       43.576       25.553     2552.296     1898.852      652.948        1.399        0.255      151.239       23.042        0.023      334.916        5.205      866.566
11/14/2013  02:03:00     -144.345      -62.585       -5.217       35.278       30.607       20.433     1244.561      936.770      417.523        1.369        0.130      157.329       11.999        0.006      334.868        5.123      866.538
11/14/2013  02:04:00     -139.365      -71.043       -5.892       38.102       28.822       20.125     1451.731      830.735      405.024        1.360        0.134      156.428       13.572        0.008      334.877        5.139      866.516
11/14/2013  02:05:00     -114.409      -75.259        0.299       66.661       37.433       26.265     4443.695     1401.253      689.864        1.264        0.327      136.943       26.146        0.036      334.943        5.250      866.500
11/14/2013  02:06:00      -75.136      -67.655       13.124       59.680       42.095       30.160     3561.675     1772.006      909.640        0.832        0.312      101.107       35.353        0.122      334.949        5.259      866.482
11/14/2013  02:07:00     -107.182      -64.029        4.594       47.314       36.653       30.976     2238.588     1343.440      959.495        1.007        0.227      124.851       28.629        0.053      335.052        5.429      866.433
11/14/2013  02:08:00     -137.731      -64.307       -4.086       32.538       32.795       17.227     1058.693     1075.535      296.769        1.278        0.122      152.003       14.227        0.009      335.018        5.374      866.382
11/14/2013  02:09:00     -131.851      -68.451       -5.150       34.589       25.930       18.145     1196.417      672.347      329.228        1.215        0.110      148.561       16.669        0.013      334.968        5.291      866.350
11/14/2013  02:10:00     -134.013      -61.138       -5.158       33.996       23.640       18.362     1155.758      558.838      337.166        1.189        0.103      147.300       14.292        0.009      334.902        5.182      866.324
11/14/2013  02:11:00     -119.789      -54.979       -0.253       51.890       27.844       22.943     2692.620      775.265      526.389        1.068        0.200      131.803       25.689        0.038      334.927        5.222      866.318
11/14/2013  02:12:00     -104.490      -52.755        7.604       61.321       31.594       24.141     3760.291      998.212      582.788        0.955        0.267      117.053       28.609        0.060      334.933        5.233      866.312
11/14/2013  02:13:00     -103.441      -58.878        1.328       41.445       31.029       19.808     1717.705      962.830      392.355        0.862        0.154      119.024       19.707        0.027      334.884        5.152      866.290
11/14/2013  02:14:00      -89.166      -33.858       -1.841       29.502       27.703       19.010      870.387      767.429      361.393        0.555        0.100       95.378       17.763        0.035      334.817        5.039      866.271
11/14/2013  02:15:00      -60.172      -36.178       -1.469       37.916       20.835       20.227     1437.616      434.116      409.144        0.361        0.114       70.211       22.358        0.101      334.824        5.052      866.269
11/14/2013  02:16:00      -44.056       -9.357       -2.700       31.722       21.773       16.103     1006.289      474.056      259.306        0.189        0.087       45.038       11.098        0.061      334.780        4.978      866.269
11/14/2013  02:17:00      -82.506      -31.298       -4.022       35.606       36.357       15.222     1267.761     1321.828      231.720        0.531        0.141       88.243        9.500        0.012      334.757        4.939      866.268
11/14/2013  02:18:00      -53.098      -12.888       -3.905       21.561       18.808       14.116      464.868      353.734      199.267        0.201        0.051       54.639       10.555        0.037      334.758        4.942      866.280
11/14/2013  02:19:00      -65.863      -22.282      -11.486       20.185       25.707       11.272      407.437      660.833      127.060        0.308        0.060       69.530       10.679        0.024      334.767        4.959      866.292
11/14/2013  02:20:00      -46.649      -35.291       -3.685       19.643       15.102       14.471      385.839      228.068      209.405        0.213        0.041       58.495       11.689        0.040      334.832        5.065      866.296
11/14/2013  02:21:00      -73.647      -36.522      -11.239       20.862       23.820       15.930      435.236      567.369      253.756        0.407        0.063       82.205        7.510        0.008      334.829        5.060      866.294
11/14/2013  02:22:00      -51.099      -32.177      -10.218       19.269       12.938       15.608      371.301      167.397      243.620        0.227        0.039       60.386        8.792        0.021      334.780        4.980      866.273
11/14/2013  02:23:00       -4.002      -15.373        2.671        8.278        9.406        9.093       68.533       88.472       82.688        0.025        0.012       15.885        6.288        0.157      334.810        5.027      866.241
11/14/2013  02:24:00       15.404       15.202        7.716        8.974       13.359       10.311       80.538      178.458      106.319        0.045        0.018       21.642        9.947        0.211      334.929        5.226      866.203
11/14/2013  02:25:00       13.117       38.833       34.171       15.711       12.997       10.653      246.834      168.922      113.480        0.169        0.026       40.988        5.366        0.017      334.857        5.108      866.179
11/14/2013  02:26:00       40.345       36.962       24.157       29.204       18.151       21.183      852.881      329.449      448.731        0.260        0.082       54.717       20.349        0.138      334.856        5.103      866.158
11/14/2013  02:27:00       62.556       33.585       10.255       18.269       19.338       14.907      333.763      373.974      222.221        0.304        0.046       71.001        5.211        0.005      334.772        4.966      866.132
11/14/2013  02:28:00       74.590       53.417       21.361       31.172       21.382       23.241      971.692      457.172      540.134        0.542        0.098       91.745        7.628        0.007      334.618        4.708      866.107
11/14/2013  02:29:00       22.025       57.924       65.031       27.835       34.717       15.917      774.787     1205.276      253.361        0.515        0.112       61.970       18.341        0.088      334.462        4.451      866.098
11/14/2013  02:30:00       27.342       65.311       64.418       34.750       29.899       27.711     1207.588      893.976      767.915        0.602        0.143       70.803       23.777        0.113      334.397        4.343      866.113
11/14/2013  02:31:00       43.910       54.037       49.376       42.014       30.053       22.016     1765.200      903.186      484.687        0.522        0.158       69.628       10.481        0.023      334.290        4.166      866.157
11/14/2013  02:32:00        1.853       21.665       27.426       12.907       22.941       13.522      166.590      526.277      182.833        0.105        0.044       21.744       14.977        0.474      334.229        4.066      866.227
11/14/2013  02:33:00      -39.114      -28.349        5.022       54.422       32.429       22.479     2961.801     1051.670      505.301        0.344        0.226       48.307       21.312        0.195      334.460        4.446      866.264
11/14/2013  02:34:00     -108.819      -93.523        4.022       46.304       48.072       25.593     2144.088     2310.880      655.008        1.286        0.255      143.485       19.631        0.019      334.562        4.616      866.254
11/14/2013  02:35:00     -125.911      -81.166       -6.769       46.622       46.358       23.796     2173.616     2149.037      566.230        1.369        0.244      149.805       25.183        0.028      334.616        4.706      866.203
11/14/2013  02:36:00      -90.270      -35.812      -14.886       22.090       20.260       15.781      487.974      410.476      249.052        0.540        0.057       97.114       10.993        0.013      334.566        4.623      866.149
11/14/2013  02:37:00      -71.174      -36.910       -7.440       30.815       27.879       16.530      949.560      777.256      273.236        0.424        0.100       80.175       12.008        0.022      334.706        4.855      866.090
11/14/2013  02:38:00      -27.144      -30.525        4.995       22.529       20.627       16.241      507.551      425.460      263.764        0.144        0.060       40.848        6.014        0.022      334.697        4.841      866.075
11/14/2013  02:39:00      -34.865      -49.572        2.544       17.456       21.398       19.353      304.725      457.884      374.520        0.241        0.057       60.605        4.643        0.006      334.851        5.096      866.081
11/14/2013  02:40:00      -32.393      -12.687        5.796       25.475       19.692       12.897      648.983      387.764      166.327        0.122        0.060       34.789        9.282        0.071      334.783        4.984      866.066
11/14/2013  02:41:00       17.004       21.944       11.256       17.504       12.481        6.960      306.397      155.769       48.439        0.070        0.026       27.761        4.476        0.026      334.642        4.748      866.045
11/14/2013  02:42:00       42.489       41.091       27.774       20.509       18.078       11.519      420.624      326.796      132.693        0.257        0.044       59.108        9.408        0.025      334.512        4.532      866.028
11/14/2013  02:43:00       73.791       29.438        1.391       21.335       22.742       18.921      455.203      517.181      357.994        0.382        0.067       79.446       12.387        0.024      334.486        4.492      866.031
11/14/2013  02:44:00       50.340       32.015        8.059       24.253       22.735       19.344      588.208      516.879      374.183        0.255        0.074       59.658       17.047        0.082      334.413        4.370      866.038
11/14/2013  02:45:00       27.817       22.943        4.808       11.998       16.254       12.737      143.944      264.199      162.242        0.095        0.029       36.058        5.106        0.020      334.337        4.244      866.047
11/14/2013  02:46:00       23.644       40.189        1.811        7.261        8.515        6.892       52.716       72.507       47.503        0.118        0.009       46.629        5.308        0.013      334.281        4.150      866.071
11/14/2013  02:47:00       21.431       24.094        5.607       10.464        6.144        9.009      109.491       37.749       81.170        0.065        0.011       32.246        5.338        0.027      334.267        4.129      866.103
11/14/2013  02:48:00       -8.711       11.041       -0.013        8.576        7.299        5.492       73.552       53.279       30.157        0.018        0.008       14.063        4.086        0.084      334.461        4.452      866.118
11/14/2013  02:49:00      -16.860        8.230       -5.019       10.590        7.159        6.473      112.142       51.249       41.903        0.029        0.010       18.761        5.195        0.077      334.489        4.494      866.105
11/14/2013  02:50:00      -66.783      -25.579       -5.175       24.383       15.915        8.928      594.527      253.276       79.708        0.303        0.046       71.514        9.474        0.018      334.388        4.327      866.086
11/14/2013  02:51:00      -68.790      -27.111        6.370       46.813       22.571       19.272     2191.499      509.463      371.414        0.429        0.154       73.940       24.363        0.109      334.344        4.255      866.048
11/14/2013  02:52:00      -85.014      -66.346        0.014       44.342       39.486       21.781     1966.192     1559.121      474.421        0.781        0.200      107.839       18.403        0.029      334.436        4.406      866.011
11/14/2013  02:53:00      -51.039      -37.857       10.341       44.138       27.780       24.855     1948.182      771.717      617.776        0.374        0.167       63.546       26.514        0.174      334.454        4.438      865.983
11/14/2013  02:54:00     -113.780      -48.497       -3.284       28.793       17.949       18.135      829.060      322.178      328.877        0.839        0.074      123.685       17.954        0.021      334.378        4.314      865.935
11/14/2013  02:55:00     -106.743      -24.905      -13.138       14.161       16.109        7.870      200.528      259.491       61.944        0.635        0.026      109.610        3.928        0.001      334.403        4.353      865.898
11/14/2013  02:56:00      -80.775      -31.859      -11.911       16.718       22.113       11.523      279.504      488.977      132.789        0.429        0.045       86.831        7.737        0.008      334.362        4.285      865.868
11/14/2013  02:57:00      -88.581        3.720       -5.788       15.773       13.798       12.722      248.789      190.377      161.842        0.425        0.030       88.660        8.736        0.010      334.316        4.209      865.846
11/14/2013  02:58:00      -93.622       29.914      -12.473       15.180       10.637        7.784      230.429      113.155       60.586        0.511        0.020       98.285        3.183        0.001      334.300        4.183      865.844
11/14/2013  02:59:00      -68.808       25.938       -9.458       22.800       13.220       11.413      519.855      174.766      130.250        0.316        0.041       73.535       10.032        0.019      334.353        4.269      865.864
11/14/2013  03:00:00      -41.342       48.957      -10.642       23.046       22.531       12.685      531.109      507.641      160.918        0.271        0.060       64.078        7.814        0.015      334.488        4.494      865.886
11/14/2013  03:01:00      -24.583       48.145        3.218       25.182       22.398       19.783      634.129      501.649      391.367        0.223        0.076       54.058       15.001        0.077      334.469        4.464      865.887
11/14/2013  03:02:00       14.195       25.883        2.421       17.010       17.474       12.965      289.347      305.325      168.094        0.082        0.038       29.520       12.025        0.166      334.453        4.435      865.874
11/14/2013  03:03:00       11.282       56.521      -10.860       16.056       17.327        8.240      257.799      300.229       67.898        0.203        0.031       57.636        8.874        0.024      334.303        4.186      865.849
11/14/2013  03:04:00      -43.985       62.180      -12.738       31.731       42.809       13.721     1006.831     1832.632      188.256        0.449        0.151       76.164        6.901        0.008      334.389        4.329      865.822
11/14/2013  03:05:00      -81.506      -11.916      -11.781       13.214       20.938       10.262      174.607      438.406      105.318        0.382        0.036       82.372        7.606        0.009      334.229        4.063      865.821
11/14/2013  03:06:00     -116.510      -41.529       -9.805       19.715       25.076       15.584      388.664      628.806      242.849        0.833        0.063      123.690        8.457        0.005      334.074        3.807      865.814
11/14/2013  03:07:00     -132.696       -5.748      -18.530       25.650       21.379       14.358      657.919      457.045      206.153        0.965        0.066      132.820        9.710        0.005      333.987        3.662      865.791
11/14/2013  03:08:00     -101.635      -18.205       -5.198       30.852       25.637       14.095      951.819      657.237      198.671        0.625        0.090      103.253       14.521        0.020      333.951        3.601      865.763
11/14/2013  03:09:00     -124.036      -15.550       -4.946       46.148       30.023       21.608     2129.676      901.360      466.909        0.957        0.175      125.007       26.559        0.045      333.938        3.582      865.719
11/14/2013  03:10:00     -116.806      -11.923        0.355       58.388       39.325       24.250     3409.162     1546.493      588.048        0.966        0.277      117.413       28.930        0.061      333.947        3.596      865.676
11/14/2013  03:11:00     -104.157      -15.982        2.271       48.440       32.095       25.706     2346.412     1030.082      660.801        0.757        0.202      105.376       24.271        0.053      333.986        3.661      865.655
11/14/2013  03:12:00      -61.527      -39.529       12.108       60.329       43.040       30.757     3639.615     1852.483      946.004        0.597        0.322       73.131       30.688        0.176      334.016        3.712      865.638
11/14/2013  03:13:00      -54.985       -3.016        4.830       36.455       35.461       22.178     1328.939     1257.492      491.844        0.307        0.154       55.068       15.206        0.076      334.055        3.775      865.592
11/14/2013  03:14:00     -111.247      -36.786      -11.276       49.046       41.048       17.344     2405.503     1684.939      300.816        0.912        0.220      117.171       20.595        0.031      334.110        3.867      865.552
11/14/2013  03:15:00      -96.344      -50.672       -4.298       38.612       33.849       22.769     1490.920     1145.743      518.441        0.751        0.158      108.857       11.353        0.011      334.160        3.948      865.525
11/14/2013  03:16:00      -79.331      -64.300        0.416       39.326       32.518       19.021     1546.570     1057.412      361.805        0.670        0.148      102.117        4.315        0.002      334.175        3.974      865.502
11/14/2013  03:17:00     -135.951      -33.027       -6.437       37.872       35.052       21.251     1434.301     1228.612      451.617        1.136        0.156      139.905       19.495        0.019      334.159        3.947      865.509
11/14/2013  03:18:00      -89.713       -5.295        1.247       53.405       39.897       26.593     2852.068     1591.782      707.193        0.661        0.258       89.869       26.275        0.085      334.138        3.913      865.514
11/14/2013  03:19:00     -107.476       -3.712        0.662       37.456       34.558       26.215     1402.959     1194.251      687.223        0.742        0.164      107.540       19.480        0.033      334.179        3.981      865.500
11/14/2013  03:20:00     -106.603       31.566      -13.289       45.912       32.247       27.471     2107.920     1039.879      754.678        0.822        0.195      111.179       14.643        0.017      334.327        4.228      865.475
11/14/2013  03:21:00     -128.861       14.284       -8.842       39.654       36.260       27.901     1572.412     1314.818      778.475        1.028        0.183      129.650       25.974        0.040      334.367        4.294      865.460
11/14/2013  03:22:00     -119.809       -8.644      -10.661       52.016       34.678       23.059     2705.637     1202.590      531.707        0.949        0.222      120.121       16.481        0.019      334.289        4.165      865.449
11/14/2013  03:23:00      -89.273      -11.247      -12.349       30.160       33.699       18.703      909.604     1135.615      349.806        0.532        0.120       89.979       12.840        0.020      334.306        4.192      865.416
11/14/2013  03:24:00      -53.872      -13.330        1.651       20.117       27.832       15.790      404.703      774.639      249.333        0.226        0.071       55.497       10.186        0.034      334.257        4.111      865.382
11/14/2013  03:25:00      -19.335      -14.212       -4.851       32.321       22.097       21.147     1044.624      488.264      447.194        0.129        0.099       23.997        8.705        0.132      334.293        4.173      865.365
11/14/2013  03:26:00      -37.741      -21.268      -11.828       35.285       26.289       17.606     1245.001      691.094      309.955        0.213        0.112       43.321       11.185        0.067      334.221        4.052      865.362
11/14/2013  03:27:00      -86.749      -39.362       -8.303       41.507       23.103       19.559     1722.849      533.765      382.536        0.589        0.132       95.262       16.360        0.029      334.058        3.781      865.356
11/14/2013  03:28:00     -123.624      -35.114      -14.366       14.787       14.747        9.432      218.647      217.483       88.964        0.862        0.026      128.514        4.311        0.001      334.015        3.708      865.338
11/14/2013  03:29:00      -63.309      -41.692        3.963       46.304       27.233       19.298     2144.100      741.618      372.399        0.451        0.163       75.804       22.450        0.088      334.050        3.767      865.332
11/14/2013  03:30:00      -51.288      -51.865       10.768       55.818       33.392       26.803     3115.672     1115.011      718.391        0.519        0.247       72.941       32.305        0.196      334.178        3.979      865.337
11/14/2013  03:31:00      -98.681      -57.654        2.044       40.719       41.310       27.227     1658.001     1706.540      741.299        0.859        0.205      114.288       25.401        0.049      334.148        3.929      865.329
11/14/2013  03:32:00     -134.878      -74.695       -9.798       42.820       31.615       24.796     1833.564      999.523      614.846        1.366        0.172      154.180       24.276        0.025      334.163        3.954      865.322
11/14/2013  03:33:00      -77.305      -73.475        2.020       55.238       49.725       24.414     3051.199     2472.601      596.059        0.875        0.306      106.652       23.297        0.048      334.185        3.990      865.342
11/14/2013  03:34:00     -116.582      -83.273        4.154       45.721       42.789       27.298     2090.446     1830.910      745.182        1.260        0.233      143.268       26.716        0.035      334.226        4.058      865.361
11/14/2013  03:35:00     -120.400      -62.925        0.138       47.096       38.020       25.340     2218.076     1445.513      642.102        1.138        0.215      135.852       19.536        0.021      334.210        4.032      865.347
11/14/2013  03:36:00      -88.490      -66.720        1.137       53.778       42.883       23.402     2892.040     1838.917      547.641        0.878        0.264      110.824       25.664        0.054      334.252        4.102      865.323
11/14/2013  03:37:00      -71.269      -51.028        3.564       48.891       28.715       20.901     2390.378      824.534      436.850        0.567        0.183       87.653       25.383        0.084      334.295        4.174      865.308
11/14/2013  03:38:00      -71.862      -33.762        7.833       53.877       33.902       22.339     2902.730     1149.333      499.028        0.546        0.228       79.398       21.483        0.073      334.242        4.087      865.286
11/14/2013  03:39:00      -48.351      -21.845        7.284       48.495       25.099       15.954     2351.755      629.957      254.538        0.305        0.162       53.056       22.260        0.176      334.250        4.100      865.274
11/14/2013  03:40:00      -71.874      -41.515       -0.009       30.493       16.708       18.236      929.830      279.145      332.536        0.422        0.077       83.002       13.912        0.028      334.218        4.045      865.260
11/14/2013  03:41:00      -38.463      -29.668        5.509       33.381       17.224       18.216     1114.313      296.668      331.808        0.207        0.087       48.576       14.889        0.094      334.175        3.975      865.233
11/14/2013  03:42:00      -59.608      -30.755        1.871       38.665       28.119       16.639     1495.006      790.700      276.843        0.353        0.128       67.075       19.709        0.086      334.068        3.796      865.184
11/14/2013  03:43:00      -84.147      -34.661       -2.674       28.618       15.608       13.365      818.974      243.610      178.630        0.476        0.062       91.006       14.935        0.027      333.993        3.673      865.138
11/14/2013  03:44:00      -81.761      -40.971        3.229       23.596       16.446       15.416      556.750      270.478      237.641        0.472        0.053       91.452       13.391        0.021      334.057        3.778      865.109
11/14/2013  03:45:00      -68.235      -33.190        0.917       28.712       19.214       16.054      824.358      369.174      257.746        0.360        0.073       75.878       17.886        0.056      334.032        3.739      865.105
11/14/2013  03:46:00      -54.665      -31.110       -3.496       28.871       17.909       16.235      833.521      320.746      263.579        0.269        0.071       62.897       15.882        0.064      334.054        3.773      865.111
11/14/2013  03:47:00      -14.144      -22.305        8.327       22.136       23.507       15.254      490.004      552.580      232.671        0.102        0.064       26.412       10.436        0.156      334.143        3.922      865.129
11/14/2013  03:48:00      -36.982      -45.787        6.295       33.454       26.963       17.726     1119.143      727.001      314.227        0.283        0.108       58.857       16.281        0.077      334.160        3.950      865.134
11/14/2013  03:49:00      -43.020      -45.445        8.836       39.703       16.319       14.569     1576.338      266.319      212.254        0.302        0.103       62.578       18.805        0.090      334.103        3.855      865.130
11/14/2013  03:50:00      -11.303      -32.011       -6.855       17.871       12.411       14.195      319.355      154.026      201.497        0.094        0.034       33.948        7.981        0.055      334.167        3.962      865.118
11/14/2013  03:51:00      -16.305      -46.505      -13.736       13.333       20.679       14.110      177.773      427.633      199.090        0.171        0.040       49.280       10.981        0.050      334.168        3.962      865.119
11/14/2013  03:52:00      -26.711      -12.851        1.483       13.431       15.230        8.699      180.379      231.961       75.665        0.068        0.024       29.641        2.921        0.010      334.122        3.888      865.138
11/14/2013  03:53:00      -46.062      -38.298       -1.781       17.921       12.086       13.219      321.172      146.073      174.731        0.212        0.032       59.904       10.602        0.031      334.160        3.950      865.165
11/14/2013  03:54:00      -27.496      -25.143        2.171       23.362       15.738       11.748      545.775      247.669      138.023        0.116        0.047       37.259       12.441        0.111      334.183        3.987      865.173
11/14/2013  03:55:00       -9.631      -19.604        7.991       31.078       23.308       17.007      965.828      543.279      289.225        0.117        0.090       21.842       11.374        0.271      334.053        3.772      865.154
11/14/2013  03:56:00      -27.904      -28.669        8.209       28.952       28.542       21.373      838.213      814.669      456.788        0.189        0.105       40.007       17.862        0.199      333.939        3.583      865.137
11/14/2013  03:57:00      -58.330      -56.056        5.889       49.678       33.467       24.122     2467.883     1120.032      581.883        0.537        0.208       80.899       23.240        0.083      333.866        3.463      865.126
11/14/2013  03:58:00     -109.158      -88.657       -1.265       42.072       45.152       22.531     1770.029     2038.719      507.665        1.205        0.216      140.626       16.137        0.013      333.979        3.650      865.107
11/14/2013  03:59:00      -94.423      -86.109       -0.758       51.908       38.256       25.988     2694.478     1463.507      675.393        1.058        0.242      127.791       26.868        0.044      334.011        3.701      865.084
11/14/2013  04:00:00      -96.051      -79.410       -5.034       31.666       34.219       17.749     1002.742     1170.916      315.034        0.902        0.124      124.626       12.573        0.010      333.998        3.681      865.059
11/14/2013  04:01:00      -64.668      -34.214        0.107       29.768       17.709       13.027      886.130      313.597      169.716        0.336        0.068       73.161       14.229        0.038      333.987        3.664      865.040
11/14/2013  04:02:00      -69.064      -27.611       -6.622       15.333       21.072       12.955      235.104      444.039      167.824        0.321        0.042       74.379       12.636        0.029      333.984        3.659      865.028
11/14/2013  04:03:00      -16.102      -17.131        6.814       21.922       13.032       12.182      480.590      169.822      148.399        0.070        0.040       23.511       11.389        0.235      333.965        3.628      865.016
11/14/2013  04:04:00       -0.940      -12.912        3.425        6.790       12.766        9.671       46.105      162.980       93.528        0.024        0.015       12.946        4.587        0.126      334.070        3.800      864.981
11/14/2013  04:05:00      -21.288       -9.523       -1.478       10.582        7.135        6.848      111.976       50.907       46.902        0.038        0.010       23.321        4.938        0.045      334.110        3.866      864.948
11/14/2013  04:06:00      -20.706      -27.899      -10.015       22.539       14.648       12.192      507.990      214.552      148.652        0.109        0.044       34.743       14.016        0.163      334.073        3.804      864.910
11/14/2013  04:07:00      -38.262      -14.755       -6.787       19.777       12.072       11.350      391.149      145.726      128.814        0.120        0.033       41.008       11.136        0.074      334.033        3.739      864.882
11/14/2013  04:08:00      -65.606      -34.553       -4.941       25.997       16.901       12.440      675.851      285.637      154.762        0.332        0.056       74.149        4.803        0.004      333.958        3.615      864.887
11/14/2013  04:09:00      -81.854      -50.345        4.202       44.210       30.043       20.866     1954.500      902.592      435.372        0.627        0.165       96.097       20.798        0.047      333.778        3.317      864.899
11/14/2013  04:10:00     -148.288      -88.905        1.905       62.421       38.156       31.184     3896.419     1455.907      972.417        1.811        0.316      172.898       28.528        0.027      333.827        3.396      864.905
11/14/2013  04:11:00     -130.312     -112.322       12.613       69.856       52.836       36.210     4879.809     2791.639     1311.134        1.937        0.449      172.039       38.299        0.050      333.845        3.425      864.906
11/14/2013  04:12:00     -140.020     -112.292       -0.542       50.642       35.218       31.857     2564.648     1240.322     1014.885        1.852        0.241      179.486       29.816        0.028      333.871        3.469      864.919
11/14/2013  04:13:00     -120.628      -81.744        4.760       57.465       40.893       33.659     3302.202     1672.221     1132.934        1.368        0.305      145.716       34.642        0.057      333.909        3.534      864.919
11/14/2013  04:14:00      -71.218      -63.395        4.624       52.350       34.203       25.802     2740.511     1169.864      665.768        0.684        0.229       95.346       22.396        0.055      333.848        3.432      864.932
11/14/2013  04:15:00     -116.575      -88.626       -0.991       55.570       46.451       25.626     3087.988     2157.671      656.688        1.367        0.295      146.438       19.881        0.018      333.818        3.382      864.936
11/14/2013  04:16:00     -129.135      -67.678       -1.487       47.515       28.152       27.295     2257.644      792.527      745.006        1.253        0.190      145.795       23.767        0.027      333.739        3.252      864.950
11/14/2013  04:17:00     -136.222      -62.309       -2.339       52.208       34.633       23.463     2725.692     1199.417      550.517        1.346        0.224      149.796       25.132        0.028      333.723        3.225      864.964
11/14/2013  04:18:00     -184.582      -43.403       -6.591       57.532       43.052       30.001     3309.959     1853.488      900.050        2.103        0.303      189.616       25.060        0.017      333.702        3.189      864.956
11/14/2013  04:19:00     -165.840      -36.985       -0.206       47.083       45.387       27.138     2216.801     2059.964      736.484        1.694        0.251      169.915       21.362        0.016      333.548        2.933      864.935
11/14/2013  04:20:00     -173.470      -62.099       -2.919       49.886       43.361       30.865     2488.608     1880.144      952.677        1.964        0.266      184.250       29.680        0.026      333.433        2.742      864.899
11/14/2013  04:21:00     -125.259      -66.890       -0.891       54.851       59.487       33.189     3008.614     3538.731     1101.482        1.391        0.382      142.001       29.724        0.044      333.425        2.731      864.864
11/14/2013  04:22:00     -141.433      -41.936      -11.434       38.174       46.123       27.572     1457.249     2127.292      760.203        1.312        0.217      147.519       22.478        0.023      333.493        2.843      864.835
11/14/2013  04:23:00     -169.118      -34.598      -13.050       43.732       37.997       25.629     1912.459     1443.756      656.845        1.699        0.201      172.621       21.809        0.016      333.475        2.814      864.813
11/14/2013  04:24:00     -143.079      -68.426       -6.661       27.891       29.186       21.184      777.888      851.826      448.756        1.364        0.104      158.599       16.521        0.011      333.520        2.888      864.823
11/14/2013  04:25:00     -142.814      -30.730      -13.044       33.317       35.567       19.496     1110.008     1265.001      380.112        1.213        0.138      146.083       19.066        0.017      333.584        2.993      864.831
11/14/2013  04:26:00     -141.250      -61.022       -7.914       26.829       32.970       20.438      719.820     1087.020      417.729        1.298        0.111      153.868       16.733        0.012      333.534        2.911      864.843
11/14/2013  04:27:00     -119.586      -15.460       -4.216       34.672       28.315       21.912     1202.169      801.726      480.137        0.852        0.124      120.581       19.737        0.027      333.547        2.934      864.855
11/14/2013  04:28:00     -118.661        0.942       -8.171       30.941       26.429       19.045      957.375      698.508      362.709        0.808        0.101      118.665       13.318        0.013      333.579        2.986      864.851
11/14/2013  04:29:00     -133.603       20.787      -12.496       28.265       30.723       20.191      798.908      943.873      407.671        1.029        0.108      135.210       14.157        0.011      333.757        3.280      864.821
11/14/2013  04:30:00      -66.622       -6.879       -3.310       40.505       24.928       16.923     1640.643      621.418      286.382        0.352        0.127       66.976       12.907        0.037      333.706        3.197      864.801
11/14/2013  04:31:00       -3.597      -24.237       17.771       30.105       25.200       17.433      906.316      635.037      303.926        0.138        0.092       24.502       17.393        0.504      333.658        3.117      864.792
11/14/2013  04:32:00      -79.514      -47.229        4.867       32.079       25.349       20.066     1029.033      642.575      402.649        0.533        0.104       92.483       16.234        0.031      333.531        2.907      864.780
11/14/2013  04:33:00      -38.651      -28.642        6.678       28.609       17.733       17.398      818.486      314.457      302.697        0.190        0.072       48.107       16.837        0.122      333.561        2.955      864.752
11/14/2013  04:34:00      -64.806      -26.016        2.308       33.221       19.313       20.791     1103.652      372.983      432.284        0.340        0.095       69.833       19.543        0.078      333.652        3.107      864.715
11/14/2013  04:35:00       -7.471      -15.385        9.489       17.195       19.786       13.478      295.657      391.494      181.667        0.063        0.043       17.103        7.852        0.211      333.653        3.108      864.678
11/14/2013  04:36:00      -50.117      -28.302        3.597       32.713       18.790       16.420     1070.114      353.083      269.611        0.251        0.085       57.556       19.267        0.112      333.593        3.009      864.661
11/14/2013  04:37:00      -74.373      -33.374        0.277       35.080       15.199       10.579     1230.580      231.024      111.908        0.411        0.079       81.518       15.618        0.037      333.729        3.235      864.657
11/14/2013  04:38:00      -26.848      -30.752       10.138       32.207       22.846       16.282     1037.319      521.938      265.111        0.180        0.091       40.823       16.646        0.166      333.652        3.106      864.640
11/14/2013  04:39:00      -34.079      -23.336        2.802       33.109       15.316       16.669     1096.216      234.590      277.862        0.166        0.080       41.303       16.960        0.169      333.623        3.061      864.613
11/14/2013  04:40:00      -55.553      -44.387       -4.212       20.608       24.548       14.628      424.683      602.621      213.982        0.316        0.062       71.108       12.078        0.029      333.765        3.295      864.583
11/14/2013  04:41:00      -39.417      -31.130        1.369       22.515       13.841       12.448      506.910      191.572      154.956        0.169        0.043       50.227       13.582        0.073      333.744        3.260      864.568
11/14/2013  04:42:00      -39.650      -53.430        2.535       15.423       14.487       15.152      237.871      209.882      229.595        0.256        0.034       66.534        9.996        0.023      333.852        3.438      864.544
11/14/2013  04:43:00      -50.242      -34.653       -2.998       11.393       14.969        8.307      129.799      224.077       69.011        0.208        0.021       61.034        5.738        0.009      333.915        3.545      864.514
11/14/2013  04:44:00      -52.039      -36.721       -4.927       16.961       15.845        8.670      287.679      251.064       75.175        0.235        0.031       63.691        3.854        0.004      333.871        3.471      864.485
11/14/2013  04:45:00      -74.276      -22.763      -10.198        9.145       12.064        5.843       83.639      145.544       34.141        0.320        0.013       77.685        4.661        0.004      333.700        3.188      864.490
11/14/2013  04:46:00      -80.567      -12.515       -6.741       14.520       14.698        9.165      210.838      216.042       83.989        0.360        0.026       81.533        5.460        0.004      333.691        3.171      864.486
11/14/2013  04:47:00      -78.865      -35.700       -1.308       18.773       12.705       13.172      352.433      161.421      173.496        0.409        0.034       86.569       11.410        0.017      333.706        3.196      864.468
11/14/2013  04:48:00      -75.015      -22.954        1.370       22.408       14.622       15.262      502.102      213.791      232.915        0.355        0.047       78.448       14.140        0.032      333.609        3.038      864.436
11/14/2013  04:49:00     -103.880      -33.719      -10.204       26.607       17.890        9.210      707.925      320.057       84.830        0.657        0.056      109.215        7.609        0.005      333.648        3.100      864.420
11/14/2013  04:50:00     -146.987      -48.687       -5.880       15.591       21.594       10.675      243.078      466.317      113.963        1.242        0.041      154.840        7.448        0.002      333.498        2.851      864.436
11/14/2013  04:51:00     -125.394      -73.087       -2.328       21.639       23.372       15.635      468.249      546.265      244.444        1.116        0.063      145.139        9.922        0.005      333.459        2.786      864.470
11/14/2013  04:52:00     -111.611      -56.373       -4.157       24.607       20.186       15.109      605.493      407.473      228.284        0.845        0.062      125.040       14.358        0.013      333.463        2.792      864.510
11/14/2013  04:53:00     -100.546      -22.763       -6.456       26.193       24.144       17.984      686.098      582.920      323.423        0.613        0.080      103.091       16.551        0.026      333.419        2.719      864.539
11/14/2013  04:54:00      -85.097      -22.576       -4.658       45.036       20.539       15.968     2028.283      421.847      254.988        0.524        0.135       88.041       20.282        0.053      333.394        2.679      864.556
11/14/2013  04:55:00      -94.536      -36.871        4.538       40.563       26.863       19.367     1645.387      721.623      375.091        0.653        0.137      101.471       19.995        0.039      333.466        2.799      864.561
11/14/2013  04:56:00     -100.921      -46.671       -0.543       36.193       24.080       22.986     1309.961      579.849      528.342        0.739        0.121      111.190       19.668        0.031      333.490        2.838      864.544
11/14/2013  04:57:00     -105.699      -27.409       -6.457       24.691       19.748       12.121      609.643      389.974      146.916        0.656        0.057      109.195        9.274        0.007      333.382        2.659      864.511
11/14/2013  04:58:00      -78.033      -48.128       -3.787       23.042       19.790       13.211      530.928      391.644      174.519        0.476        0.055       91.681        9.427        0.011      333.543        2.926      864.476
11/14/2013  04:59:00      -57.061      -38.273        0.068       29.560       16.382       14.573      873.769      268.371      212.359        0.304        0.068       68.708       15.467        0.051      333.532        2.907      864.446
11/14/2013  05:00:00      -87.192      -52.809       -1.772       31.464       20.149       19.570      989.965      405.983      382.991        0.609        0.089      101.937       17.665        0.030      333.512        2.876      864.438
11/14/2013  05:01:00     -122.861      -39.501      -15.716       17.837       23.657       17.063      318.144      559.656      291.129        0.904        0.058      129.055       10.066        0.006      333.449        2.771      864.439
11/14/2013  05:02:00     -150.052      -45.422      -12.343       20.834       25.256       11.907      434.067      637.883      141.774        1.297        0.061      156.776        9.822        0.004      333.319        2.555      864.457
11/14/2013  05:03:00     -152.135      -59.765       -8.055       37.000       25.189       17.320     1368.988      634.504      299.986        1.454        0.115      163.453        8.865        0.003      333.291        2.509      864.464
11/14/2013  05:04:00      -67.386      -43.614       -1.154       42.615       25.382       15.686     1816.041      644.231      246.053        0.457        0.135       80.269       19.495        0.059      333.345        2.599      864.463
11/14/2013  05:05:00     -120.038      -63.574       -2.266       33.879       27.771       17.776     1147.806      771.255      315.984        1.035        0.112      135.834       16.957        0.016      333.327        2.569      864.452
11/14/2013  05:06:00     -115.879      -67.531       -0.520       39.829       25.750       22.868     1586.338      663.081      522.931        1.038        0.139      134.121       19.236        0.021      333.321        2.559      864.440
11/14/2013  05:07:00     -129.172      -66.084       -6.903       22.176       20.906       17.280      491.775      437.063      298.599        1.116        0.061      145.095        9.147        0.004      333.438        2.750      864.424
11/14/2013  05:08:00     -106.649      -80.310       -6.609       41.559       25.494       15.829     1727.177      649.963      250.543        1.025        0.131      133.506       11.455        0.007      333.354        2.614      864.422
11/14/2013  05:09:00     -132.725      -49.726       -0.416       22.275       20.969       15.851      496.155      439.701      251.267        1.064        0.059      141.734       13.275        0.009      333.312        2.544      864.413
11/14/2013  05:10:00     -117.601      -60.348       -5.038       20.507       20.717       16.446      420.545      429.185      270.465        0.931        0.056      132.181       12.374        0.009      333.317        2.552      864.408
11/14/2013  05:11:00     -102.774      -34.536      -10.489       28.562       30.456       17.997      815.799      927.595      323.890        0.697        0.103      108.422       15.899        0.022      333.315        2.548      864.403
11/14/2013  05:12:00     -108.453      -22.966       -7.409       30.051       27.256       15.932      903.063      742.916      253.819        0.712        0.095      110.858       12.182        0.012      333.229        2.406      864.405
11/14/2013  05:13:00     -113.224      -14.205       -3.258       29.878       26.971       20.577      892.669      727.434      423.398        0.754        0.102      114.111       14.679        0.017      333.189        2.340      864.396
11/14/2013  05:14:00      -92.213      -14.927        4.376       40.220       31.450       21.772     1617.639      989.093      474.019        0.591        0.154       93.414       17.414        0.035      333.162        2.296      864.392
11/14/2013  05:15:00     -100.286       -5.285        1.228       38.516       32.950       22.824     1483.447     1085.682      520.934        0.659        0.155      100.425       19.318        0.037      333.245        2.434      864.400
11/14/2013  05:16:00      -98.349      -18.835       -5.958       37.563       28.091       18.420     1411.013      789.117      339.311        0.630        0.127      100.136       18.378        0.034      333.244        2.431      864.397
11/14/2013  05:17:00     -115.783      -23.432       -7.234       19.896       18.525       17.362      395.849      343.167      301.429        0.752        0.052      118.131       13.709        0.013      333.251        2.443      864.381
11/14/2013  05:18:00     -104.158      -27.894       -7.358       26.324       16.940       12.688      692.978      286.959      160.994        0.641        0.057      107.829       14.377        0.018      333.474        2.811      864.363
11/14/2013  05:19:00     -100.329      -26.526       -1.239       32.267       22.621       13.037     1041.134      511.695      169.950        0.625        0.086      103.777       14.659        0.020      333.344        2.596      864.350
11/14/2013  05:20:00      -31.809      -17.822       10.625       42.043       25.048       19.376     1767.642      627.412      375.437        0.211        0.139       36.461       15.009        0.169      333.318        2.554      864.318
11/14/2013  05:21:00      -45.571      -27.773        8.337       36.780       31.632       25.200     1352.758     1000.569      635.015        0.295        0.149       53.367       22.804        0.183      333.342        2.593      864.291
11/14/2013  05:22:00      -57.942      -54.678        5.059       38.237       23.821       21.482     1462.103      567.447      461.479        0.443        0.125       79.668       18.294        0.053      333.470        2.805      864.269
11/14/2013  05:23:00      -13.041      -46.792       12.460       36.983       29.057       18.535     1367.767      844.326      343.551        0.253        0.128       48.575       23.407        0.232      333.532        2.907      864.264
11/14/2013  05:24:00      -22.010      -36.812        4.487       22.698       29.281       12.540      515.182      857.395      157.261        0.169        0.076       42.891       13.504        0.099      333.471        2.808      864.247
11/14/2013  05:25:00      -47.431      -49.298       -7.815       24.831       19.320       10.950      616.560      373.259      119.893        0.293        0.055       68.411        5.044        0.005      333.460        2.788      864.213
11/14/2013  05:26:00      -29.455      -39.503       -2.053       18.757       17.668       11.500      351.824      312.175      132.251        0.161        0.040       49.275        9.630        0.038      333.474        2.812      864.198
11/14/2013  05:27:00      -46.624      -49.771        1.438       25.663       23.550       19.326      658.604      554.618      373.507        0.312        0.079       68.198       15.145        0.049      333.512        2.873      864.204
11/14/2013  05:28:00      -70.922      -35.407       -1.961       29.474       24.042       14.800      868.698      578.038      219.049        0.398        0.083       79.269        5.727        0.005      333.474        2.810      864.219
11/14/2013  05:29:00      -94.977      -33.448       -4.785       20.017       30.642       16.867      400.678      938.932      284.488        0.589        0.081      100.694       15.124        0.023      333.399        2.687      864.231
11/14/2013  05:30:00     -103.280       11.959       -7.800       14.736       11.554       11.457      217.164      133.488      131.255        0.568        0.024      103.970        7.173        0.005      333.246        2.435      864.218
11/14/2013  05:31:00     -109.407       -5.240      -10.689       18.400       17.169        9.463      338.578      294.781       89.544        0.642        0.036      109.532        6.957        0.004      333.285        2.499      864.219
11/14/2013  05:32:00      -98.045      -28.028       -4.657       24.312       24.060       14.449      591.054      578.876      208.784        0.590        0.069      101.973       10.370        0.010      333.203        2.362      864.251
11/14/2013  05:33:00     -132.491      -34.575       -7.307       27.814       25.412       15.243      773.624      645.762      232.363        1.023        0.083      136.928       11.275        0.007      333.154        2.284      864.280
11/14/2013  05:34:00      -88.654      -19.515        2.689       31.594       27.102       19.998      998.169      734.510      399.928        0.519        0.107       90.776       15.750        0.030      333.120        2.225      864.300
11/14/2013  05:35:00     -106.938      -35.885       -3.332       30.214       26.910       15.753      912.893      724.149      248.162        0.731        0.094      112.798       13.214        0.014      333.165        2.301      864.329
11/14/2013  05:36:00     -115.996      -36.093        0.733       31.437       29.176       15.869      988.313      851.217      251.826        0.842        0.105      121.481       14.535        0.014      333.224        2.397      864.360
11/14/2013  05:37:00      -88.841      -15.202       -1.378       31.588       23.287       16.575      997.773      542.287      274.728        0.497        0.091       90.132       16.540        0.034      333.200        2.358      864.364
11/14/2013  05:38:00      -91.188      -13.300       -5.822       26.180       19.110       14.236      685.393      365.181      202.663        0.489        0.063       92.153       14.540        0.025      333.156        2.286      864.340
11/14/2013  05:39:00     -103.499      -18.477      -15.464       27.446       17.922       15.593      753.310      321.201      243.138        0.630        0.066      105.136       16.965        0.026      333.113        2.215      864.321
11/14/2013  05:40:00      -69.289      -21.562       -8.774       32.540       19.271       13.023     1058.838      371.370      169.608        0.347        0.080       72.567       13.288        0.034      333.189        2.342      864.300
11/14/2013  05:41:00      -58.869      -24.602        3.600       27.551       16.827       12.244      759.062      283.142      149.918        0.264        0.060       63.803       10.606        0.028      333.269        2.472      864.294
11/14/2013  05:42:00      -68.969      -18.965       -3.430       21.268       16.054       11.148      452.322      257.716      124.286        0.298        0.042       71.529       10.290        0.021      333.257        2.451      864.283
11/14/2013  05:43:00      -58.212      -12.628        3.946       25.630       17.852       14.348      656.884      318.711      205.863        0.237        0.059       59.566       13.255        0.050      333.237        2.421      864.279
11/14/2013  05:44:00      -83.114      -52.446        2.315       27.154       18.435       17.402      737.338      339.843      302.836        0.552        0.069       98.278       17.488        0.032      333.338        2.588      864.291
11/14/2013  05:45:00      -57.496      -29.316        5.344       31.649       21.892       16.389     1001.652      479.271      268.604        0.297        0.087       64.538       15.578        0.058      333.313        2.545      864.290
11/14/2013  05:46:00      -30.765      -33.964       -1.146       29.805       16.353       10.569      888.348      267.405      111.707        0.168        0.063       45.826        7.580        0.027      333.312        2.544      864.286
11/14/2013  05:47:00      -46.488      -48.224       -2.266       18.286       20.717       12.543      334.378      429.185      157.319        0.271        0.046       66.983        9.283        0.019      333.380        2.656      864.268
11/14/2013  05:48:00      -33.619      -43.139        9.820       36.026       26.991       19.347     1297.868      728.524      374.310        0.274        0.120       54.692       17.996        0.108      333.422        2.725      864.245
11/14/2013  05:49:00      -62.137      -44.515        0.116       37.678       31.190       19.583     1419.607      972.822      383.503        0.431        0.139       76.437       17.445        0.052      333.479        2.821      864.244
11/14/2013  05:50:00     -101.881      -31.354      -11.716       20.987       21.477       20.066      440.434      461.282      402.650        0.640        0.065      106.596       10.349        0.009      333.593        3.009      864.238
11/14/2013  05:51:00     -107.782      -69.242       -2.424       24.894       25.932       16.604      619.688      672.482      275.689        0.899        0.078      128.107       10.267        0.006      333.530        2.905      864.217
11/14/2013  05:52:00      -27.104      -52.659       -5.865       61.276       27.914       16.924     3754.759      779.202      286.417        0.418        0.241       59.225       13.003        0.048      333.478        2.819      864.185
11/14/2013  05:53:00      -45.678      -37.445       -0.534       63.434       37.556       20.787     4023.911     1410.480      432.090        0.468        0.293       59.065       10.037        0.029      333.571        2.972      864.151
11/14/2013  05:54:00     -106.280      -64.831        5.137       61.774       39.237       31.084     3815.975     1539.506      966.246        1.092        0.316      124.493       31.142        0.063      333.430        2.741      864.126
11/14/2013  05:55:00     -160.752      -50.961       -7.949       40.103       36.230       24.263     1608.220     1312.587      588.671        1.600        0.175      168.636       19.836        0.014      333.275        2.483      864.132
11/14/2013  05:56:00     -140.871      -35.586       -2.534       45.303       39.531       23.733     2052.327     1562.705      563.262        1.265        0.209      145.296       23.362        0.026      333.230        2.407      864.162
11/14/2013  05:57:00      -64.874       -1.260        7.899       51.215       40.009       27.353     2623.025     1600.732      748.167        0.462        0.249       64.887       30.824        0.226      333.087        2.172      864.229
11/14/2013  05:58:00      -92.865       15.679        0.340       48.121       36.606       24.847     2315.664     1339.995      617.367        0.657        0.214       94.179       24.157        0.066      332.896        1.857      864.292
11/14/2013  05:59:00     -109.129       23.347       -6.989       41.003       36.484       17.233     1681.211     1331.057      296.971        0.791        0.165      111.598       18.221        0.027      332.927        1.908      864.343
11/14/2013  06:00:00      -95.363      -13.426      -14.958       32.483       39.148       24.818     1055.140     1532.561      615.921        0.635        0.160       96.304       18.030        0.035      333.003        2.034      864.372
11/14/2013  06:01:00      -66.865      -41.023       -3.317       34.517       30.694       26.615     1191.450      942.151      708.358        0.450        0.142       78.446       23.576        0.090      333.047        2.105      864.355
11/14/2013  06:02:00      -16.220      -13.522        1.343       20.440       29.555       16.557      417.784      873.491      274.131        0.101        0.078       21.117        6.952        0.108      333.314        2.546      864.280
11/14/2013  06:03:00       47.278        4.048       10.127       30.127       28.442       20.621      907.645      808.975      425.225        0.225        0.107       47.451       16.000        0.114      333.257        2.452      864.208
11/14/2013  06:04:00       40.572      -28.941       -5.746       22.004       36.053       21.178      484.174     1299.841      448.496        0.237        0.112       49.837       19.777        0.157      333.241        2.426      864.169
11/14/2013  06:05:00       -5.545      -47.917       -7.832       34.942       27.564       19.828     1220.950      759.768      393.130        0.238        0.119       48.236       15.434        0.102      333.640        3.088      864.165
11/14/2013  06:06:00     -104.502      -50.961        1.707       38.596       29.107       17.634     1489.646      847.189      310.967        0.808        0.132      116.265       12.760        0.012      333.483        2.826      864.178
11/14/2013  06:07:00      -87.605      -31.849        4.137       41.621       37.097       20.983     1732.324     1376.207      440.280        0.613        0.177       93.215       19.453        0.044      333.230        2.409      864.181
11/14/2013  06:08:00     -124.418      -40.264       -0.032       42.605       45.680       20.574     1815.174     2086.702      423.274        1.071        0.216      130.771       25.292        0.037      333.238        2.421      864.169
11/14/2013  06:09:00      -98.786      -70.687       -4.139       31.934       24.083       14.017     1019.770      579.998      196.464        0.828        0.090      121.471       10.721        0.008      333.314        2.548      864.156
11/14/2013  06:10:00      -60.920      -57.822       -7.909       16.925       31.271       10.334      286.439      977.846      106.798        0.424        0.069       83.992       10.710        0.016      333.527        2.900      864.146
11/14/2013  06:11:00      -42.951      -30.621       -4.953       13.409       12.360       10.472      179.803      152.774      109.663        0.162        0.022       52.749        6.080        0.013      333.684        3.159      864.139
11/14/2013  06:12:00      -53.707      -34.087       -1.380       14.011       14.382       10.712      196.300      206.835      114.741        0.228        0.026       63.611        7.867        0.015      333.540        2.921      864.146
11/14/2013  06:13:00     -118.167      -69.158       -3.539       28.090       22.836       12.505      789.027      521.502      156.386        1.011        0.073      136.917       10.511        0.006      333.468        2.801      864.159
11/14/2013  06:14:00     -111.515      -67.839        5.740       52.050       28.539       22.211     2709.180      814.466      493.325        1.054        0.201      130.528       21.914        0.028      333.444        2.763      864.162
11/14/2013  06:15:00      -79.923      -19.347       -4.302       39.568       33.076       23.610     1565.614     1093.989      557.441        0.500        0.161       82.231       20.581        0.063      333.132        2.247      864.146
11/14/2013  06:16:00        8.055        9.313        9.543       18.000       10.605        8.797      323.998      112.459       77.392        0.038        0.026       12.313        4.837        0.154      333.132        2.247      864.121
11/14/2013  06:17:00      -18.894        2.281       10.197       15.172       21.136       12.587      230.186      446.723      158.430        0.065        0.042       19.031       13.158        0.478      333.150        2.276      864.117
11/14/2013  06:18:00      -31.613      -28.450       -1.554       22.760       25.014       12.429      518.014      625.715      154.484        0.155        0.065       42.529       10.712        0.063      333.256        2.450      864.141
11/14/2013  06:19:00      -48.089      -57.684        3.409       46.933       47.830       23.299     2202.731     2287.690      542.864        0.534        0.252       75.100       26.465        0.124      333.234        2.414      864.145
11/14/2013  06:20:00      -52.224      -52.374        2.737       30.932       28.320       19.707      956.816      802.031      388.384        0.381        0.107       73.962       12.624        0.029      333.255        2.451      864.128
11/14/2013  06:21:00      -40.611      -39.929        4.559       42.426       26.045       23.713     1800.001      678.368      562.286        0.315        0.152       56.952       20.626        0.131      333.253        2.447      864.105
11/14/2013  06:22:00       -1.624       -8.949        7.202       20.079       19.842       13.306      403.170      393.716      177.046        0.055        0.049        9.095        8.686        0.912      333.246        2.435      864.087
11/14/2013  06:23:00      -17.878       17.465       -7.768        8.323        7.908        7.425       69.266       62.541       55.133        0.044        0.009       24.993        4.138        0.027      333.306        2.535      864.088
11/14/2013  06:24:00       12.422        8.010       20.736       26.016        9.774        9.390      676.825       95.537       88.173        0.075        0.043       14.781       13.240        0.802      333.282        2.495      864.103
11/14/2013  06:25:00       41.120       34.984       22.602       13.339        9.455        8.476      177.929       89.389       71.842        0.188        0.017       53.989        7.213        0.018      333.105        2.204      864.112
11/14/2013  06:26:00       52.627       46.697        0.013       15.958       15.817       16.071      254.652      250.169      258.287        0.286        0.038       70.357        9.709        0.019      333.072        2.148      864.120
11/14/2013  06:27:00       66.799       51.151        4.510       24.787       23.642       18.771      614.382      558.923      352.369        0.431        0.076       84.134       18.447        0.048      332.911        1.881      864.116
11/14/2013  06:28:00       23.811       45.352       -2.395       30.270       23.512       20.354      916.253      552.804      414.285        0.226        0.094       51.222       17.260        0.114      332.889        1.845      864.117
11/14/2013  06:29:00        9.435       74.927      -12.613       15.694       13.228        8.893      246.291      174.967       79.089        0.318        0.025       75.518        6.858        0.008      332.855        1.790      864.124
11/14/2013  06:30:00       -4.377       30.623        0.039        9.947       26.510       11.635       98.950      702.793      135.374        0.095        0.047       30.934       11.481        0.138      333.031        2.080      864.124
11/14/2013  06:31:00       19.352       17.761       18.360       17.215       16.587       15.120      296.373      275.134      228.625        0.091        0.040       26.267       12.619        0.231      332.965        1.971      864.099
11/14/2013  06:32:00       32.740       38.048       42.879       26.475       22.976       15.970      700.913      527.914      255.033        0.292        0.074       50.195        9.002        0.032      332.905        1.874      864.081
11/14/2013  06:33:00        8.902       11.053       14.195       11.138       22.768       15.948      124.066      518.366      254.341        0.065        0.045       14.192       15.767        1.234      332.887        1.843      864.072
11/14/2013  06:34:00       -2.759      -22.800        3.571       23.193       13.895       13.771      537.902      193.074      189.639        0.073        0.046       22.966        7.738        0.114      333.214        2.382      864.027
11/14/2013  06:35:00       -2.569       -4.774        0.764       10.424        6.882        5.177      108.662       47.356       26.802        0.011        0.009        5.421        3.374        0.387      333.255        2.449      863.979
11/14/2013  06:36:00       50.773       47.730       29.231       18.299       14.172       14.599      334.858      200.835      213.126        0.323        0.037       69.685        9.182        0.017      332.951        1.949      863.930
11/14/2013  06:37:00       83.950       46.916       11.154       25.837       18.647       15.849      667.541      347.704      251.204        0.532        0.063       96.170        8.273        0.007      332.951        1.949      863.901
11/14/2013  06:38:00       26.417       42.827        6.319       20.839       23.506       14.091      434.272      552.551      198.562        0.188        0.059       50.319       11.006        0.048      332.856        1.791      863.901
11/14/2013  06:39:00        1.217       62.785       -1.893        9.357       17.590       13.728       87.546      309.399      188.468        0.227        0.029       62.797       11.883        0.036      332.752        1.618      863.925
11/14/2013  06:40:00       36.907       39.857        4.712       30.992       14.181       15.002      960.529      201.107      225.065        0.218        0.069       54.321       14.354        0.070      332.787        1.679      863.947
11/14/2013  06:41:00       60.617       43.020        5.101       23.460       22.270       13.242      550.351      495.934      175.354        0.339        0.061       74.331       10.522        0.020      332.786        1.676      863.933
11/14/2013  06:42:00       59.653       51.734       -0.355       22.162       19.109       17.434      491.168      365.170      303.936        0.370        0.058       78.961       11.835        0.022      332.799        1.697      863.894
11/14/2013  06:43:00       50.444       24.969        3.634       28.638       21.302       14.565      820.135      453.758      212.137        0.233        0.074       56.286       13.291        0.056      332.826        1.743      863.876
11/14/2013  06:44:00        4.738        4.348        1.676       28.389       18.579       10.804      805.948      345.188      116.735        0.066        0.063        6.431        8.539        1.763      332.859        1.797      863.910
11/14/2013  06:45:00      -70.733      -11.476      -12.256       36.045       19.757       13.274     1299.231      390.327      176.191        0.357        0.093       71.657        7.569        0.011      332.993        2.017      863.962
11/14/2013  06:46:00      -84.346       -3.425      -10.127       17.847       21.848       11.363      318.499      477.335      129.112        0.408        0.046       84.415        9.726        0.013      332.902        1.865      863.997
11/14/2013  06:47:00      -52.012       17.965       -8.565       24.585       18.606       17.858      604.419      346.165      318.902        0.219        0.063       55.027       14.855        0.073      332.840        1.764      864.009
11/14/2013  06:48:00      -48.264       20.830       -6.581       15.834       15.124        8.400      250.721      228.731       70.562        0.168        0.028       52.567        7.816        0.022      332.958        1.959      864.011
11/14/2013  06:49:00      -54.107        6.965      -10.382       11.733       21.091        9.317      137.662      444.821       86.798        0.188        0.033       54.554        6.159        0.013      333.077        2.158      864.013
11/14/2013  06:50:00      -50.395       -7.101       -6.459       14.117       16.904       10.865      199.294      285.732      118.049        0.162        0.030       50.892       10.343        0.041      333.070        2.147      864.020
11/14/2013  06:51:00      -83.883      -20.967       -9.537       25.894       16.398       13.048      670.499      268.910      170.248        0.434        0.055       86.464       11.914        0.019      332.977        1.992      864.032
11/14/2013  06:52:00      -55.119        0.501       -2.516       42.423       20.291       15.245     1799.708      411.727      232.404        0.274        0.122       55.121       16.097        0.085      332.898        1.860      864.023
11/14/2013  06:53:00      -25.447       49.827       -7.780       24.254       27.498       12.947      588.233      756.133      167.616        0.235        0.076       55.949       13.724        0.060      333.218        2.389      864.002
11/14/2013  06:54:00        1.243       20.772        7.021       35.114       18.762       16.270     1232.984      351.996      264.698        0.117        0.092       20.810       12.503        0.361      333.161        2.292      864.001
11/14/2013  06:55:00      -41.174       16.787       -8.446       28.101       17.334       11.123      789.659      300.471      123.731        0.163        0.061       44.465        8.402        0.036      333.130        2.244      864.032
11/14/2013  06:56:00      -58.296       -7.222       -8.641       18.259       16.189       10.374      333.385      262.087      107.615        0.211        0.035       58.742        9.733        0.027      333.148        2.275      864.076
11/14/2013  06:57:00      -91.824      -57.753       -6.120       31.100       26.348       20.353      967.203      694.212      414.256        0.694        0.104      108.476       14.940        0.019      332.928        1.910      864.118
11/14/2013  06:58:00      -93.477      -54.122       -2.178       45.482       26.431       20.177     2068.653      698.583      407.100        0.742        0.159      108.014       23.219        0.046      332.978        1.992      864.131
11/14/2013  06:59:00      -35.559      -18.645        6.119       35.702       17.073       14.957     1274.626      291.485      223.719        0.172        0.089       40.151       15.395        0.147      333.031        2.080      864.102
11/14/2013  07:00:00      -82.653      -16.146       -8.565       16.269       14.315       10.276      264.679      204.921      105.600        0.387        0.029       84.215        7.562        0.008      333.039        2.094      864.056
11/14/2013  07:01:00      -48.505      -21.639      -10.604       19.683       14.411        9.134      387.403      207.669       83.434        0.181        0.034       53.113        7.397        0.019      333.143        2.263      864.021
11/14/2013  07:02:00      -82.512      -35.093      -10.508       19.054       20.094       10.546      363.064      403.785      111.217        0.451        0.044       89.664        6.564        0.005      333.114        2.216      864.034
11/14/2013  07:03:00     -114.535      -34.745      -16.496       18.302       24.219       14.811      334.963      586.573      219.359        0.787        0.057      119.689        6.075        0.003      332.995        2.019      864.061
11/14/2013  07:04:00      -82.463        9.943       -4.790       24.131       20.204       13.013      582.285      408.210      169.341        0.404        0.058       83.061        9.069        0.012      332.948        1.944      864.077
11/14/2013  07:05:00      -32.495      -12.230        5.037       30.026       20.908       14.443      901.578      437.141      208.595        0.139        0.077       34.721       18.101        0.272      333.089        2.175      864.056
11/14/2013  07:06:00      -25.728       -3.473        2.240       42.156       18.378       15.130     1777.132      337.757      228.931        0.151        0.117       25.962       20.951        0.651      333.143        2.264      864.055
11/14/2013  07:07:00      -93.183        0.893       -6.527       23.477       19.688       11.888      551.150      387.604      141.336        0.490        0.054       93.187        6.742        0.005      333.234        2.414      864.070
11/14/2013  07:08:00     -100.409      -49.025       -3.691       22.082       19.434       16.644      487.613      377.678      277.012        0.682        0.057      111.738       11.341        0.010      333.204        2.364      864.121
11/14/2013  07:09:00      -73.489      -32.653       -4.334       47.425       43.601       15.769     2249.168     1901.026      248.655        0.544        0.220       80.416       12.504        0.024      333.203        2.365      864.122
11/14/2013  07:10:00      -54.539       -2.052       -1.142       45.455       21.355       15.321     2066.188      456.015      234.728        0.287        0.138       54.577       20.489        0.141      333.226        2.402      864.101
11/14/2013  07:11:00      -12.435       -9.779        0.987       10.426        8.589        8.875      108.693       73.766       78.758        0.026        0.013       15.820        7.495        0.224      333.414        2.712      864.076
11/14/2013  07:12:00      -69.968        4.202       -9.772       24.476       15.512       11.988      599.098      240.619      143.715        0.300        0.049       70.094        8.197        0.014      333.274        2.480      864.051
11/14/2013  07:13:00      -82.086        4.958       -9.884       16.890       13.161       10.227      285.286      173.225      104.596        0.371        0.028       82.235        5.311        0.004      333.258        2.456      864.032
11/14/2013  07:14:00      -58.589       17.090       -7.267       20.856       15.655       14.093      434.959      245.072      198.615        0.233        0.044       61.031        7.556        0.015      333.333        2.579      864.015
11/14/2013  07:15:00      -79.195        5.917      -11.274       19.216       20.095        9.672      369.252      403.804       93.541        0.365        0.043       79.415        5.227        0.004      333.415        2.714      864.005
11/14/2013  07:16:00      -87.863      -30.475      -16.441       14.664       13.619       10.859      215.021      185.467      117.922        0.472        0.026       92.998        8.275        0.008      333.362        2.627      864.018
11/14/2013  07:17:00     -130.053      -25.307      -20.604       26.851       18.329       14.837      720.971      335.952      220.124        0.963        0.064      132.492        6.401        0.002      333.271        2.476      864.017
11/14/2013  07:18:00      -80.366      -14.706       -9.232       39.940       25.128       17.178     1595.183      631.396      295.081        0.464        0.126       81.701       14.470        0.031      333.262        2.461      863.997
11/14/2013  07:19:00      -33.111       -9.730        4.574       24.159       16.733       13.800      583.678      280.003      190.443        0.113        0.053       34.511       13.142        0.145      333.368        2.638      863.961
11/14/2013  07:20:00      -74.436      -29.494       -6.859       21.418       23.249       13.966      458.726      540.499      195.058        0.383        0.060       80.067       12.167        0.023      333.409        2.703      863.931
11/14/2013  07:21:00      -91.101      -15.563       -4.168       34.840       25.193       16.686     1213.811      634.667      278.422        0.534        0.106       92.421       14.656        0.025      333.395        2.681      863.918
11/14/2013  07:22:00     -132.329        3.966      -16.009       23.851       16.069       13.467      568.857      258.217      181.371        0.940        0.050      132.389        6.927        0.003      333.324        2.566      863.935
11/14/2013  07:23:00     -104.734       -2.183      -14.565       30.958       30.296       16.318      958.368      917.868      266.277        0.666        0.107      104.756       14.776        0.020      333.288        2.506      863.949
11/14/2013  07:24:00      -76.013      -12.622       -3.660       20.489       18.868       15.474      419.817      356.019      239.454        0.348        0.051       77.053       10.590        0.019      333.279        2.489      863.968
11/14/2013  07:25:00      -65.406      -14.923       -6.181       31.332       22.561       20.902      981.718      509.008      436.908        0.323        0.096       67.086       20.853        0.097      333.359        2.623      863.971
11/14/2013  07:26:00      -80.316        1.979       -8.783       24.966       19.648       16.561      623.323      386.028      274.281        0.391        0.064       80.340       12.769        0.025      333.381        2.659      863.959
11/14/2013  07:27:00     -114.771        5.346      -12.161       24.591       23.115       15.014      604.707      534.281      225.426        0.736        0.068      114.895       11.250        0.010      333.475        2.812      863.959
11/14/2013  07:28:00     -147.897       14.782      -12.915       23.209       22.545       15.909      538.635      508.289      253.099        1.178        0.065      148.634        9.092        0.004      333.431        2.741      863.949
11/14/2013  07:29:00     -129.526       -3.053      -19.609       28.905       22.927       16.710      835.491      525.640      279.208        0.941        0.082      129.562        9.655        0.006      333.365        2.632      863.955
11/14/2013  07:30:00     -113.615        4.182      -11.239       45.558       38.327       30.105     2075.531     1468.952      906.311        0.875        0.223      113.692       25.025        0.048      333.328        2.570      863.944
11/14/2013  07:31:00      -78.924      -18.350      -20.503       46.790       30.598       24.004     2189.276      936.260      576.176        0.534        0.185       81.029       17.882        0.049      333.418        2.721      863.946
11/14/2013  07:32:00       -8.610       -7.153       -6.842       31.464       21.636       16.700      989.996      468.106      278.888        0.095        0.087       11.194       12.685        1.284      333.491        2.841      863.948
11/14/2013  07:33:00       16.522      -12.113        3.961       16.487       19.275       23.743      271.806      371.528      563.726        0.082        0.060       20.487       15.236        0.553      333.587        2.999      863.954
11/14/2013  07:34:00       31.245       46.498       -9.028       20.520       30.921       17.106      421.069      956.078      292.632        0.244        0.083       56.020       17.102        0.093      333.512        2.875      863.926
11/14/2013  07:35:00       14.869       59.612       -2.113       19.773       17.644       14.442      390.963      311.326      208.580        0.234        0.046       61.438       15.980        0.068      333.495        2.846      863.910
11/14/2013  07:36:00      -16.474       40.574       -8.947       10.885       13.828        6.347      118.494      191.227       40.287        0.117        0.018       43.791        3.974        0.008      333.563        2.960      863.898
11/14/2013  07:37:00      -35.981        9.935        3.238       18.104       13.668        9.219      327.766      186.818       84.998        0.100        0.030       37.328        7.838        0.044      333.690        3.173      863.909
11/14/2013  07:38:00      -20.079        4.184       -0.110       13.698        7.727       10.185      187.630       59.702      103.728        0.039        0.018       20.510       10.384        0.256      333.794        3.343      863.923
11/14/2013  07:39:00       45.045       37.312       -0.741       11.596       13.801       12.800      134.462      190.463      163.828        0.196        0.024       58.491        9.360        0.026      333.727        3.230      863.923
11/14/2013  07:40:00       74.212       36.456       -1.836       14.900       10.604       15.866      222.018      112.449      251.719        0.371        0.029       82.683        4.572        0.003      333.688        3.167      863.933
11/14/2013  07:41:00       43.692       45.669       29.971       21.052       20.022       19.959      443.196      400.895      398.380        0.307        0.062       63.204       13.460        0.045      333.777        3.315      863.959
11/14/2013  07:42:00       27.223       31.961       34.285       14.607       19.274       14.379      213.355      371.477      206.767        0.186        0.040       41.983       11.724        0.078      333.834        3.408      863.978
11/14/2013  07:43:00       40.046       67.882       55.377       26.774       22.279       18.553      716.859      496.373      344.217        0.542        0.078       78.814       13.790        0.031      333.845        3.427      863.988
11/14/2013  07:44:00       70.094       74.734       25.777       21.096       21.293       28.549      445.022      453.389      815.017        0.644        0.086      102.462       11.359        0.012      333.822        3.390      863.983
11/14/2013  07:45:00       36.987       62.215       49.678       19.840       19.373       16.064      393.641      375.332      258.056        0.437        0.051       72.379       11.755        0.026      333.898        3.515      863.997
11/14/2013  07:46:00        5.527       40.259       40.826       16.550       17.847       13.781      273.893      318.513      189.902        0.205        0.039       40.637        9.152        0.051      334.074        3.808      864.013
11/14/2013  07:47:00       93.159       49.814       29.197       26.930       22.453       24.923      725.205      504.146      621.161        0.693        0.093      105.641       16.482        0.024      333.936        3.578      864.021
11/14/2013  07:48:00       82.492       76.568       41.685       38.251       20.381       31.515     1463.156      415.391      993.177        0.864        0.144      112.550       29.805        0.070      333.963        3.623      863.986
11/14/2013  07:49:00       12.715       58.663       74.150       40.796       40.850       20.878     1664.346     1668.743      435.876        0.643        0.188       60.025       19.248        0.103      334.170        3.967      863.959
11/14/2013  07:50:00       -5.004       17.121       21.321       20.862       18.719       23.780      435.214      350.395      565.497        0.106        0.068       17.837       19.534        1.199      334.276        4.141      863.975
11/14/2013  07:51:00       34.878       42.929       -5.641       17.832       24.337       17.897      317.981      592.300      320.294        0.216        0.062       55.312       15.138        0.075      334.172        3.970      864.007
11/14/2013  07:52:00       21.191       24.463        2.624       24.934       17.712       16.358      621.691      313.722      267.583        0.113        0.060       32.366       13.521        0.175      334.302        4.185      864.042
11/14/2013  07:53:00       -1.625       23.181        3.141        9.548       21.275       15.934       91.161      452.634      253.879        0.067        0.040       23.238       13.027        0.314      334.442        4.418      864.066
11/14/2013  07:54:00       -6.101        9.355        1.621       17.185        8.533        8.409      295.331       72.809       70.707        0.028        0.022       11.169        6.065        0.295      334.273        4.137      864.093
11/14/2013  07:55:00       30.671       34.293       11.684       19.829       24.643       14.519      393.179      607.282      210.814        0.173        0.061       46.008        8.314        0.033      334.410        4.365      864.115
11/14/2013  07:56:00       13.932       41.865       50.417       21.063       27.502       14.902      443.640      756.358      222.076        0.296        0.071       44.122       12.669        0.082      334.481        4.482      864.122
11/14/2013  07:57:00       11.243       52.452       59.373       17.663       20.262       10.818      311.992      410.539      117.025        0.362        0.042       53.643       10.410        0.038      334.441        4.417      864.122
11/14/2013  07:58:00       15.793       25.187       35.439       24.908       25.010       21.500      620.427      625.476      462.267        0.192        0.085       29.728       22.451        0.570      334.526        4.558      864.127
11/14/2013  07:59:00       29.984       24.195       25.893       26.851       19.806       20.637      720.987      392.294      425.869        0.185        0.077       38.529       21.283        0.305      334.515        4.538      864.144
11/14/2013  08:00:00        1.871       27.938       39.281       20.192       23.815       14.537      407.735      567.159      211.310        0.176        0.059       28.001       11.303        0.163      334.727        4.890      864.166
11/14/2013  08:01:00        7.758       22.998       43.083       20.935       25.592       18.625      438.263      654.960      346.894        0.194        0.072       24.271       17.594        0.525      334.858        5.108      864.162
11/14/2013  08:02:00       22.977       64.174       61.265       28.012       30.073       18.161      784.663      904.366      329.810        0.521        0.101       68.163       15.978        0.055      334.694        4.835      864.136
11/14/2013  08:03:00        7.385       40.143       42.357       23.528       24.490       21.327      553.587      599.752      454.827        0.253        0.080       40.816       17.537        0.185      334.745        4.920      864.132
11/14/2013  08:04:00       18.856       31.158       33.949       20.685       21.046       20.859      427.866      442.933      435.097        0.189        0.065       36.420       19.747        0.294      334.710        4.861      864.146
11/14/2013  08:05:00       31.010       33.850       39.654       23.054       26.903       24.899      531.474      723.783      619.960        0.278        0.094       45.906       19.477        0.180      334.723        4.884      864.147
11/14/2013  08:06:00       10.352       56.129       67.193       21.955       36.789       21.965      482.039     1353.452      482.475        0.504        0.116       57.075       21.157        0.137      334.841        5.079      864.136
11/14/2013  08:07:00       43.345       25.094       40.629       31.574       26.432       22.506      996.904      698.646      506.539        0.318        0.110       50.085       20.236        0.163      334.840        5.078      864.143
11/14/2013  08:08:00       29.806       13.279       24.270       26.319       22.028       21.307      692.700      485.241      453.968        0.164        0.082       32.630       17.271        0.280      334.863        5.116      864.145
11/14/2013  08:09:00       20.286       44.708       19.195       22.116       24.647       24.792      489.123      607.491      614.623        0.224        0.086       49.095       14.788        0.091      335.038        5.407      864.133
11/14/2013  08:10:00       18.535       31.174       13.337       26.803       26.093       23.889      718.375      680.847      570.665        0.173        0.098       36.268       10.016        0.076      335.052        5.430      864.122
11/14/2013  08:11:00       59.794       51.460        7.318       28.736       21.791       21.716      825.754      474.839      471.581        0.402        0.089       78.889       14.342        0.033      334.851        5.096      864.123
11/14/2013  08:12:00       34.035       37.914       -2.185       28.767       24.144       18.823      827.540      582.910      354.313        0.218        0.088       50.950       13.345        0.069      334.862        5.115      864.146
11/14/2013  08:13:00      -12.703       31.214        4.726       11.630       24.239       16.130      135.247      587.533      260.171        0.107        0.049       33.699       17.438        0.268      334.992        5.331      864.192
11/14/2013  08:14:00        8.620       18.379        5.916       17.914       13.739       21.445      320.902      188.751      459.881        0.071        0.048       20.300       15.972        0.619      335.116        5.538      864.197
11/14/2013  08:15:00       32.772       21.799        4.795       11.896       12.914       16.741      141.521      166.761      280.274        0.108        0.029       39.360        8.437        0.046      334.907        5.190      864.163
11/14/2013  08:16:00       50.183       23.094        0.615       25.312       24.182       15.881      640.687      584.758      252.193        0.226        0.074       55.241        8.972        0.026      335.077        5.473      864.147
11/14/2013  08:17:00       33.028       48.495       -7.227       21.948       22.619       17.178      481.697      511.598      295.076        0.239        0.064       58.674       13.237        0.051      335.077        5.472      864.152
11/14/2013  08:18:00       41.266       52.946       -2.879       29.481       30.426       21.716      869.141      925.767      471.574        0.339        0.113       67.128       16.622        0.061      335.132        5.562      864.157
11/14/2013  08:19:00       47.874       20.391        9.844       31.978       17.852       26.525     1022.562      318.687      703.571        0.242        0.102       52.035       22.392        0.185      335.221        5.712      864.151
11/14/2013  08:20:00      -10.204       -5.288       23.032       19.300       16.293       17.319      372.500      265.476      299.941        0.080        0.047       11.493       14.533        1.599      335.582        6.310      864.150
11/14/2013  08:21:00      -20.018       15.007       22.119       14.992       16.111       18.763      224.769      259.571      352.053        0.098        0.042       25.019       16.172        0.418      335.457        6.104      864.145
11/14/2013  08:22:00        5.037       30.013       47.804       20.762       24.089       11.050      431.067      580.268      122.106        0.217        0.057       30.433       10.324        0.115      335.589        6.324      864.127
11/14/2013  08:23:00        3.718       29.814       39.483       19.380       17.760       18.413      375.603      315.429      339.031        0.175        0.052       30.045       12.199        0.165      335.545        6.251      864.103
11/14/2013  08:24:00      -37.050       -0.070       -6.555       19.129       11.967        9.034      365.916      143.214       81.611        0.100        0.030       37.050        5.381        0.021      335.268        5.788      864.123
11/14/2013  08:25:00      -22.904      -10.132        4.830       28.440       14.610       17.233      808.826      213.450      296.985        0.098        0.066       25.045       17.998        0.516      335.340        5.908      864.138
11/14/2013  08:26:00       11.771       14.130       15.369       13.887       15.728       12.130      192.848      247.376      147.133        0.058        0.029       18.391        7.704        0.175      335.676        6.470      864.119
11/14/2013  08:27:00       74.297       56.366       19.745       37.064       23.645       27.759     1373.730      559.088      770.556        0.589        0.135       93.259       15.827        0.029      335.440        6.074      864.102
11/14/2013  08:28:00       32.222       57.871       64.237       43.759       34.143       28.968     1914.875     1165.728      839.150        0.622        0.196       66.236       22.803        0.119      335.624        6.381      864.119
11/14/2013  08:29:00       56.758       36.411       18.940       31.410       19.293       30.520      986.562      372.206      931.491        0.360        0.115       67.434       23.239        0.119      335.345        5.917      864.148
11/14/2013  08:30:00       -6.151       13.019       35.284       24.075       51.465       50.600      579.599     2648.683     2560.380        0.362        0.289       14.399       41.732        8.400      335.675        6.466      864.137
11/14/2013  08:31:00       61.695       74.511       41.422       39.722       26.032       31.891     1577.845      677.657     1017.047        0.717        0.164       96.737       21.617        0.050      335.412        6.027      864.132
11/14/2013  08:32:00       16.561       80.768       79.881       42.307       34.840       31.975     1789.863     1213.847     1022.394        0.860        0.201       82.449       30.603        0.138      335.533        6.231      864.136
11/14/2013  08:33:00       51.280       89.161       72.051       44.352       28.987       29.683     1967.084      840.254      881.094        0.973        0.184      102.856       26.173        0.065      335.407        6.020      864.140
11/14/2013  08:34:00       44.975       74.711       58.950       36.832       31.230       30.643     1356.615      975.333      938.997        0.717        0.164       87.204       28.116        0.104      335.393        5.995      864.154
11/14/2013  08:35:00       67.074       53.812       14.829       12.366       10.168       18.731      152.906      103.392      350.838        0.411        0.030       85.992        4.780        0.003      335.266        5.783      864.151
11/14/2013  08:36:00       68.020       57.430       22.035       25.506       20.878       20.159      650.576      435.897      406.401        0.495        0.075       89.022       14.458        0.026      335.357        5.934      864.148
11/14/2013  08:37:00       22.410       57.830       39.490       32.431       40.346       38.668     1051.748     1627.819     1495.221        0.479        0.209       62.020       12.935        0.043      335.833        6.730      864.141
11/14/2013  08:38:00       83.012       77.564       40.836       37.738       29.721       37.752     1424.140      883.359     1425.222        0.915        0.187      113.610       24.160        0.045      335.566        6.285      864.129
11/14/2013  08:39:00       87.398       81.518       56.393       29.967       30.011       25.851      898.015      900.661      668.287        0.996        0.123      119.514       17.748        0.022      335.566        6.285      864.134
11/14/2013  08:40:00       51.893       46.134       33.063       37.117       22.229       29.195     1377.696      494.146      852.323        0.432        0.136       69.435       21.698        0.098      335.724        6.549      864.146
11/14/2013  08:41:00       45.374       62.548       38.054       40.920       35.776       38.179     1674.436     1279.927     1457.609        0.591        0.221       77.273       30.631        0.157      335.960        6.943      864.153
11/14/2013  08:42:00       72.497       71.440       21.528       36.876       27.210       39.350     1359.834      740.374     1548.413        0.723        0.182      101.781       24.912        0.060      335.857        6.770      864.159
11/14/2013  08:43:00       35.849      105.447      103.937       51.790       53.140       41.618     2682.176     2823.885     1732.067        1.522        0.362      111.374       43.588        0.153      335.811        6.692      864.160
11/14/2013  08:44:00       61.437       84.176       69.028       51.086       48.429       47.994     2609.810     2345.373     2303.420        1.144        0.363      104.212       39.697        0.145      335.809        6.689      864.160
11/14/2013  08:45:00       -2.467       47.990       65.380       31.500       34.286       27.723      992.236     1175.514      768.538        0.476        0.147       48.053       24.270        0.255      336.146        7.252      864.165
11/14/2013  08:46:00       58.320       59.608       64.330       67.423       46.834       47.063     4545.919     2193.394     2214.903        1.002        0.448       83.393       30.626        0.135      336.034        7.064      864.164
11/14/2013  08:47:00      138.275       79.854       22.643       57.286       51.624       49.287     3281.695     2665.021     2429.186        1.719        0.419      159.676       34.962        0.048      335.617        6.369      864.152
11/14/2013  08:48:00       86.938       72.772       29.841       53.204       42.006       41.960     2830.657     1764.520     1760.674        1.005        0.318      113.375       21.353        0.035      335.841        6.744      864.139
11/14/2013  08:49:00       80.414       64.913       13.599       56.591       33.491       35.825     3202.515     1121.633     1283.441        0.824        0.280      103.345       19.389        0.035      335.912        6.861      864.134
11/14/2013  08:50:00       62.309       40.147       -5.299       32.315       34.113       28.964     1044.251     1163.721      838.919        0.428        0.152       74.123       14.637        0.039      335.946        6.919      864.152
11/14/2013  08:51:00       84.523       58.985        5.300       43.862       39.032       30.574     1923.915     1523.471      934.742        0.752        0.219      103.070       20.603        0.040      335.884        6.815      864.147
11/14/2013  08:52:00       33.145       39.052       57.796       52.682       61.504       43.767     2775.378     3782.775     1915.520        0.722        0.424       51.221       34.772        0.461      336.236        7.401      864.117
11/14/2013  08:53:00       78.630      102.869       88.837       43.549       33.929       31.713     1896.526     1151.204     1005.683        1.435        0.203      129.479       24.855        0.037      335.738        6.573      864.082
11/14/2013  08:54:00       47.034       99.732       98.013       48.782       40.673       34.567     2379.708     1654.310     1194.894        1.350        0.261      110.266       29.642        0.072      335.870        6.792      864.057
11/14/2013  08:55:00      113.852      112.948       61.066       47.456       45.713       47.891     2252.026     2089.635     2293.530        1.804        0.332      160.373       33.732        0.044      335.746        6.585      864.028
11/14/2013  08:56:00       18.034       52.092       77.009       60.422       51.084       45.992     3650.786     2609.568     2115.256        0.867        0.419       55.125       42.271        0.588      336.149        7.257      864.003
11/14/2013  08:57:00       30.262       82.682       82.372       38.856       44.565       33.943     1509.803     1986.071     1152.142        0.959        0.232       88.046       22.365        0.065      336.157        7.269      863.994
11/14/2013  08:58:00       67.580      122.871      119.234       64.401       54.759       41.290     4147.454     2998.588     1704.871        2.136        0.443      140.230       38.339        0.075      335.848        6.753      863.983
11/14/2013  08:59:00      103.603       99.125       86.290       61.212       48.681       44.963     3746.849     2369.799     2021.664        1.807        0.407      143.385       41.274        0.083      335.765        6.615      863.979
11/14/2013  09:00:00      101.251       75.248       71.802       50.861       38.665       31.618     2586.793     1495.004      999.718        1.307        0.254      126.150       28.632        0.052      336.000        7.009      863.988
11/14/2013  09:01:00       57.449      102.731       86.131       47.961       39.644       36.138     2300.286     1571.655     1305.936        1.322        0.259      117.703       31.804        0.073      335.897        6.836      863.975
11/14/2013  09:02:00       71.048      106.923       93.943       50.077       39.326       45.249     2507.722     1546.532     2047.508        1.570        0.305      128.376       39.949        0.097      336.045        7.083      863.941
11/14/2013  09:03:00       49.857       84.451       72.575       34.197       30.042       28.374     1169.409      902.500      805.084        0.888        0.144       98.070       14.026        0.020      336.125        7.215      863.908
11/14/2013  09:04:00       62.187       83.137       64.515       36.828       32.196       35.954     1356.331     1036.607     1292.686        0.931        0.184      103.821       19.944        0.037      336.051        7.093      863.877
11/14/2013  09:05:00       25.705        9.775       54.729       40.638       81.982       48.187     1651.415     6720.979     2322.028        0.722        0.535       27.501       61.650        5.026      336.372        7.630      863.863
11/14/2013  09:06:00       16.945      -27.238       33.192       29.501       47.963       35.941      870.309     2300.493     1291.725        0.330        0.223       32.078       27.945        0.759      336.678        8.139      863.841
11/14/2013  09:07:00       48.199       45.435       63.461       56.783       57.523       30.611     3224.350     3308.945      937.038        0.794        0.374       66.238       21.357        0.104      336.538        7.907      863.829
11/14/2013  09:08:00       96.548      106.277       81.674       50.116       39.897       29.927     2511.606     1591.774      895.632        1.614        0.250      143.584       29.149        0.041      336.173        7.296      863.836
11/14/2013  09:09:00       25.786       56.947       72.345       30.511       36.184       27.524      930.896     1309.249      757.571        0.607        0.150       62.513       19.355        0.096      336.403        7.683      863.845
11/14/2013  09:10:00        1.437       53.854       80.530       36.595       59.457       39.101     1339.226     3535.158     1528.885        0.789        0.320       53.874       39.361        0.534      336.736        8.238      863.837
11/14/2013  09:11:00       37.946       44.106       41.548       64.159       47.679       30.748     4116.422     2273.313      945.451        0.622        0.367       58.183       31.600        0.295      336.443        7.750      863.833
11/14/2013  09:12:00      -21.184       15.439       50.425       35.893       36.952       28.441     1288.285     1365.443      808.877        0.335        0.173       26.213       25.079        0.915      336.795        8.337      863.823
11/14/2013  09:13:00       32.536       26.604       69.215       50.516       38.097       21.082     2551.835     1451.373      444.459        0.550        0.222       42.029       20.370        0.235      336.860        8.445      863.802
11/14/2013  09:14:00       51.738       64.107       82.470       62.401       53.693       44.129     3893.909     2882.983     1947.392        1.115        0.436       82.380       35.041        0.181      336.739        8.243      863.786
11/14/2013  09:15:00       60.867       76.866       81.137       58.104       48.339       40.838     3376.086     2336.658     1667.779        1.179        0.369       98.047       34.487        0.124      336.603        8.015      863.769
11/14/2013  09:16:00       15.558       61.140       93.264       39.041       43.139       27.095     1524.195     1861.005      734.133        0.840        0.206       63.088       26.360        0.175      336.699        8.177      863.789
11/14/2013  09:17:00       12.775       43.339       54.251       30.406       47.698       38.639      924.513     2275.098     1492.959        0.484        0.235       45.183       33.452        0.548      336.679        8.143      863.774
11/14/2013  09:18:00       30.508      -15.499       31.462       38.095       54.387       41.561     1451.224     2957.994     1727.331        0.415        0.307       34.219       36.560        1.141      336.918        8.543      863.765
11/14/2013  09:19:00       76.294      -94.725      -11.216       39.460       66.314       34.787     1557.098     4397.501     1210.167        1.104        0.358      121.629       37.154        0.093      336.629        8.059      863.754
11/14/2013  09:20:00       85.029      -68.534      -12.738       34.449       43.405       24.823     1186.710     1883.979      616.165        0.789        0.184      109.210       15.632        0.020      336.680        8.144      863.735
11/14/2013  09:21:00       18.608       11.386       32.252       33.323       27.908       19.188     1110.450      778.874      368.162        0.189        0.113       21.815        9.735        0.199      336.925        8.554      863.737
11/14/2013  09:22:00       12.160       53.897       73.028       26.010       56.242       35.527      676.501     3163.187     1262.181        0.674        0.255       55.252       39.342        0.507      336.968        8.624      863.755
11/14/2013  09:23:00       54.815       76.702       72.891       32.726       41.838       34.802     1070.983     1750.426     1211.155        0.912        0.202       94.276       32.707        0.120      336.712        8.197      863.743
11/14/2013  09:24:00       82.355       96.949       74.053       47.394       31.923       36.374     2246.228     1019.078     1323.077        1.313        0.229      127.207       26.216        0.042      336.623        8.050      863.740
11/14/2013  09:25:00       93.933       75.115       31.979       36.838       32.648       38.365     1357.004     1065.876     1471.902        0.969        0.195      120.273       30.423        0.064      336.619        8.044      863.758
11/14/2013  09:26:00       66.446       54.656       -1.531       40.238       46.112       21.364     1619.110     2126.331      456.411        0.580        0.210       86.037       14.420        0.028      336.910        8.528      863.768
11/14/2013  09:27:00       31.788        7.765       10.353       22.669       51.634       25.108      513.904     2666.034      630.407        0.249        0.191       32.723       10.626        0.105      336.887        8.490      863.777
11/14/2013  09:28:00       54.555        1.277        8.001       37.697       46.511       23.735     1421.063     2163.240      563.371        0.359        0.207       54.570       29.439        0.291      337.035        8.737      863.767
11/14/2013  09:29:00       35.697       68.139       55.946       51.944       32.660       39.990     2698.230     1066.667     1599.197        0.720        0.268       76.924       32.519        0.179      337.135        8.904      863.773
11/14/2013  09:30:00       75.051       38.643       13.812       48.404       46.754       36.467     2342.966     2185.968     1329.871        0.659        0.293       84.415       24.493        0.084      336.851        8.431      863.781
11/14/2013  09:31:00       50.081       44.056       31.782       49.427       33.397       37.010     2442.999     1115.375     1369.751        0.519        0.246       66.701       34.110        0.262      337.229        9.062      863.777
11/14/2013  09:32:00       15.567       16.561       30.741       42.297       49.587       31.949     1789.073     2458.833     1020.712        0.336        0.263       22.729       20.116        0.783      337.393        9.339      863.767
11/14/2013  09:33:00       25.574       33.272       61.278       43.177       57.342       24.876     1864.240     3288.152      618.801        0.564        0.289       41.965       24.663        0.345      337.261        9.115      863.748
11/14/2013  09:34:00       -1.684       22.085       49.477       30.275       25.403       32.281      916.587      645.329     1042.061        0.277        0.130       22.149       17.904        0.653      337.603        9.688      863.736
11/14/2013  09:35:00       33.126       47.019       56.372       50.588       53.180       45.819     2559.176     2828.081     2099.401        0.698        0.374       57.516       35.857        0.389      337.480        9.483      863.711
11/14/2013  09:36:00      135.638      108.335       49.235       57.374       39.049       36.439     3291.825     1524.808     1327.803        1.935        0.307      173.592       30.408        0.031      336.833        8.399      863.652
11/14/2013  09:37:00       49.360       96.702       96.591       59.437       49.178       33.302     3532.750     2418.506     1109.036        1.409        0.353      108.571       33.967        0.098      337.053        8.766      863.617
11/14/2013  09:38:00       69.145       50.969       27.482       27.134       17.027       21.513      736.262      289.911      462.793        0.481        0.074       85.900       14.559        0.029      336.774        8.303      863.611
11/14/2013  09:39:00       66.186       77.032       66.447       41.526       52.508       42.650     1724.419     2757.057     1818.993        1.051        0.315      101.560       34.588        0.116      337.198        9.010      863.601
11/14/2013  09:40:00       73.512       82.580       38.897       59.899       49.901       37.699     3587.903     2490.088     1421.230        1.062        0.375      110.560       28.157        0.065      337.023        8.718      863.563
11/14/2013  09:41:00       42.904      -20.404       35.456       47.805       62.817       41.813     2285.298     3946.026     1748.349        0.575        0.399       47.509       32.194        0.459      337.513        9.538      863.562
11/14/2013  09:42:00       55.241       -7.767       44.654       55.389       46.580       29.971     3067.925     2169.690      898.277        0.562        0.307       55.785       32.450        0.338      337.322        9.217      863.577
11/14/2013  09:43:00       88.875       87.451       68.532       51.188       42.315       48.608     2620.180     1790.561     2362.709        1.351        0.339      124.685       42.618        0.117      337.031        8.730      863.549
11/14/2013  09:44:00       53.805        5.091       42.131       35.645       71.968       53.559     1270.555     5179.433     2868.567        0.701        0.466       54.045       59.178        1.199      337.128        8.892      863.508
11/14/2013  09:45:00       69.399       38.059       34.637       56.550       48.019       48.312     3197.958     2305.841     2334.082        0.765        0.392       79.150       26.813        0.115      337.155        8.938      863.498
11/14/2013  09:46:00       96.294       78.590       44.930       40.916       27.733       41.855     1674.085      769.116     1751.803        1.083        0.210      124.294       27.593        0.049      337.250        9.098      863.475
11/14/2013  09:47:00       42.650       92.879      108.072       54.597       60.410       34.897     2980.845     3649.376     1217.822        1.499        0.392      102.204       32.950        0.104      337.514        9.539      863.431
11/14/2013  09:48:00       14.746        2.956       36.758       30.852       65.726       35.665      951.818     4319.864     1271.967        0.406        0.327       15.040       41.209        7.508      337.589        9.665      863.406
11/14/2013  09:49:00       46.609      -56.267       10.793       48.271       69.556       51.877     2330.121     4837.991     2691.223        0.766        0.493       73.065       62.356        0.728      337.435        9.407      863.378
11/14/2013  09:50:00       16.203      -15.534       26.746       27.040       38.012       27.223      731.152     1444.920      741.092        0.207        0.146       22.447       19.452        0.751      337.756        9.945      863.345
11/14/2013  09:51:00       59.645      -53.576       13.347       59.914       56.204       47.195     3589.739     3158.836     2227.373        0.779        0.449       80.174       45.673        0.325      337.726        9.895      863.307
11/14/2013  09:52:00       58.418      -64.548      -12.026       69.348       67.967       47.851     4809.200     4619.546     2289.716        0.972        0.586       87.059       52.020        0.357      337.536        9.575      863.304
11/14/2013  09:53:00       23.683      -83.006       16.031       36.833       69.138       44.175     1356.703     4780.092     1951.395        0.790        0.404       86.318       48.058        0.310      337.738        9.915      863.360
11/14/2013  09:54:00        6.099      -86.874       -5.861       30.751       51.839       30.073      945.632     2687.275      904.405        0.608        0.227       87.087       25.662        0.087      337.783        9.990      863.387
11/14/2013  09:55:00      -50.367      -41.146       -3.167       48.387       28.078       23.389     2341.290      788.390      547.045        0.396        0.184       65.037       15.657        0.058      337.433        9.404      863.388
11/14/2013  09:56:00      -12.504       -9.892       10.877       35.237       20.719       25.208     1241.678      429.293      635.450        0.134        0.115       15.944       20.264        1.615      337.730        9.903      863.408
11/14/2013  09:57:00      -49.409      -43.209      -11.516       25.183       18.578       15.834      634.174      345.128      250.724        0.284        0.062       65.637       11.771        0.032      337.250        9.096      863.429
11/14/2013  09:58:00        9.263       23.458       52.980       33.249       45.942       37.758     1105.478     2110.664     1425.638        0.404        0.232       25.221       35.683        2.002      337.722        9.889      863.400
11/14/2013  09:59:00       14.471      -13.136       31.608       42.950       56.638       45.667     1844.718     3207.893     2085.462        0.426        0.357       19.544       48.168        6.074      337.573        9.638      863.368
11/14/2013  10:00:00      -49.744      -39.848      -11.517       21.632       23.210       18.891      467.952      538.682      356.884        0.278        0.068       63.736        8.351        0.017      337.286        9.157      863.410
11/14/2013  10:01:00      -24.593      -21.231      -15.415       32.190       19.072       11.829     1036.198      363.752      139.916        0.142        0.077       32.490        6.908        0.045      337.390        9.332      863.420
11/14/2013  10:02:00       -1.071       18.387        5.318       25.870       26.723       25.957      669.238      714.144      673.752        0.121        0.103       18.418       16.749        0.827      337.859       10.119      863.359
11/14/2013  10:03:00       18.097      -42.653       22.723       24.023       42.396       30.148      577.087     1797.393      908.877        0.297        0.164       46.334       31.120        0.451      338.005       10.362      863.337
11/14/2013  10:04:00       -5.666        8.903       40.444       18.755       46.965       42.994      351.744     2205.736     1848.523        0.308        0.220       10.553       42.972       16.581      338.227       10.736      863.318
11/14/2013  10:05:00       61.654       73.777       84.396       70.831       56.463       56.174     5016.960     3188.073     3155.503        1.386        0.568       96.147       52.594        0.299      337.874       10.144      863.250
11/14/2013  10:06:00      106.624       79.974       53.262       54.670       52.430       45.815     2988.863     2748.854     2099.006        1.422        0.392      133.283       33.495        0.063      337.570        9.633      863.221
11/14/2013  10:07:00      103.167      102.042       62.834       34.052       39.489       40.335     1159.571     1559.344     1626.929        1.467        0.217      145.107       24.286        0.028      337.583        9.656      863.176
11/14/2013  10:08:00       97.392       66.120       16.170       42.329       41.731       41.823     1791.764     1741.511     1749.136        0.970        0.264      117.716       26.598        0.051      337.498        9.512      863.126
11/14/2013  10:09:00      149.119       85.929        4.860       53.359       47.098       36.674     2847.177     2218.185     1344.988        1.803        0.321      172.105       21.022        0.015      337.674        9.805      863.088
11/14/2013  10:10:00      105.239       33.726       39.263       57.565       52.115       45.193     3313.672     2716.022     2042.437        1.091        0.404      110.512       37.415        0.115      337.740        9.918      863.066
11/14/2013  10:11:00       95.093       83.938       71.201       63.755       62.593       50.292     4064.707     3917.935     2529.334        1.583        0.526      126.839       35.754        0.079      337.755        9.942      863.028
11/14/2013  10:12:00       54.640       65.704       80.011       54.067       52.590       38.869     2923.187     2765.663     1510.772        1.045        0.360       85.455       33.930        0.158      337.715        9.877      862.976
11/14/2013  10:13:00        4.326       62.428       76.859       53.187       53.277       35.945     2828.887     2838.455     1292.071        0.839        0.348       62.578       20.856        0.111      338.210       10.707      862.955
11/14/2013  10:14:00       35.277       71.058      103.651       45.260       49.170       26.430     2048.451     2417.674      698.520        1.110        0.258       79.333       27.026        0.116      337.742        9.922      862.956
11/14/2013  10:15:00       56.123       74.294       82.143       69.313       54.501       32.169     4804.278     2970.409     1034.819        1.211        0.440       93.110       26.843        0.083      337.653        9.771      862.936
11/14/2013  10:16:00      147.318       99.804       41.608       63.417       34.113       42.596     4021.654     1163.703     1814.456        2.020        0.350      177.943       29.157        0.027      337.603        9.687      862.905
11/14/2013  10:17:00       31.255       25.962       70.339       57.315       75.772       36.780     3284.965     5741.363     1352.750        0.849        0.519       40.632       35.759        0.775      338.107       10.534      862.874
11/14/2013  10:18:00      137.440       19.538       35.943       69.023       94.057       50.001     4764.215     8846.658     2500.083        1.833        0.806      138.822       48.346        0.121      337.701        9.852      862.874
11/14/2013  10:19:00       55.951       77.715       94.567       56.118       53.328       35.922     3149.231     2843.906     1290.368        1.270        0.364       95.760       29.660        0.096      337.718        9.881      862.847
11/14/2013  10:20:00       38.676       34.947       29.080       31.145       40.745       36.406      969.981     1660.154     1325.392        0.376        0.198       52.126       22.944        0.194      337.698        9.849      862.821
11/14/2013  10:21:00       75.707       76.801       74.483       68.414       57.068       50.731     4680.431     3256.813     2573.673        1.384        0.526      107.842       45.540        0.178      337.727        9.895      862.751
11/14/2013  10:22:00      115.638       85.856       67.697       54.923       45.352       43.386     3016.510     2056.762     1882.368        1.614        0.348      144.025       29.188        0.041      337.700        9.850      862.708
11/14/2013  10:23:00       82.404       81.810       55.820       62.214       53.891       47.341     3870.529     2904.234     2241.133        1.281        0.451      116.118       37.037        0.102      337.899       10.184      862.673
11/14/2013  10:24:00       26.535       42.176       47.757       41.909       47.581       39.629     1756.352     2263.936     1570.465        0.518        0.280       49.829       34.690        0.485      338.252       10.778      862.662
11/14/2013  10:25:00       19.602      -55.180       19.007       33.920       71.353       44.158     1150.597     5091.322     1949.959        0.599        0.410       58.559       50.995        0.758      338.252       10.777      862.666
11/14/2013  10:26:00       22.405       24.717       23.320       33.940       41.898       27.750     1151.893     1755.482      770.054        0.267        0.184       33.360        8.332        0.062      338.304       10.865      862.654
11/14/2013  10:27:00        7.817       47.955       88.855       33.160       48.837       35.878     1099.616     2385.053     1287.205        0.751        0.239       48.588       29.746        0.375      338.473       11.147      862.658
11/14/2013  10:28:00       87.034      -72.641       32.903       83.259       77.544       43.130     6932.034     6013.062     1860.222        1.437        0.740      113.365       49.746        0.193      337.982       10.323      862.645
11/14/2013  10:29:00      114.558       32.881       67.642       85.577      121.140       87.261     7323.426    14675.001     7614.568        2.419        1.481      119.183       93.449        0.615      337.887       10.162      862.654
11/14/2013  10:30:00       89.255       80.114       94.548       78.099       76.162       56.056     6099.408     5800.681     3142.249        1.918        0.752      119.937       52.623        0.193      337.877       10.147      862.666
11/14/2013  10:31:00      115.996       69.242       64.628       59.158       47.508       54.681     3499.659     2256.991     2990.018        1.558        0.437      135.091       31.845        0.056      337.774        9.975      862.679
11/14/2013  10:32:00      112.980       75.977       34.077       52.892       46.577       40.727     2797.595     2169.388     1658.661        1.316        0.331      136.150       16.868        0.015      337.627        9.728      862.670
11/14/2013  10:33:00       62.189      111.169      110.382       82.618       69.566       68.171     6825.675     4839.465     4647.322        2.236        0.816      127.381       64.387        0.255      337.886       10.162      862.634
11/14/2013  10:34:00      147.264       94.940       57.197       57.840       53.054       59.162     3345.472     2814.755     3500.200        2.181        0.483      175.215       42.282        0.058      337.816       10.044      862.619
11/14/2013  10:35:00        1.112       70.768       84.822       41.194       56.462       41.165     1696.975     3187.926     1694.590        0.939        0.329       70.777       36.371        0.264      338.324       10.897      862.602
11/14/2013  10:36:00        6.448       76.290      105.884       33.071       50.148       30.371     1093.701     2514.840      922.394        1.080        0.227       76.562       29.729        0.151      338.203       10.694      862.561
11/14/2013  10:37:00       84.565      105.947       90.326       54.360       34.263       43.164     2954.960     1173.926     1863.121        1.626        0.300      135.558       31.499        0.054      337.756        9.946      862.517
11/14/2013  10:38:00      106.054       71.950       23.969       47.866       40.342       32.906     2291.110     1627.517     1082.809        1.100        0.250      128.157       17.478        0.019      337.835       10.078      862.490
11/14/2013  10:39:00       17.308      -20.999       24.815       40.365       46.407       27.406     1629.358     2153.636      751.061        0.294        0.227       27.212       24.895        0.837      338.348       10.939      862.460
11/14/2013  10:40:00       25.594       -6.644       23.066       47.288       54.063       48.711     2236.191     2922.812     2372.761        0.438        0.377       26.442       40.239        2.316      338.327       10.903      862.422
11/14/2013  10:41:00       10.821      -25.918       29.370       35.053       46.356       44.100     1228.703     2148.843     1944.810        0.349        0.266       28.087       34.910        1.545      338.329       10.906      862.397
11/14/2013  10:42:00       13.957        7.409       40.671       30.912       28.394       23.992      955.529      806.235      575.629        0.212        0.117       15.802       20.177        1.630      338.481       11.161      862.408
11/14/2013  10:43:00       14.293       45.909       53.773       35.654       37.726       35.608     1271.195     1423.283     1267.934        0.458        0.198       48.082       24.885        0.268      338.422       11.061      862.398
11/14/2013  10:44:00       59.054       62.478       46.560       46.740       40.238       32.115     2184.607     1619.128     1031.360        0.720        0.242       85.970       19.445        0.051      338.229       10.739      862.369
11/14/2013  10:45:00       83.973       58.828       19.514       76.460       46.205       37.308     5846.201     2134.856     1391.869        1.013        0.469      102.529       35.108        0.117      337.953       10.275      862.338
11/14/2013  10:46:00      157.918       85.399       12.166       47.402       41.628       35.644     2246.945     1732.870     1270.473        1.881        0.263      179.530        6.011        0.001      337.642        9.752      862.325
11/14/2013  10:47:00       54.538       98.893       -3.919       42.442       62.776       45.296     1801.282     3940.888     2051.740        1.028        0.390      112.935       42.230        0.140      337.997       10.349      862.289
11/14/2013  10:48:00       91.266       77.449       -0.507       48.086       40.321       33.119     2312.260     1625.787     1096.836        0.968        0.252      119.699       17.633        0.022      337.928       10.235      862.264
11/14/2013  10:49:00       77.165       65.762        1.470       53.383       46.318       34.195     2849.723     2145.343     1169.292        0.822        0.308      101.386       16.052        0.025      338.113       10.544      862.236
11/14/2013  10:50:00       91.393       57.463       10.251       47.242       37.770       26.548     2231.773     1426.541      704.811        0.806        0.218      107.957       12.874        0.014      338.038       10.418      862.213
11/14/2013  10:51:00      109.615       56.829        5.177       35.119       40.792       35.061     1233.327     1663.996     1229.278        0.970        0.206      123.470        9.322        0.006      338.023       10.393      862.190
11/14/2013  10:52:00       39.463       45.203        8.527       37.815       41.817       27.422     1429.964     1748.701      751.975        0.380        0.197       60.005       25.975        0.187      338.310       10.875      862.148
11/14/2013  10:53:00       23.336       80.426       -2.605       24.849       48.127       23.445      617.493     2316.242      549.664        0.525        0.174       83.743       24.716        0.087      338.187       10.669      862.117
11/14/2013  10:54:00       25.205       43.948        4.498       33.021       35.411       33.320     1090.414     1253.913     1110.255        0.302        0.173       50.663       25.853        0.260      338.443       11.098      862.096
11/14/2013  10:55:00       12.355       44.814       -8.544       36.305       31.072       22.430     1318.065      965.498      503.100        0.251        0.139       46.486        9.922        0.046      338.336       10.918      862.043
11/14/2013  10:56:00        4.725      -12.908       48.102       40.072       89.916       40.656     1605.743     8084.828     1652.937        0.692        0.567       13.745       49.981       13.222      338.678       11.493      861.962
11/14/2013  10:57:00       28.693        2.754       64.695       47.119       82.948       50.083     2220.221     6880.398     2508.331        0.831        0.580       28.825       47.672        2.735      338.775       11.655      861.905
11/14/2013  10:58:00       91.118     -154.221       -0.946       50.178       52.668       43.028     2517.792     2773.877     1851.446        1.961        0.357      179.127       27.345        0.023      338.272       10.810      861.883
11/14/2013  10:59:00       70.700       68.336       80.981       58.697       81.379       46.343     3445.343     6622.480     2147.652        1.422        0.611       98.328       43.772        0.198      338.451       11.112      861.891
11/14/2013  11:00:00       72.806       60.534       35.786       45.504       44.022       44.031     2070.587     1937.909     1938.752        0.810        0.297       94.684       35.933        0.144      338.132       10.576      861.879
11/14/2013  11:01:00       58.851       42.655       18.413       37.268       46.425       37.926     1388.935     2155.308     1438.362        0.530        0.249       72.683       32.626        0.201      338.350       10.942      861.868
11/14/2013  11:02:00       47.555       60.174       72.125       46.000       56.970       63.645     2116.012     3245.614     4050.669        1.025        0.471       76.697       48.922        0.407      338.614       11.385      861.828
11/14/2013  11:03:00       65.840       43.661       70.179       54.350       68.526       49.768     2953.959     4695.851     2476.889        1.064        0.506       79.001       47.448        0.361      338.661       11.464      861.809
11/14/2013  11:04:00       52.981       19.123       23.683       40.681       47.203       28.658     1654.959     2228.116      821.273        0.422        0.235       56.326       22.698        0.162      338.461       11.127      861.826
11/14/2013  11:05:00       24.548      -26.305       -9.892       29.508       29.752       32.688      870.719      885.167     1068.520        0.211        0.141       35.979       25.315        0.495      338.435       11.085      861.809
11/14/2013  11:06:00       62.287       45.265       28.424       29.929       33.148       23.290      895.731     1098.812      542.408        0.464        0.127       76.997       18.558        0.058      338.404       11.032      861.788
11/14/2013  11:07:00       51.408       45.726       14.868       34.518       25.249       26.975     1191.493      637.527      727.640        0.376        0.128       68.801       13.998        0.041      338.476       11.153      861.742
11/14/2013  11:08:00      130.178       86.600        4.020       38.205       41.390       31.804     1459.613     1713.132     1011.511        1.432        0.209      156.352       20.253        0.017      338.300       10.858      861.706
11/14/2013  11:09:00       49.732       54.306       47.038       53.129       53.325       36.811     2822.671     2843.573     1355.072        0.733        0.351       73.637       26.731        0.132      338.830       11.748      861.683
11/14/2013  11:10:00       -6.771       -3.159        1.762       40.137       18.939       21.032     1610.947      358.695      442.336        0.123        0.121        7.472       13.901        3.461      338.797       11.692      861.669
11/14/2013  11:11:00        6.230       24.624       16.439       13.923       22.324       18.827      193.850      498.346      354.452        0.098        0.052       25.400       17.383        0.468      339.231       12.423      861.680
11/14/2013  11:12:00        1.120       41.676       -0.343       24.699       27.044       20.585      610.061      731.375      423.732        0.175        0.088       41.691       18.150        0.190      338.893       11.856      861.670
11/14/2013  11:13:00      -59.801       42.206      -10.736       20.327       31.182       20.681      413.186      972.310      427.685        0.364        0.091       73.195       11.565        0.025      338.670       11.479      861.652
11/14/2013  11:14:00      -22.260       10.044       12.938       17.663       15.506       23.783      311.996      240.424      565.627        0.094        0.056       24.421       10.853        0.197      339.191       12.356      861.643
11/14/2013  11:15:00       18.375       47.633       -9.784       39.123       18.646       26.574     1530.600      347.669      706.190        0.264        0.129       51.054       16.509        0.105      338.907       11.879      861.614
11/14/2013  11:16:00       -5.613       26.149        3.073       32.316       28.384       19.330     1044.336      805.652      373.635        0.147        0.111       26.745       13.220        0.244      339.048       12.115      861.612
11/14/2013  11:17:00        0.412       25.431        4.764       38.566       13.699       29.818     1487.356      187.668      889.098        0.162        0.128       25.434       26.972        1.125      338.939       11.931      861.589
11/14/2013  11:18:00       56.709       79.193       20.649       29.127       35.549       40.215      848.368     1263.706     1617.246        0.682        0.186       97.404       29.145        0.090      338.923       11.904      861.548
11/14/2013  11:19:00       19.457       68.239      104.411       57.002       63.007       56.662     3249.226     3969.895     3210.580        1.318        0.521       70.959       61.199        0.744      338.997       12.029      861.497
11/14/2013  11:20:00       80.062       69.255       42.084       40.816       31.891       35.815     1665.958     1017.067     1282.736        0.847        0.198      105.859       28.057        0.070      338.995       12.026      861.468
11/14/2013  11:21:00       23.437       30.550       27.477       18.643       25.993       19.406      347.569      675.645      376.587        0.182        0.070       38.505        4.728        0.015      339.131       12.256      861.466
11/14/2013  11:22:00       10.130       22.003       30.272       25.926       30.505       22.638      672.156      930.564      512.492        0.181        0.106       24.223       16.755        0.478      339.584       13.018      861.459
11/14/2013  11:23:00       95.701       65.328       32.350       52.530       47.206       33.732     2759.360     2228.438     1137.874        1.030        0.306      115.873       23.785        0.042      339.141       12.270      861.439
11/14/2013  11:24:00       24.428       73.206       -6.389       35.939       21.479       20.910     1291.578      461.343      437.218        0.409        0.110       77.174       12.667        0.027      339.035       12.093      861.418
11/14/2013  11:25:00       40.265       74.566       -5.378       41.601       38.580       31.327     1730.627     1488.381      981.387        0.570        0.210       84.743       26.695        0.099      339.235       12.430      861.368
11/14/2013  11:26:00       25.220       32.334       -0.960       25.286       29.130       29.841      639.387      848.535      890.480        0.203        0.119       41.006       25.850        0.397      339.310       12.557      861.318
11/14/2013  11:27:00       95.820       61.321       20.466       62.905       48.922       37.915     3956.989     2393.389     1437.548        1.057        0.389      113.762       16.531        0.021      339.371       12.658      861.252
11/14/2013  11:28:00      110.747       81.939       29.075       55.176       43.405       38.520     3044.425     1884.022     1483.819        1.312        0.321      137.763       30.714        0.050      339.305       12.546      861.202
11/14/2013  11:29:00       58.183       62.539       38.659       38.369       33.863       37.298     1472.180     1146.724     1391.111        0.640        0.201       85.419       22.581        0.070      339.330       12.590      861.199
11/14/2013  11:30:00       31.302       22.129        1.954       30.307       21.830       27.010      918.528      476.558      729.553        0.180        0.106       38.334        8.742        0.052      339.167       12.314      861.159
11/14/2013  11:31:00      -11.033       96.093       -8.671       21.026       53.253       16.766      442.107     2835.833      281.107        0.649        0.178       96.724       13.221        0.019      339.131       12.254      861.115
11/14/2013  11:32:00       27.322       87.749       -1.702       40.598       45.569       27.274     1648.190     2076.505      743.849        0.646        0.223       91.904       27.769        0.091      339.334       12.596      861.058
11/14/2013  11:33:00       59.961       76.861       -0.895       43.613       43.259       37.450     1902.055     1871.314     1402.480        0.734        0.259       97.483       26.737        0.075      339.246       12.447      861.018
11/14/2013  11:34:00       37.367       10.656       17.752       26.543       34.803       31.183      704.541     1211.260      972.407        0.236        0.144       38.857       27.206        0.490      339.321       12.574      860.938
11/14/2013  11:35:00       37.756       44.940       54.148       42.260       47.205       33.181     1785.891     2228.303     1100.971        0.575        0.256       58.695       24.945        0.181      339.568       12.989      860.884
11/14/2013  11:36:00       60.174       24.039       29.696       74.844       78.586       38.572     5601.669     6175.733     1487.794        0.917        0.663       64.798       40.127        0.383      339.655       13.137      860.871
11/14/2013  11:37:00       80.141       70.256       20.808       52.802       39.301       30.191     2788.045     1544.570      911.520        0.852        0.262      106.576       12.744        0.014      339.575       13.002      860.875
11/14/2013  11:38:00       69.227      107.388      104.935       64.378       46.474       49.080     4144.513     2159.788     2408.876        1.802        0.436      127.768       36.520        0.082      339.604       13.049      860.849
11/14/2013  11:39:00       38.057       23.350       23.776       54.347       66.491       34.572     2953.640     4421.049     1195.207        0.556        0.428       44.649       45.349        1.032      339.461       12.808      860.839
11/14/2013  11:40:00       20.216        3.960       18.605       33.735       45.466       32.644     1138.079     2067.158     1065.656        0.252        0.214       20.600       29.695        2.078      339.797       13.376      860.837
11/14/2013  11:41:00       33.353      124.121       -1.470       33.087       77.935       42.684     1094.730     6073.833     1821.947        1.275        0.450      128.524       47.231        0.135      339.700       13.212      860.854
11/14/2013  11:42:00       87.812      112.979       13.895       50.604       56.161       44.392     2560.771     3154.004     1970.623        1.418        0.384      143.091       41.102        0.083      339.660       13.145      860.831
11/14/2013  11:43:00       76.359       67.301       -6.264       55.898       38.806       37.824     3124.640     1505.926     1430.632        0.823        0.303      101.785       16.446        0.026      339.658       13.143      860.799
11/14/2013  11:44:00        4.129       47.063       10.081       29.663       37.679       40.519      879.876     1419.739     1641.789        0.314        0.197       47.244       24.661        0.272      340.002       13.724      860.776
11/14/2013  11:45:00       12.134       42.708       71.763       36.425       66.261       35.080     1326.785     4390.466     1230.621        0.703        0.347       44.398       39.733        0.801      340.084       13.861      860.771
11/14/2013  11:46:00      111.634       49.880       39.318       80.527       58.707       59.094     6484.554     3446.534     3492.151        1.496        0.671      122.271       44.261        0.131      339.873       13.505      860.786
11/14/2013  11:47:00      123.091       85.403       33.879       45.527       39.851       41.311     2072.723     1588.109     1706.600        1.448        0.268      149.817       20.713        0.019      339.877       13.512      860.788
11/14/2013  11:48:00       30.816      109.091      104.175       54.328       61.062       50.385     2951.572     3728.576     2538.602        1.646        0.461      113.360       43.980        0.151      340.143       13.958      860.777
11/14/2013  11:49:00      122.562       89.104       71.385       54.836       45.372       48.854     3006.986     2058.577     2386.747        1.775        0.373      151.529       40.065        0.070      339.619       13.076      860.763
11/14/2013  11:50:00       70.233       45.759       19.263       54.512       39.388       19.450     2971.507     1551.445      378.301        0.615        0.245       83.824       19.018        0.051      339.566       12.988      860.752
11/14/2013  11:51:00       29.270      -24.506       12.831       21.401       24.898       18.241      457.985      619.907      332.717        0.152        0.071       38.174       14.607        0.146      339.720       13.247      860.720
11/14/2013  11:52:00       85.698       31.334        7.817       55.904       41.845       28.146     3125.203     1751.014      792.178        0.703        0.283       91.247       13.120        0.021      339.717       13.243      860.658
11/14/2013  11:53:00      153.351      113.749       27.972       73.801       55.036       47.374     5446.515     3028.951     2244.263        2.398        0.536      190.933       36.673        0.037      339.981       13.685      860.585
11/14/2013  11:54:00       79.137      128.866      114.834       96.095       60.500       52.673     9234.340     3660.264     2774.445        2.586        0.783      151.225       49.718        0.108      340.063       13.824      860.516
11/14/2013  11:55:00       41.654       30.429       65.038       51.515       47.443       36.514     2653.791     2250.800     1333.263        0.656        0.312       51.585       31.097        0.363      340.379       14.358      860.480
11/14/2013  11:56:00       16.114       52.781       51.777       32.295       35.383       34.789     1042.946     1251.991     1210.268        0.462        0.175       55.186       24.921        0.204      340.306       14.236      860.494
11/14/2013  11:57:00       89.308       45.334       27.998       55.915       39.141       46.065     3126.520     1532.037     2121.964        0.880        0.339      100.155       24.774        0.061      340.093       13.875      860.501
11/14/2013  11:58:00       72.361       -2.149        2.800       43.329       21.075       26.027     1877.443      444.150      677.421        0.412        0.150       72.393       12.874        0.032      339.938       13.615      860.510
11/14/2013  11:59:00       77.475        4.173        9.591       35.977       41.381       33.391     1294.338     1712.405     1114.989        0.512        0.206       77.587       28.406        0.134      339.901       13.553      860.509
11/14/2013  12:00:00       36.824       16.460        0.036       45.816       38.316       21.343     2099.094     1468.136      455.534        0.282        0.201       40.335        8.649        0.046      340.359       14.324      860.482
11/14/2013  12:01:00       58.753       70.443       12.295       35.211       23.563       32.379     1239.793      555.233     1048.403        0.570        0.142       91.728       14.034        0.023      340.070       13.837      860.448
11/14/2013  12:02:00       59.321       67.767       -9.790       28.586       40.448       32.471      817.175     1636.070     1054.346        0.586        0.175       90.063       24.972        0.077      339.981       13.688      860.408
11/14/2013  12:03:00      -38.749       78.062      -18.214       25.749       37.644       19.312      663.025     1417.057      372.953        0.519        0.123       87.150       20.141        0.053      339.946       13.628      860.363
11/14/2013  12:04:00        3.047       53.032        6.534       50.620       40.667       32.299     2562.335     1653.771     1043.255        0.406        0.263       53.120       39.942        0.565      340.254       14.147      860.357
11/14/2013  12:05:00       20.908       51.458       -1.688       28.271       57.071       30.237      799.251     3257.149      914.301        0.403        0.249       55.544       32.239        0.337      340.131       13.942      860.368
11/14/2013  12:06:00       83.335       44.808        4.119       39.372       24.857       28.472     1550.175      617.875      810.633        0.597        0.149       94.618       20.863        0.049      339.960       13.651      860.338
11/14/2013  12:07:00       10.014       48.549       73.691       31.923       55.107       41.254     1019.087     3036.739     1701.878        0.682        0.288       49.571       43.651        0.775      340.449       14.477      860.279
11/14/2013  12:08:00       30.471      116.817       10.674       35.336       46.311       50.059     1248.657     2144.682     2505.911        1.029        0.295      120.726       40.747        0.114      340.320       14.260      860.218
11/14/2013  12:09:00      100.665       80.856       24.834       61.061       38.417       42.297     3728.464     1475.866     1789.005        1.214        0.350      129.116       21.505        0.028      340.335       14.284      860.168
11/14/2013  12:10:00       25.402       89.009       98.011       66.113       70.669       69.239     4370.988     4994.160     4794.044        1.616        0.708       92.563       51.039        0.304      340.650       14.815      860.131
11/14/2013  12:11:00       48.886      114.110      126.119       70.910       78.153       56.401     5028.209     6107.932     3181.033        2.281        0.716      124.141       54.721        0.194      340.438       14.458      860.094
11/14/2013  12:12:00      109.273       51.735       38.512       78.929       45.674       51.304     6229.738     2086.084     2632.136        1.352        0.547      120.902       25.132        0.043      340.597       14.726      860.095
11/14/2013  12:13:00       67.106       36.427       17.204       75.575       45.279       37.557     5711.526     2050.233     1410.507        0.765        0.459       76.355       30.698        0.162      340.998       15.405      860.115
11/14/2013  12:14:00       86.313       95.566        2.808       51.368       50.825       49.264     2638.707     2583.158     2426.899        1.212        0.382      128.774       36.108        0.079      340.452       14.482      860.098
11/14/2013  12:15:00      117.436       60.178       27.736       69.211       64.916       48.821     4790.195     4214.024     2383.443        1.478        0.569      131.957       47.506        0.130      340.426       14.437      860.059
11/14/2013  12:16:00      194.610      118.575       21.829       52.489       52.172       45.651     2755.056     2721.928     2083.992        2.998        0.378      227.888       20.838        0.008      340.499       14.558      860.025
11/14/2013  12:17:00      111.513       91.622       41.801       82.471       50.745       48.188     6801.521     2575.019     2322.093        1.714        0.585      144.325       46.218        0.103      340.863       15.176      859.990
11/14/2013  12:18:00       65.556      101.460       86.989       67.841       49.358       63.736     4602.382     2436.236     4062.341        1.663        0.555      120.796       45.729        0.143      340.627       14.778      859.966
11/14/2013  12:19:00       73.166       63.101       52.515       63.717       47.740       40.843     4059.815     2279.100     1668.142        1.005        0.400       96.618       25.195        0.068      340.690       14.884      859.950
11/14/2013  12:20:00      -10.809       12.274       16.452       40.220       59.892       37.085     1617.664     3587.047     1375.294        0.356        0.329       16.355       35.914        4.822      341.128       15.627      859.938
11/14/2013  12:21:00      134.195       99.720       33.970       85.076       67.966       45.899     7237.967     4619.366     2106.727        2.153        0.698      167.190       47.395        0.080      340.671       14.850      859.936
11/14/2013  12:22:00      171.983       96.765       27.368       53.292       58.527       41.359     2840.009     3425.465     1710.575        2.383        0.399      197.336       27.723        0.020      340.632       14.784      859.902
11/14/2013  12:23:00      158.563      109.992       32.703       89.317       64.992       49.578     7977.491     4223.991     2457.998        2.648        0.733      192.978       31.827        0.027      340.686       14.876      859.865
11/14/2013  12:24:00      100.549       81.907       12.513       58.355       48.287       40.040     3405.289     2331.646     1603.210        1.216        0.367      129.687       30.623        0.056      340.591       14.717      859.855
11/14/2013  12:25:00       81.122       95.750       69.457       60.907       39.865       57.864     3709.691     1589.199     3348.227        1.461        0.432      125.494       47.001        0.140      340.859       15.170      859.809
11/14/2013  12:26:00      182.687      111.551       49.222      100.249       83.132       83.019    10049.785     6910.960     6892.173        3.604        1.193      214.052       72.699        0.115      340.619       14.761      859.768
11/14/2013  12:27:00      154.263       95.197       23.157       69.903       62.883       45.218     4886.411     3954.273     2044.705        2.214        0.544      181.272       22.795        0.016      340.692       14.885      859.774
11/14/2013  12:28:00        2.036       29.590       54.753       33.559       37.912       31.424     1126.173     1437.325      987.460        0.371        0.178       29.660       18.631        0.395      341.331       15.970      859.786
11/14/2013  12:29:00       86.214       91.232       80.666       64.917       51.479       45.410     4214.197     2650.137     2062.084        1.559        0.446      125.523       31.751        0.064      340.877       15.200      859.776
11/14/2013  12:30:00       43.516       46.138       57.009       52.080       47.679       39.939     2712.366     2273.264     1595.100        0.693        0.329       63.422       38.892        0.376      341.101       15.581      859.750
11/14/2013  12:31:00       87.718       33.958       48.617       63.699       56.497       38.605     4057.521     3191.895     1490.381        0.997        0.437       94.062       29.646        0.099      341.108       15.591      859.724
11/14/2013  12:32:00      132.973      136.737       85.783       77.528       56.415       56.514     6010.611     3182.688     3193.843        2.806        0.619      190.732       49.999        0.069      340.809       15.082      859.702
11/14/2013  12:33:00      139.601       91.551       45.556       67.817       36.928       41.457     4599.120     1363.663     1718.661        1.881        0.384      166.943       26.472        0.025      340.767       15.013      859.685
11/14/2013  12:34:00       48.182        9.175       17.643       45.448       66.553       32.144     2065.557     4429.238     1033.255        0.512        0.376       49.048       40.614        0.686      341.059       15.509      859.669
11/14/2013  12:35:00       45.330       28.879       12.642       48.921       42.249       30.314     2393.260     1784.945      918.937        0.407        0.255       53.748       18.315        0.116      341.283       15.889      859.650
11/14/2013  12:36:00       59.919       47.807       22.095       43.047       42.524       35.608     1853.038     1808.306     1267.952        0.565        0.246       76.654       22.243        0.084      341.197       15.742      859.615
11/14/2013  12:37:00       76.159       63.263        7.519       54.586       38.240       34.673     2979.639     1462.281     1202.184        0.775        0.282       99.007       20.565        0.043      341.109       15.593      859.586
11/14/2013  12:38:00       23.609       42.760       62.032       50.014       50.677       41.127     2501.362     2568.204     1691.429        0.650        0.338       48.845       31.085        0.405      341.460       16.188      859.600
11/14/2013  12:39:00      113.272     -176.598      -18.174       94.165       55.830       31.782     8867.053     3117.020     1010.100        2.867        0.650      209.804       35.066        0.028      341.074       15.530      859.610
11/14/2013  12:40:00       59.521       51.983       77.980       56.887       62.931       44.150     3236.084     3960.249     1949.197        1.073        0.457       79.025       38.534        0.238      341.293       15.903      859.603
11/14/2013  12:41:00       27.835       62.000       92.628       64.653       45.979       39.110     4179.968     2114.064     1529.566        1.051        0.391       67.962       40.284        0.351      341.399       16.085      859.538
11/14/2013  12:42:00       38.077       40.859       47.299       32.587       33.067       27.210     1061.903     1093.414      740.405        0.413        0.145       55.851       17.333        0.096      341.397       16.082      859.520
11/14/2013  12:43:00      148.306       74.989       25.582       59.723       42.091       50.705     3566.821     1771.640     2570.984        1.809        0.395      166.187       34.096        0.042      341.303       15.920      859.469
11/14/2013  12:44:00      105.350       88.978       70.213       69.700       60.562       43.211     4858.140     3667.780     1867.167        1.717        0.520      137.897       35.808        0.067      341.299       15.915      859.446
11/14/2013  12:45:00        1.401       35.874       33.505       23.688       49.286       32.705      561.134     2429.080     1069.586        0.323        0.203       35.901       29.557        0.678      341.599       16.423      859.460
11/14/2013  12:46:00       45.115       14.924       26.561       52.728       42.810       37.729     2780.218     1832.667     1423.449        0.450        0.302       47.520       34.383        0.524      341.630       16.476      859.479
11/14/2013  12:47:00       60.799       51.400       16.207       65.375       54.156       36.217     4273.868     2932.837     1311.687        0.756        0.426       79.614       18.031        0.051      341.470       16.204      859.451
11/14/2013  12:48:00      129.016       54.709       13.455       78.918       73.199       43.317     6228.085     5358.156     1876.357        1.664        0.673      140.136       26.498        0.036      341.176       15.705      859.394
11/14/2013  12:49:00       34.407       48.186       48.820       59.355       46.988       57.564     3523.069     2207.839     3313.559        0.747        0.452       59.210       50.101        0.716      341.479       16.219      859.376
11/14/2013  12:50:00       95.949       68.257       16.380       65.929       36.180       32.465     4346.673     1308.980     1053.969        1.042        0.335      117.751       29.751        0.064      341.234       15.804      859.404
11/14/2013  12:51:00       25.527       -0.194       25.601       21.970       21.367       18.134      482.674      456.528      328.837        0.129        0.063       25.528       10.951        0.184      341.441       16.156      859.366
11/14/2013  12:52:00       16.933        9.507       70.357       53.250       74.440       52.159     2835.537     5541.270     2720.585        0.821        0.555       19.419       43.084        4.922      341.683       16.565      859.305
11/14/2013  12:53:00      107.473      169.328      138.584      109.634       66.136       67.944    12019.636     4373.928     4616.416        4.021        1.050      200.555       63.523        0.100      341.458       16.181      859.207
11/14/2013  12:54:00      155.513      104.443       54.889       74.684       60.354       64.070     5577.731     3642.662     4104.907        2.571        0.666      187.330       46.629        0.062      341.246       15.824      859.181
11/14/2013  12:55:00       55.206       29.293       -4.677       53.879       50.871       32.096     2902.909     2587.832     1030.144        0.522        0.326       62.496       37.476        0.360      341.437       16.149      859.192
11/14/2013  12:56:00       31.961       -0.535        8.012       47.659       37.081       29.850     2271.398     1375.030      891.009        0.281        0.227       31.965       25.124        0.618      341.678       16.557      859.193
11/14/2013  12:57:00       98.777       62.377       74.893       66.804       68.921       48.005     4462.819     4750.107     2304.473        1.538        0.576      116.824       44.106        0.143      341.559       16.356      859.168
11/14/2013  12:58:00      172.251       91.225       30.397       53.795       59.450       55.396     2893.908     3534.331     3068.736        2.420        0.475      194.916       36.109        0.034      341.635       16.481      859.140
11/14/2013  12:59:00      159.022       84.204       26.481       62.645       67.832       45.327     3924.367     4601.113     2054.535        2.183        0.529      179.940       32.713        0.033      341.642       16.493      859.116
11/14/2013  13:00:00      113.823       40.242       41.100       58.848       53.902       55.333     3463.068     2905.431     3061.767        1.285        0.472      120.727       34.239        0.080      341.586       16.401      859.100
11/14/2013  13:01:00       96.052       70.251       54.380       66.361       48.741       47.798     4403.817     2375.686     2284.611        1.309        0.453      119.001       39.237        0.109      341.789       16.744      859.076
11/14/2013  13:02:00      107.039      102.919      104.403       95.769       65.962       76.655     9171.636     4351.018     5875.921        2.617        0.970      148.492       76.582        0.266      341.738       16.656      859.031
11/14/2013  13:03:00      166.032      111.397       52.335       56.375       64.643       54.859     3178.092     4178.726     3009.519        2.654        0.518      199.940       31.422        0.025      341.656       16.516      859.001
11/14/2013  13:04:00      136.043       64.784       29.701       50.249       46.282       40.138     2524.933     2142.057     1611.084        1.493        0.314      150.681       19.955        0.018      341.856       16.859      858.998
11/14/2013  13:05:00       83.226       34.410       29.554       60.621       52.707       31.552     3674.877     2778.053      995.530        0.821        0.372       90.059       23.883        0.070      341.863       16.872      858.996
11/14/2013  13:06:00       73.693        6.880       27.540       39.729       36.555       28.362     1578.400     1336.266      804.378        0.498        0.186       74.013       12.993        0.031      341.995       17.095      858.994
11/14/2013  13:07:00       88.321       29.996        5.624       54.903       51.260       32.093     3014.292     2627.616     1029.940        0.770        0.334       93.276       19.657        0.044      341.909       16.950      858.968
11/14/2013  13:08:00      102.356       78.862       17.936       62.329       36.691       41.150     3884.946     1346.200     1693.289        1.197        0.346      129.213       13.938        0.012      341.970       17.051      858.932
11/14/2013  13:09:00       11.434       17.161       17.563       40.758       56.831       48.500     1661.194     3229.755     2352.243        0.399        0.362       20.621       34.531        2.804      342.186       17.419      858.890
11/14/2013  13:10:00       42.111       52.353       20.218       43.080       27.921       34.195     1855.920      779.570     1169.292        0.436        0.190       67.187       24.722        0.135      342.274       17.568      858.862
11/14/2013  13:11:00       34.017       54.442       78.391       63.266       61.659       40.592     4002.635     3801.845     1647.684        0.986        0.473       64.196       46.829        0.532      342.268       17.559      858.842
11/14/2013  13:12:00      105.568      118.192      109.151       78.750       70.922       62.747     6201.594     5029.961     3937.192        2.610        0.758      158.474       59.671        0.142      341.913       16.953      858.827
11/14/2013  13:13:00       74.675       43.055       79.848       61.211       47.499       50.119     3746.746     2256.131     2511.890        1.116        0.426       86.198       33.663        0.153      342.153       17.364      858.824
11/14/2013  13:14:00       69.983       12.010       75.622       60.739       62.862       59.978     3689.232     3951.644     3597.414        1.100        0.562       71.006       57.904        0.665      342.032       17.157      858.828
11/14/2013  13:15:00       40.207        0.920       37.962       52.864       82.290       51.281     2794.589     6771.724     2629.728        0.762        0.610       40.218       43.405        1.165      342.334       17.670      858.797
11/14/2013  13:16:00       89.086       14.645       51.870       51.588       68.417       45.012     2661.278     4680.939     2026.088        1.010        0.468       90.281       49.007        0.295      342.090       17.254      858.785
11/14/2013  13:17:00      125.871       -9.729       22.315       62.951       54.692       36.803     3962.781     2991.187     1354.454        1.237        0.415      126.247       35.221        0.078      341.944       17.009      858.783
11/14/2013  13:18:00       60.129     -120.457       26.638       44.324       62.721       34.388     1964.616     3933.968     1182.523        1.296        0.354      134.631       30.441        0.051      342.078       17.237      858.761
11/14/2013  13:19:00       41.996      -96.809        5.549       45.174       70.720       39.243     2040.720     5001.343     1539.979        0.987        0.429      105.526       27.074        0.066      342.195       17.433      858.732
11/14/2013  13:20:00       -5.471      -33.082       -4.206       23.696       28.626       18.698      561.486      819.466      349.605        0.144        0.087       33.531       14.054        0.176      342.385       17.759      858.728
11/14/2013  13:21:00       44.638      -86.160       -4.608       39.102       43.824       29.055     1528.951     1920.577      844.215        0.686        0.215       97.036       20.281        0.044      342.113       17.295      858.736
11/14/2013  13:22:00        4.806       15.224       24.965       18.767       16.895       16.574      352.207      285.424      274.689        0.090        0.046       15.965       14.285        0.801      342.405       17.791      858.714
11/14/2013  13:23:00       26.065       27.229       24.193       23.177       14.506       13.513      537.188      210.428      182.604        0.147        0.047       37.693        4.284        0.013      342.284       17.586      858.698
11/14/2013  13:24:00       52.619       35.104       13.959       20.492       15.764       23.342      419.916      248.496      544.858        0.270        0.061       63.254       11.701        0.034      342.168       17.388      858.693
11/14/2013  13:25:00       49.829       40.597       17.134       40.001       25.084       22.022     1600.071      629.217      484.948        0.357        0.136       64.273       14.630        0.052      342.288       17.593      858.671
11/14/2013  13:26:00       73.680       34.126       14.192       35.850       25.635       27.792     1285.255      657.154      772.384        0.475        0.136       81.199       17.815        0.048      342.314       17.637      858.648
11/14/2013  13:27:00       21.884       21.998       -3.020       24.822       51.934       22.243      616.120     2697.144      494.762        0.239        0.190       31.029       24.344        0.615      342.369       17.730      858.633
11/14/2013  13:28:00       39.465      -67.161        2.219       30.200       19.928       19.615      912.035      397.131      384.767        0.388        0.085       77.897       14.297        0.034      342.413       17.805      858.604
11/14/2013  13:29:00       13.524        8.889       27.614       28.026       25.199       22.334      785.455      634.992      498.828        0.147        0.096       16.184       14.292        0.780      342.761       18.396      858.576
11/14/2013  13:30:00       38.494       47.812        4.770       35.151       32.012       27.677     1235.570     1024.743      766.027        0.341        0.151       61.382       24.478        0.159      342.635       18.183      858.544
11/14/2013  13:31:00       41.492      110.471      -26.895       49.614       45.673       31.479     2461.596     2086.026      990.903        1.009        0.277      118.006       21.672        0.034      342.534       18.010      858.521
11/14/2013  13:32:00      -63.832      124.268      -25.973       50.827       59.178       20.343     2583.351     3502.023      413.830        1.334        0.325      139.703       10.176        0.005      342.446       17.860      858.505
11/14/2013  13:33:00      -24.327        1.415        5.931       44.520       42.006       21.796     1981.992     1764.468      475.066        0.242        0.211       24.368       13.774        0.319      342.787       18.443      858.489
11/14/2013  13:34:00      -56.407      -41.020        5.239       79.502       37.697       32.552     6320.489     1421.077     1059.636        0.684        0.440       69.745       22.239        0.102      342.892       18.619      858.467
11/14/2013  13:35:00      -29.856        5.661       27.981       53.934       61.815       33.813     2908.894     3821.073     1143.324        0.479        0.394       30.388       35.185        1.341      342.981       18.771      858.418
11/14/2013  13:36:00        9.569      -61.265       -1.038       51.684       46.039       41.683     2671.212     2119.550     1737.434        0.519        0.326       62.008       29.380        0.224      342.874       18.589      858.410
11/14/2013  13:37:00       66.044     -143.213      -20.538       45.057       47.583       34.680     2030.123     2264.168     1202.672        1.539        0.275      157.708       26.733        0.029      342.668       18.238      858.409
11/14/2013  13:38:00       51.496       35.324       69.068       61.067       57.547       50.405     3729.156     3311.606     2540.679        0.912        0.479       62.447       47.564        0.580      342.813       18.484      858.395
11/14/2013  13:39:00       80.384       13.981       34.931       34.251       41.119       32.146     1173.138     1690.737     1033.344        0.589        0.195       81.590       23.101        0.080      342.640       18.191      858.411
11/14/2013  13:40:00       27.050       -5.972        3.998       21.728       21.076       17.509      472.116      444.193      306.548        0.100        0.061       27.701       11.362        0.168      342.874       18.590      858.414
11/14/2013  13:41:00        3.410       10.231      -12.474       30.259        9.480        8.297      915.614       89.864       68.833        0.067        0.054       10.784        9.656        0.802      342.778       18.425      858.413
11/14/2013  13:42:00      -58.643      -27.297       -4.620       28.690       34.528       22.113      823.125     1192.203      488.991        0.335        0.125       64.685       19.671        0.092      343.014       18.828      858.420
11/14/2013  13:43:00      -68.499      -66.084      -14.361       18.539       27.167       15.311      343.700      738.038      234.430        0.529        0.066       95.179       11.891        0.016      342.682       18.264      858.419
11/14/2013  13:44:00      -41.284      -29.915       -7.865       23.212        9.145       12.239      538.801       83.636      149.782        0.172        0.039       50.983        7.378        0.021      342.690       18.277      858.409
11/14/2013  13:45:00       21.004      -57.911       -1.169       26.489       23.545       16.705      701.679      554.385      279.060        0.267        0.077       61.603       12.996        0.045      342.749       18.379      858.381
11/14/2013  13:46:00       44.153      -65.528       10.177       58.257      102.017       47.394     3393.844    10407.523     2246.238        1.119        0.802       79.015       50.368        0.406      342.807       18.476      858.311
11/14/2013  13:47:00       29.516       35.795       73.967       44.502       43.143       31.954     1980.466     1861.336     1021.027        0.624        0.243       46.395       16.972        0.134      343.045       18.879      858.255
11/14/2013  13:48:00       38.549       71.023       69.343       64.085       57.088       50.839     4106.890     3259.032     2584.573        1.064        0.498       80.810       41.632        0.265      343.019       18.835      858.235
11/14/2013  13:49:00       48.156       26.342      -16.405       48.014       31.812       22.021     2305.351     1012.005      484.940        0.354        0.190       54.890       27.940        0.259      342.860       18.565      858.250
11/14/2013  13:50:00      -18.604       16.742       -7.109       22.516       21.455       17.678      506.963      460.309      312.529        0.098        0.064       25.029       13.939        0.310      342.947       18.713      858.254
11/14/2013  13:51:00       24.645      -49.795        2.788       28.390       39.649       20.102      805.974     1572.065      404.094        0.294        0.139       55.560       21.807        0.154      342.903       18.638      858.268
11/14/2013  13:52:00       50.459      145.877      151.288       57.467      118.319      111.357     3302.444    13999.422    12400.428        3.820        1.485      154.358      107.851        0.488      342.878       18.593      858.176
11/14/2013  13:53:00      -26.338       18.540       83.503      126.867      143.883       94.483    16095.169    20702.218     8927.024        2.686        2.286       32.209      118.774       13.598      343.292       19.299      858.082
11/14/2013  13:54:00     -231.725     -179.031       -8.877      209.541      106.362       77.681    43907.621    11312.877     6034.314        7.353        3.063      292.828       69.864        0.057      343.246       19.218      858.091
11/14/2013  13:55:00      -25.275     -162.269      -12.629       71.862      115.136       59.753     5164.093    13256.361     3570.388        2.456        1.100      164.225       53.725        0.107      343.374       19.439      858.107
11/14/2013  13:56:00     -208.383     -115.830      -20.543       83.697       86.746       32.220     7005.265     7524.861     1038.103        3.641        0.778      238.412       25.569        0.012      343.321       19.346      858.127
11/14/2013  13:57:00     -276.668     -194.723       -9.734      156.273      131.131       82.465    24421.315    17195.385     6800.486        8.148        2.421      338.322       73.646        0.047      343.213       19.163      858.110
11/14/2013  13:58:00     -357.030     -307.199       -4.422      217.020      137.138       87.545    47097.855    18806.858     7664.180       14.770        3.678      471.001      107.813        0.052      343.142       19.040      858.091
11/14/2013  13:59:00     -277.234     -119.409      -15.268      140.262      104.667       66.697    19673.412    10955.202     4448.534        6.321        1.754      301.856       76.095        0.064      343.241       19.210      858.089
11/14/2013  14:00:00     -309.984     -269.258       -6.333      203.915      211.463       78.829    41581.501    44716.503     6213.966       13.055        4.626      410.597       67.709        0.027      343.194       19.128      858.047
11/14/2013  14:01:00     -276.346     -195.352      -17.715      138.230      127.826       64.633    19107.559    16339.527     4177.455        7.723        1.981      338.422       62.352        0.034      343.099       18.969      858.039
11/14/2013  14:02:00     -297.719      -62.933      -16.097      153.133      101.042       56.434    23449.775    10209.408     3184.766        6.484        1.842      304.298       62.523        0.042      343.250       19.227      858.028
11/14/2013  14:03:00     -120.011      -64.174        8.603      104.348       83.636       55.975    10888.518     6994.978     3133.186        1.980        1.051      136.091       56.643        0.173      343.446       19.563      857.993
11/14/2013  14:04:00     -211.850      -79.272        1.938      161.188      108.830       60.680    25981.602    11844.068     3682.036        4.633        2.075      226.195       70.728        0.098      343.292       19.298      857.970
11/14/2013  14:05:00     -194.168     -188.928        4.546      132.921       91.534       66.495    17668.076     8378.510     4421.618        5.194        1.523      270.915       76.420        0.080      343.247       19.221      857.943
11/14/2013  14:06:00     -117.890     -127.066        1.741       94.437       96.514       47.907     8918.438     9314.929     2295.102        2.528        1.026      173.332       41.127        0.056      343.139       19.039      857.901
11/14/2013  14:07:00      -46.586     -159.197        9.274      140.520      141.931       71.226    19745.773    20144.405     5073.133        3.627        2.248      165.873       64.028        0.149      343.252       19.230      857.869
11/14/2013  14:08:00     -131.356     -167.779       -6.038      180.656      116.269       55.346    32636.542    13518.442     3063.139        4.732        2.461      213.082       40.846        0.037      343.260       19.242      857.832
11/14/2013  14:09:00     -271.638     -136.633       -1.249      147.712       96.546       63.495    21818.819     9321.172     4031.558        6.381        1.759      304.065       73.364        0.058      343.244       19.215      857.846
11/14/2013  14:10:00     -117.563     -159.779      -17.809      102.807      120.610       51.799    10569.328    14546.852     2683.153        3.373        1.390      198.369       39.810        0.040      343.228       19.189      857.782
11/14/2013  14:11:00     -249.085     -138.017       -6.069      206.868      145.478       73.420    42794.293    21163.980     5390.465        7.522        3.467      284.767       79.182        0.077      343.253       19.229      857.754
11/14/2013  14:12:00     -412.925     -118.993        4.042      235.187      174.135       96.446    55312.756    30323.114     9301.768       13.979        4.747      429.728      112.507        0.069      343.166       19.083      857.705
11/14/2013  14:13:00     -440.036     -174.825      -23.831      205.543      171.948       87.770    42248.105    29566.244     7703.648       15.212        3.976      473.493      101.444        0.046      343.163       19.078      857.701
11/14/2013  14:14:00     -393.459      -91.496       17.690      190.302      136.308       85.696    36214.827    18579.882     7343.750       11.280        3.107      403.957       79.757        0.039      343.155       19.063      857.630
11/14/2013  14:15:00     -289.491     -189.504       -4.769      197.264      160.240       64.479    38913.118    25676.824     4157.560        9.423        3.437      346.001       72.047        0.043      343.198       19.136      857.627
11/14/2013  14:16:00     -308.970     -165.613       -9.553      174.590      140.315       86.011    30481.832    19688.438     7397.849        9.026        2.878      350.557       83.083        0.056      343.099       18.970      857.575
11/14/2013  14:17:00     -314.983     -211.265        4.686      185.029      146.038       85.376    34235.624    21327.191     7289.041       10.335        3.143      379.272       87.295        0.053      343.055       18.895      857.572
11/14/2013  14:18:00     -276.088     -206.664       -7.424      129.986      175.429       80.774    16896.384    30775.275     6524.457        8.658        2.710      344.869       72.235        0.044      343.091       18.956      857.553
11/14/2013  14:19:00     -318.683     -222.593       -9.866      158.954      136.957       67.075    25266.321    18757.173     4499.070        9.985        2.426      388.724       59.282        0.023      343.110       18.989      857.567
11/14/2013  14:20:00     -422.714     -129.653      -26.095      196.336      153.331       78.316    38547.755    23510.498     6133.383       13.217        3.410      442.150       81.222        0.034      342.987       18.777      857.557
11/14/2013  14:21:00     -271.161      -44.164       14.728      227.815      146.440       86.342    51899.796    21444.627     7454.974        7.823        4.040      274.734      108.482        0.156      343.149       19.055      857.487
11/14/2013  14:22:00     -609.474     -259.774      -16.358      247.879      136.840       97.438    61443.849    18725.140     9494.091       26.442        4.483      662.526       86.094        0.017      342.953       18.720      857.462
11/14/2013  14:23:00     -290.122     -151.006      -14.464      166.852       96.864       64.550    27839.559     9382.554     4166.715        7.428        2.069      327.068       62.354        0.036      343.077       18.931      857.474
11/14/2013  14:24:00     -263.170     -200.092       -7.248      213.007      151.464       92.513    45372.070    22941.319     8558.715        9.309        3.844      330.598       95.797        0.084      343.014       18.823      857.411
11/14/2013  14:25:00     -310.900     -189.630       -8.266      200.402      173.330       66.761    40160.930    30043.262     4457.018       10.366        3.733      364.168       90.819        0.062      343.095       18.962      857.402
11/14/2013  14:26:00     -377.188      -72.699      -33.590      147.073      116.147       76.543    21630.343    13490.215     5858.875        9.482        2.049      384.130       77.538        0.041      343.094       18.960      857.395
11/14/2013  14:27:00     -396.204     -230.036      -26.581      245.109      144.420       96.403    60078.467    20857.151     9293.589       15.040        4.511      458.142      101.293        0.049      342.981       18.769      857.374
11/14/2013  14:28:00     -322.794     -166.568       -5.668      228.564      170.384       93.345    52241.306    29030.669     8713.258       11.096        4.499      363.236      120.896        0.111      342.987       18.779      857.322
11/14/2013  14:29:00     -270.215     -114.223       15.080      206.817      165.364       91.888    42773.204    27345.272     8443.412        8.241        3.928      293.365       93.252        0.101      343.060       18.902      857.315
11/14/2013  14:30:00     -452.100     -271.758      -29.002      207.071      159.543       90.095    42878.438    25453.919     8117.031       17.775        3.822      527.491       82.774        0.025      342.950       18.715      857.295
11/14/2013  14:31:00     -337.998     -168.819       -7.114      224.363      202.770      105.059    50338.657    41115.852    11037.472       12.262        5.125      377.813      114.338        0.092      342.990       18.785      857.311
11/14/2013  14:32:00     -291.504      -83.404       -3.906      176.548      125.845       76.239    31169.121    15836.908     5812.328        7.237        2.641      303.201       77.181        0.065      343.107       18.983      857.323
11/14/2013  14:33:00     -232.937     -126.171        6.131      201.543      154.625       75.520    40619.382    23908.772     5703.303        7.021        3.512      264.913       93.221        0.124      343.064       18.909      857.299
11/14/2013  14:34:00     -292.937     -192.658        4.861      254.919      151.753       93.343    64983.785    23029.064     8713.008       10.982        4.836      350.613       94.399        0.072      343.010       18.816      857.273
11/14/2013  14:35:00     -336.706     -171.437       -6.646      234.692      153.440       63.589    55080.416    23543.879     4043.553       11.272        4.133      377.838       82.609        0.048      342.991       18.786      857.283
11/14/2013  14:36:00     -342.603     -189.906        0.994      168.163      166.403       81.410    28278.628    27689.903     6627.593       10.801        3.130      391.716       80.459        0.042      342.945       18.707      857.277
11/14/2013  14:37:00     -186.455     -203.128       11.099      151.385      141.778       72.320    22917.424    20100.883     5230.194        6.219        2.412      275.729       67.744        0.060      342.988       18.780      857.261
11/14/2013  14:38:00     -437.369     -236.953       -3.505      290.246      193.227       87.767    84242.594    37336.631     7703.097       18.834        6.464      497.431      103.726        0.043      342.868       18.574      857.246
11/14/2013  14:39:00     -346.694     -234.881       -5.405      214.475      167.169       90.237    45999.466    27945.629     8142.737       12.873        4.104      418.767       95.705        0.052      342.918       18.660      857.220
11/14/2013  14:40:00     -340.885     -262.947        5.100      205.284      187.293       97.981    42141.359    35078.844     9600.336       13.608        4.341      430.516      103.429        0.058      342.909       18.646      857.202
11/14/2013  14:41:00     -412.193     -192.751       -3.433      209.451      173.353       82.550    43869.611    30051.394     6814.481       14.389        4.037      455.034       83.888        0.034      342.934       18.688      857.225
11/14/2013  14:42:00     -276.325      -91.051        0.409      184.549      226.509       93.070    34058.211    51306.485     8662.079        8.932        4.701      290.940       96.170        0.109      342.954       18.722      857.228
11/14/2013  14:43:00     -350.494     -147.020       -3.625      200.147      129.823       80.386    40058.806    16854.025     6461.931       10.391        3.169      380.080       98.479        0.067      342.939       18.697      857.221
11/14/2013  14:44:00     -172.941      -93.684       15.157      131.178      162.124       72.366    17207.745    26284.187     5236.817        4.381        2.436      196.686       68.367        0.121      343.068       18.916      857.234
11/14/2013  14:45:00     -230.631      -68.282      -10.162      182.424      107.561       69.698    33278.356    11569.266     4857.770        5.382        2.485      240.526       77.495        0.104      343.039       18.867      857.218
11/14/2013  14:46:00     -249.050     -145.521       -1.056      175.195       99.181       67.232    30693.449     9836.812     4520.108        6.412        2.253      288.448       76.632        0.071      343.063       18.907      857.212
11/14/2013  14:47:00     -485.671     -177.425      -11.738      200.908      166.394       84.410    40363.873    27686.911     7124.978       17.132        3.759      517.065       79.840        0.024      342.837       18.523      857.186
11/14/2013  14:48:00     -373.087     -187.097      -17.907      160.503      149.351       80.384    25761.138    22305.729     6461.546       11.451        2.726      417.372       79.005        0.036      342.870       18.579      857.158
11/14/2013  14:49:00     -501.368     -337.714      -23.593      357.427      208.305      126.237   127753.901    43390.790    15935.742       27.649        9.354      604.500      166.208        0.076      342.833       18.517      857.149
11/14/2013  14:50:00     -457.780     -254.367      -17.828      235.013      248.195      118.236    55231.197    61600.936    13979.742       20.267        6.541      523.704      119.560        0.052      342.853       18.549      857.122
11/14/2013  14:51:00     -504.990     -211.213       -6.125      299.305      202.334      101.143    89583.466    40939.219    10229.842       22.018        7.038      547.381      113.402        0.043      342.889       18.611      857.130
11/14/2013  14:52:00     -317.257      -56.852        5.252      202.725      176.355       79.931    41097.499    31100.998     6388.948        9.123        3.929      322.311       90.165        0.078      342.931       18.683      857.146
11/14/2013  14:53:00     -348.767     -215.215       -7.942      222.536      213.608      127.058    49522.227    45628.231    16143.769       13.963        5.565      409.825      138.564        0.114      342.825       18.503      857.093
11/14/2013  14:54:00     -471.072     -142.182      -10.826      255.648      208.755       97.745    65355.986    43578.570     9554.003       18.034        5.924      492.062      122.272        0.062      342.916       18.657      857.131
11/14/2013  14:55:00     -234.605      -30.628        1.221      244.567      153.701      111.278    59813.114    23624.127    12382.707        7.588        4.791      236.596      121.505        0.264      342.959       18.731      857.099
11/14/2013  14:56:00     -170.117      -85.743        0.660      155.211      162.234       84.737    24090.400    26320.027     7180.317        4.693        2.880      190.503       70.951        0.139      343.013       18.823      857.122
11/14/2013  14:57:00     -312.862     -182.069        3.000      234.871      166.317       99.203    55164.504    27661.281     9841.325       11.184        4.633      361.983      115.185        0.101      342.975       18.759      857.117
11/14/2013  14:58:00     -601.827     -220.650      -18.400      289.728      189.465      118.219    83942.272    35897.083    13975.813       27.249        6.691      641.001      137.505        0.046      342.802       18.465      857.100
11/14/2013  14:59:00     -366.394     -217.828       16.295      278.637      246.675      148.160    77638.376    60848.409    21951.347       17.117        8.022      426.255      144.417        0.115      342.758       18.390      857.086
11/14/2013  15:00:00     -468.780     -174.641        0.677      286.662      218.114      118.445    82175.267    47573.775    14029.152       19.699        7.189      500.254      134.224        0.072      342.745       18.365      857.133
11/14/2013  15:01:00     -663.847     -226.506      -17.496      296.313      193.898      107.017    87801.580    37596.463    11452.695       31.455        6.843      701.426      130.749        0.035      342.675       18.247      857.131
11/14/2013  15:02:00     -639.983     -199.584      -23.756      310.751      250.271      104.689    96566.273    62635.679    10959.875       31.004        8.508      670.382      136.372        0.041      342.680       18.258      857.134
11/14/2013  15:03:00     -452.985     -206.669      -32.081      195.337      137.066       84.129    38156.387    18787.112     7077.653       15.647        3.201      497.903       86.751        0.030      342.734       18.347      857.174
11/14/2013  15:04:00     -288.269     -149.322      -19.271      164.592      132.991       89.951    27090.395    17686.641     8091.173        7.931        2.643      324.647       78.323        0.058      342.816       18.489      857.157
11/14/2013  15:05:00     -238.444     -175.066       -0.519      149.487      111.143       76.257    22346.508    12352.721     5815.113        6.400        2.026      295.810       78.309        0.070      342.775       18.418      857.137
11/14/2013  15:06:00     -307.333     -242.114        1.948      191.165      176.467       98.827    36544.205    31140.584     9766.870       11.525        3.873      391.245      117.321        0.090      342.765       18.400      857.128
11/14/2013  15:07:00     -419.763     -279.533      -24.416      300.784      273.431      145.352    90470.831    74764.474    21127.161       22.061        9.318      504.321      155.996        0.096      342.707       18.302      857.129
11/14/2013  15:08:00     -435.073     -155.614       -6.334      304.948      209.864      114.232    92993.359    44042.899    13048.907       18.178        7.504      462.065      144.777        0.098      342.679       18.254      857.142
11/14/2013  15:09:00     -604.474     -238.388      -23.539      253.874      217.144      107.688    64451.965    47151.414    11596.751       27.296        6.160      649.783      112.829        0.030      342.607       18.133      857.157
11/14/2013  15:10:00     -525.253     -197.191      -36.510      206.410      197.310      102.040    42604.891    38931.044    10412.162       20.401        4.597      561.048       99.658        0.032      342.639       18.185      857.171
11/14/2013  15:11:00     -359.829     -266.102        1.727      266.448      245.705      126.866    70994.617    60370.822    16095.098       17.385        7.373      447.534      141.214        0.100      342.657       18.218      857.122
11/14/2013  15:12:00     -317.649     -176.137       -3.956      295.340      172.717      110.727    87225.692    29831.210    12260.393       13.060        6.466      363.215      136.057        0.140      342.679       18.253      857.137
11/14/2013  15:13:00     -518.686     -190.326      -12.867      303.462      187.860       99.455    92089.308    35291.368     9891.324       22.132        6.864      552.503      126.074        0.052      342.646       18.198      857.136
11/14/2013  15:14:00     -388.820      -56.053       -3.302      220.079      172.690       87.897    48434.579    29821.913     7725.874       12.014        4.299      392.839       90.173        0.053      342.721       18.327      857.181
11/14/2013  15:15:00     -382.856     -157.392       -1.311      210.008      161.741       86.204    44103.227    26160.122     7431.132       12.451        3.885      413.946       94.744        0.052      342.677       18.251      857.189
11/14/2013  15:16:00     -529.692     -192.060        2.029      257.908      192.276      118.196    66516.688    36970.120    13970.263       21.744        5.873      563.436      134.614        0.057      342.593       18.108      857.172
11/14/2013  15:17:00     -511.484     -221.093      -11.080      246.724      198.839       97.765    60872.603    39536.921     9558.041       21.027        5.498      557.223      121.390        0.047      342.571       18.072      857.166
11/14/2013  15:18:00     -328.867     -166.095       21.278      230.576      151.279       89.401    53165.511    22885.218     7992.540       11.010        4.202      368.431      103.364        0.079      342.614       18.143      857.208
11/14/2013  15:19:00     -373.070     -235.699       -8.964      225.430      156.822      104.046    50818.642    24593.241    10825.519       14.051        4.312      441.288      116.440        0.070      342.580       18.087      857.222
11/14/2013  15:20:00     -430.183     -259.401       -3.633      287.973      203.967      100.213    82928.408    41602.661    10042.696       19.344        6.729      502.341      128.945        0.066      342.597       18.115      857.233
11/14/2013  15:21:00     -471.601     -263.893      -13.756      266.083      221.566      100.076    70800.242    49091.533    10015.128       21.105        6.495      540.414      127.795        0.056      342.552       18.038      857.242
11/14/2013  15:22:00     -499.244     -193.014      -20.636      185.050      144.640       91.489    34243.380    20920.679     8370.220       17.522        3.177      535.256      105.577        0.039      342.550       18.035      857.265
11/14/2013  15:23:00     -379.225     -172.048       -0.249      235.072      195.320      110.753    55258.674    38149.818    12266.196       13.952        5.284      416.428      115.745        0.077      342.579       18.085      857.248
11/14/2013  15:24:00     -271.942     -166.003       18.077      257.984      208.265      105.700    66555.692    43374.184    11172.461       11.144        6.055      318.606      134.810        0.179      342.567       18.064      857.229
11/14/2013  15:25:00     -366.497     -267.520      -13.307      226.019      159.035      112.652    51084.544    25292.025    12690.449       14.755        4.453      453.747      113.079        0.062      342.500       17.950      857.191
11/14/2013  15:26:00     -414.214     -315.360      -34.148      212.277      169.171       96.399    45061.717    28618.914     9292.688       17.757        4.149      520.600       97.939        0.035      342.489       17.931      857.192
11/14/2013  15:27:00     -401.378     -279.320      -18.474      234.974      214.222      117.398    55212.629    45891.218    13782.233       17.715        5.744      489.002      139.217        0.081      342.475       17.909      857.166
11/14/2013  15:28:00     -483.960     -252.888      -20.583      218.839      161.629       90.443    47890.606    26123.900     8179.938       19.038        4.110      546.049       90.589        0.028      342.476       17.909      857.180
11/14/2013  15:29:00     -420.844      -95.462        1.519      216.540      181.977       87.883    46889.545    33115.529     7723.335       13.696        4.386      431.535      105.375        0.060      342.590       18.103      857.177
11/14/2013  15:30:00     -480.822     -194.196      -13.180      264.363      167.036       97.322    69888.038    27901.139     9471.559       18.815        5.363      518.558      120.375        0.054      342.465       17.890      857.169
11/14/2013  15:31:00     -337.449     -308.008      -13.777      221.894      186.833       97.857    49237.074    34906.417     9575.990       15.131        4.686      456.882      103.334        0.051      342.446       17.860      857.193
11/14/2013  15:32:00     -246.768     -102.385       10.005      229.974      120.982       79.636    52888.013    14636.666     6341.850        7.266        3.693      267.165      103.112        0.149      342.461       17.885      857.184
11/14/2013  15:33:00     -280.558     -201.553        5.099      175.845      159.509       90.283    30921.531    25443.002     8150.952        9.193        3.226      345.451       99.279        0.083      342.421       17.815      857.184
11/14/2013  15:34:00     -159.872     -158.849       11.299      161.170      101.910       74.940    25975.704    10385.667     5615.935        4.644        2.099      225.371       83.362        0.137      342.466       17.891      857.171
11/14/2013  15:35:00     -155.094      -79.015       18.091       95.583       99.938       60.207     9136.058     9987.556     3624.853        2.668        1.137      174.062       49.332        0.080      342.500       17.951      857.170
11/14/2013  15:36:00     -239.347     -177.808       -1.738      134.260      117.746       63.090    18025.754    13864.222     3980.393        6.238        1.794      298.165       54.906        0.034      342.448       17.863      857.162
11/14/2013  15:37:00     -160.061     -108.703       38.756      164.680      144.433       84.786    27119.388    20860.864     7188.727        4.704        2.758      193.483       86.910        0.202      342.463       17.888      857.155
11/14/2013  15:38:00     -290.579     -199.193        5.935      212.262      151.503       77.428    45055.364    22953.043     5995.040        9.906        3.700      352.298       91.388        0.067      342.441       17.851      857.148
11/14/2013  15:39:00     -347.733     -141.635      -12.730      164.136      134.527       76.782    26940.737    18097.608     5895.408        9.603        2.547      375.471       76.299        0.041      342.433       17.835      857.186
11/14/2013  15:40:00     -339.827      -67.098      -13.570      173.825      143.171       83.363    30215.029    20497.981     6949.361        8.890        2.883      346.388       87.350        0.064      342.420       17.813      857.187
11/14/2013  15:41:00     -243.744      -99.298      -12.285      108.021      124.350       64.181    11668.543    15462.893     4119.228        5.033        1.563      263.194       59.089        0.050      342.479       17.914      857.179
11/14/2013  15:42:00     -198.774      -67.194        3.804      133.776      150.007       66.805    17896.148    22501.972     4462.859        4.444        2.243      209.824       75.197        0.128      342.485       17.926      857.159
11/14/2013  15:43:00     -412.225     -163.860        1.792      213.736      174.834      104.047    45683.214    30567.026    10825.811       14.191        4.354      443.598      102.486        0.053      342.342       17.681      857.125
11/14/2013  15:44:00     -459.694      -68.251        2.152      211.333      169.502       99.226    44661.622    28731.022     9845.812       14.959        4.162      464.733      113.143        0.059      342.332       17.663      857.086
11/14/2013  15:45:00     -271.015     -169.056      -18.146      130.146      124.269       71.915    16937.995    15442.806     5171.744        6.995        1.878      319.420       66.525        0.043      342.350       17.694      857.092
11/14/2013  15:46:00     -385.432     -250.822       -6.490      214.382      187.561       98.867    45959.729    35179.027     9774.697       15.119        4.546      459.858      103.915        0.051      342.298       17.607      857.084
11/14/2013  15:47:00     -290.453     -241.527      -13.882      156.777      137.471       90.599    24579.038    18898.219     8208.130        9.728        2.584      377.754       80.825        0.046      342.307       17.622      857.051
11/14/2013  15:48:00     -538.067     -132.676      -20.490      219.111      187.187       94.964    48009.413    35038.928     9018.119       19.978        4.603      554.183      101.443        0.034      342.277       17.572      857.029
11/14/2013  15:49:00     -440.570     -185.324      -36.594      216.707      157.127      118.937    46961.898    24688.747    14146.013       15.777        4.290      477.961      112.390        0.055      342.260       17.542      857.025
11/14/2013  15:50:00     -536.922     -199.384      -20.859      212.391      176.270       84.608    45109.957    31071.266     7158.523       20.589        4.167      572.747       94.698        0.027      342.232       17.493      857.024
11/14/2013  15:51:00     -356.436     -138.243       -4.153      209.392      127.577       84.103    43844.840    16275.815     7073.370       10.667        3.360      382.306       96.724        0.064      342.239       17.507      857.025
11/14/2013  15:52:00     -309.836     -270.416       -8.938      264.269      204.942      115.074    69838.000    42001.179    13242.061       14.712        6.254      411.246      142.790        0.121      342.239       17.507      856.987
11/14/2013  15:53:00     -548.456     -321.988       -1.170      316.286      211.524      108.662   100036.862    44742.246    11807.501       28.050        7.829      635.987      122.689        0.037      342.175       17.398      856.961
11/14/2013  15:54:00     -361.719     -113.704        2.880      230.022      196.019       88.251    52910.172    38423.443     7788.172       12.143        4.956      379.169       99.068        0.068      342.237       17.502      856.933
11/14/2013  15:55:00     -394.969     -277.692       -1.980      249.007      223.180      109.971    62004.651    49809.409    12093.668       17.849        6.195      482.818       99.359        0.042      342.155       17.364      856.891
11/14/2013  15:56:00     -517.362     -254.551      -21.654      214.439      199.342       90.890    45984.005    39737.417     8260.991       21.344        4.699      576.593      107.026        0.034      342.171       17.391      856.907
11/14/2013  15:57:00     -424.406     -208.423       -1.946      158.598      178.356       89.909    25153.420    31811.027     8083.640       14.429        3.252      472.821       76.292        0.026      342.152       17.358      856.904
11/14/2013  15:58:00     -515.515     -430.368      -35.131      213.020      203.194      103.912    45377.459    41287.858    10797.806       27.482        4.873      671.545       95.602        0.020      342.104       17.277      856.893
11/14/2013  15:59:00     -285.478     -144.651       17.699      255.901      161.564       86.641    65485.479    26102.913     7506.617       10.089        4.955      320.034      121.521        0.144      342.123       17.311      856.919
11/14/2013  16:00:00     -508.198     -206.081       -8.287      209.795      154.075      100.485    44013.753    23739.149    10097.277       18.931        3.893      548.393       94.885        0.030      342.066       17.210      856.932
11/14/2013  16:01:00     -460.881     -172.329       -8.188      280.348      228.117      133.897    78594.725    52037.548    17928.285       19.534        7.428      492.045      143.857        0.085      342.046       17.178      856.895
11/14/2013  16:02:00     -336.537     -171.391       15.283      283.845      203.230      118.361    80568.159    41302.317    14009.301       13.935        6.794      377.666      140.602        0.139      342.027       17.146      856.871
11/14/2013  16:03:00     -370.145     -214.548       -6.661      222.555      199.695      103.296    49530.789    39878.156    10670.120       14.156        5.004      427.829      112.760        0.069      342.012       17.119      856.901
11/14/2013  16:04:00     -465.684     -293.907      -27.179      210.936      179.259       97.354    44493.819    32133.643     9477.705       19.503        4.305      550.675      102.078        0.034      341.989       17.081      856.882
11/14/2013  16:05:00     -374.417     -122.910       -8.876      187.582      140.137       85.353    35187.184    19638.380     7285.210       10.873        3.106      394.075       90.321        0.053      342.026       17.144      856.900
11/14/2013  16:06:00     -495.021     -175.993      -11.721      159.455      169.328       96.114    25426.017    28671.854     9237.985       16.973        3.167      525.375       90.037        0.029      341.974       17.056      856.901
11/14/2013  16:07:00     -542.372     -237.726      -13.123      237.285      206.063       91.800    56304.197    42462.152     8427.287       22.900        5.360      592.183       98.553        0.028      341.937       16.993      856.863
11/14/2013  16:08:00     -587.716     -118.222       -8.658      349.371      232.159      107.856   122059.899    53897.609    11632.862       27.349        9.380      599.488      144.872        0.058      341.933       16.986      856.820
11/14/2013  16:09:00     -376.298     -256.589       -1.044      195.607      216.340      106.138    38262.289    46803.069    11265.218       15.187        4.817      455.454      112.277        0.061      341.929       16.981      856.848
11/14/2013  16:10:00     -491.780     -279.136       -6.373      276.297      254.777      119.566    76339.920    64911.336    14295.964       23.765        7.777      565.477      152.825        0.073      341.879       16.894      856.828
11/14/2013  16:11:00     -463.371     -228.347      -22.706      245.391      190.025       93.600    60216.799    36109.488     8760.921       18.621        5.254      516.580      116.283        0.051      341.874       16.887      856.879
11/14/2013  16:12:00     -196.336     -125.101        9.317      148.559      135.648       67.643    22069.682    18400.283     4575.577        4.966        2.252      232.805       66.846        0.082      341.876       16.890      856.885
11/14/2013  16:13:00     -401.215     -269.093      -19.892      176.745      166.809       87.283    31238.825    27825.363     7618.336       15.022        3.334      483.099       93.744        0.038      341.841       16.829      856.880
11/14/2013  16:14:00     -613.711     -249.416      -19.073      250.284      218.615      112.519    62642.172    47792.688    12660.562       28.113        6.155      662.457      124.471        0.035      341.794       16.751      856.851
11/14/2013  16:15:00     -521.813     -204.663      -18.984      228.437      198.633      104.436    52183.266    39455.045    10906.957       20.852        5.127      560.514      118.156        0.044      341.784       16.733      856.854
11/14/2013  16:16:00     -339.626     -236.035      -11.990      200.660      159.128       98.057    40264.527    25321.765     9615.182       12.319        3.760      413.592      106.365        0.066      341.772       16.713      856.852
11/14/2013  16:17:00     -465.361     -274.636      -19.384      202.102      179.469       96.740    40845.283    32209.300     9358.684       18.737        4.121      540.357       96.670        0.032      341.761       16.694      856.847
11/14/2013  16:18:00     -470.346     -201.261       -4.520      243.174      195.644      114.654    59133.521    38276.665    13145.510       18.613        5.528      511.597      118.697        0.054      341.748       16.673      856.841
11/14/2013  16:19:00     -532.035     -139.931      -25.484      259.008      154.176      101.962    67085.351    23770.230    10396.255       20.225        5.063      550.129      119.424        0.047      341.756       16.686      856.839
11/14/2013  16:20:00     -325.091     -153.370       -2.600      170.289      145.916       79.215    28998.408    21291.353     6274.940        9.288        2.828      359.454       83.135        0.053      341.720       16.625      856.862
11/14/2013  16:21:00     -283.162     -131.513       -9.236      201.568      109.815       80.894    40629.488    12059.393     6543.861        7.839        2.962      312.212       98.410        0.099      341.705       16.601      856.849
11/14/2013  16:22:00     -337.906      -99.622      -14.947      200.449      126.510       68.038    40179.736    16004.814     4629.226        9.256        3.041      352.285       89.808        0.065      341.732       16.646      856.875
11/14/2013  16:23:00     -352.277     -146.309        5.897      222.540      191.144       94.499    49524.149    36535.992     8930.122       12.025        4.750      381.451      110.415        0.084      341.680       16.558      856.847
11/14/2013  16:24:00     -261.056     -162.708       14.663      235.952      138.831       97.373    55673.538    19274.054     9481.569        8.962        4.221      307.610      104.076        0.114      341.650       16.508      856.812
11/14/2013  16:25:00     -486.395     -298.549      -22.205      255.806      187.726      110.441    65436.692    35240.864    12197.192       21.952        5.644      570.711      123.775        0.047      341.628       16.469      856.795
11/14/2013  16:26:00     -510.279     -207.692      -12.736      247.551      240.086      116.635    61281.634    57641.109    13603.633       21.808        6.626      550.927      121.004        0.048      341.635       16.481      856.774
11/14/2013  16:27:00     -307.159     -223.442       -1.695      203.115      161.462       93.307    41255.599    26069.946     8706.211       11.014        3.802      379.832      101.087        0.071      341.624       16.464      856.796
11/14/2013  16:28:00     -376.523     -155.863        2.744      176.506      218.923       78.777    31154.544    47927.224     6205.789       12.566        4.264      407.509       85.372        0.044      341.584       16.395      856.776
11/14/2013  16:29:00     -302.481     -141.184        7.060      235.742      188.664       94.878    55574.091    35594.263     9001.924       10.580        5.009      333.808      115.539        0.120      341.557       16.350      856.771
11/14/2013  16:30:00     -464.232     -251.011      -30.053      230.095      161.896      110.036    52943.553    26210.403    12108.002       18.532        4.563      527.748      117.148        0.049      341.542       16.322      856.730
11/14/2013  16:31:00     -425.807     -300.778       -8.017      214.597      196.499       92.817    46052.008    38612.029     8615.086       18.254        4.664      521.324      110.716        0.045      341.506       16.261      856.741
11/14/2013  16:32:00     -540.985     -293.321      -29.182      189.202      161.619       82.832    35797.221    26120.549     6861.167       22.415        3.439      615.388       78.896        0.016      341.496       16.245      856.721
11/14/2013  16:33:00     -414.494     -203.368      -14.047      239.559      177.394       87.039    57388.332    31468.582     7575.777       15.488        4.822      461.697      107.983        0.055      341.471       16.203      856.707
11/14/2013  16:34:00     -501.692     -268.664      -15.765      219.704      167.047       96.007    48269.846    27904.714     9217.293       20.474        4.270      569.100       90.869        0.025      341.452       16.171      856.712
11/14/2013  16:35:00     -441.907     -101.452        9.006      203.261      162.594       93.309    41315.198    26436.965     8706.622       14.104        3.823      453.403      101.486        0.050      341.442       16.152      856.690
11/14/2013  16:36:00     -373.061     -243.193      -18.020      252.490      215.472       98.476    63750.966    46428.143     9697.566       15.924        5.994      445.329      123.077        0.076      341.422       16.119      856.704
11/14/2013  16:37:00     -357.753     -195.911        0.404      210.927      199.158       92.554    44490.029    39664.012     8566.312       12.953        4.636      407.883      109.513        0.072      341.397       16.075      856.676
11/14/2013  16:38:00     -450.840     -288.769       -9.316      246.177      188.952       86.059    60603.231    35702.715     7406.124       19.520        5.186      535.392      113.710        0.045      341.366       16.025      856.661
11/14/2013  16:39:00     -407.631     -150.203       -9.738      254.944      217.722      103.964    64996.552    47402.771    10808.609       15.599        6.160      434.424      114.202        0.069      341.371       16.034      856.622
11/14/2013  16:40:00     -458.104     -322.382      -12.583      306.970      211.318      108.603    94230.611    44655.373    11794.705       23.228        7.534      560.169      140.494        0.063      341.343       15.986      856.622
11/14/2013  16:41:00     -500.050     -255.521      -27.543      200.864      168.731      100.831    40346.452    28470.292    10166.876       19.753        3.949      561.552      105.537        0.035      341.333       15.970      856.621
11/14/2013  16:42:00     -297.212     -188.113        1.818      231.452      184.499       97.528    53569.974    34040.046     9511.681       11.040        4.856      351.741      117.238        0.111      341.327       15.960      856.617
11/14/2013  16:43:00     -449.216     -286.496        5.470      248.004      185.253      105.886    61506.022    34318.816    11211.743       19.545        5.352      532.799      128.379        0.058      341.321       15.949      856.603
11/14/2013  16:44:00     -386.661     -168.054      -15.805      237.192      183.126      102.114    56260.205    33535.065    10427.234       13.909        5.011      421.603      129.532        0.094      341.303       15.919      856.616
11/14/2013  16:45:00     -363.255     -232.988       -2.474      198.453      200.682      112.470    39383.654    40273.107    12649.482       13.926        4.615      431.553      124.128        0.083      341.261       15.847      856.603
11/14/2013  16:46:00     -266.740     -114.160       21.637      187.695      172.421       87.182    35229.278    29729.111     7600.720        7.859        3.628      290.143      102.577        0.125      341.288       15.894      856.616
11/14/2013  16:47:00     -387.174     -170.180        0.780      219.667      186.183      114.332    48253.578    34664.048    13071.745       13.741        4.799      422.924      127.989        0.092      341.261       15.847      856.606
11/14/2013  16:48:00     -568.270     -207.268      -18.685      221.388      204.120       96.237    49012.781    41664.937     9261.485       23.307        4.997      604.889      107.679        0.032      341.284       15.886      856.587
11/14/2013  16:49:00     -518.996     -199.106      -31.496      203.724      160.767       82.881    41503.266    25845.991     6869.315       19.209        3.711      555.877       98.751        0.032      341.244       15.819      856.606
11/14/2013  16:50:00     -461.181     -109.155      -10.147      249.736      177.381      105.718    62367.978    31464.027    11176.389       16.484        5.250      473.923      118.652        0.063      341.249       15.828      856.611
11/14/2013  16:51:00     -399.368     -175.854      -21.771      197.663      201.097       89.963    39070.648    40440.033     8093.264       13.923        4.380      436.371       93.342        0.046      341.236       15.805      856.584
11/14/2013  16:52:00     -457.624     -245.134      -15.911      241.198      210.446       85.429    58176.326    44287.517     7298.140       18.974        5.488      519.144      106.871        0.042      341.179       15.710      856.572
11/14/2013  16:53:00     -487.468     -168.713      -33.489      193.707      166.010       81.223    37522.448    27559.324     6597.162       16.943        3.584      515.838       80.294        0.024      341.186       15.723      856.609
11/14/2013  16:54:00     -373.288     -130.695      -14.354      222.013      168.465       88.791    49289.733    28380.555     7883.799       12.108        4.278      395.506       89.013        0.051      341.146       15.652      856.591
11/14/2013  16:55:00     -391.804     -175.753      -21.010      204.155      141.819       88.650    41679.141    20112.651     7858.749       12.723        3.483      429.418       99.394        0.054      341.123       15.615      856.589
11/14/2013  16:56:00     -305.869     -194.466       -1.354      262.915      188.878      129.557    69124.369    35674.978    16785.084       12.646        6.079      362.454      143.532        0.157      341.112       15.596      856.563
11/14/2013  16:57:00     -604.592     -259.980      -32.400      241.065      222.032      101.304    58112.152    49298.400    10262.488       27.590        5.884      658.120      118.426        0.032      341.146       15.653      856.589
11/14/2013  16:58:00     -479.531     -184.409      -14.573      323.490      217.828      118.180   104645.458    47449.124    13966.433       21.508        8.303      513.767      153.520        0.089      341.130       15.626      856.580
11/14/2013  16:59:00     -364.060     -112.208       -9.100      258.417      142.593       95.919    66779.475    20332.810     9200.381       12.074        4.816      380.960      119.656        0.099      341.078       15.539      856.610
11/14/2013  17:00:00     -476.760     -151.599      -23.252      251.124      154.019       92.813    63063.257    23721.829     8614.308       17.309        4.770      500.283      115.200        0.053      341.100       15.576      856.606
11/14/2013  17:01:00     -239.697      -59.830        7.552      204.301      108.492       86.264    41738.959    11770.558     7441.404        6.101        3.048      247.051       99.069        0.161      341.050       15.490      856.573
11/14/2013  17:02:00     -346.552        9.651       -5.777      191.723      112.798       77.863    36757.558    12723.369     6062.718        8.787        2.777      346.686       89.476        0.067      341.034       15.464      856.570
11/14/2013  17:03:00     -402.783      -85.215      -22.672      237.157      175.718       93.105    56243.619    30876.696     8668.505       13.288        4.789      411.699      104.447        0.064      341.020       15.440      856.554
11/14/2013  17:04:00     -310.502      -59.954      -16.647      154.111      121.452       74.337    23750.197    14750.682     5526.041        7.215        2.201      316.237       72.673        0.053      340.996       15.399      856.553
11/14/2013  17:05:00     -261.599      -47.581       16.658      205.847      133.178       91.478    42372.860    17736.419     8368.188        6.971        3.424      265.891      110.549        0.173      340.963       15.343      856.548
11/14/2013  17:06:00     -434.255      -65.540       -0.494      210.618      129.457       77.323    44359.817    16759.017     5978.844       12.997        3.355      439.173       79.670        0.033      340.997       15.402      856.522
11/14/2013  17:07:00     -455.276      -50.829      -24.172      134.469      118.205       81.734    18081.830    13972.472     6680.512       12.458        1.937      458.105       71.063        0.024      340.956       15.330      856.524
11/14/2013  17:08:00     -401.769     -182.898       -8.138      295.440      234.446      119.874    87284.594    54965.084    14369.696       17.575        7.831      441.441      153.596        0.121      340.963       15.343      856.492
11/14/2013  17:09:00     -407.274      -92.577       -8.967      199.520      157.669       86.654    39808.173    24859.437     7508.939       12.334        3.609      417.663       92.578        0.049      340.951       15.324      856.493
11/14/2013  17:10:00     -281.272      -65.733       -4.155      181.773      117.181       80.543    33041.298    13731.365     6487.254        6.835        2.663      288.851       84.256        0.085      340.936       15.297      856.478
11/14/2013  17:11:00     -485.611      -37.498      -16.864      209.889      183.134      105.399    44053.295    33538.200    11109.026       16.309        4.435      487.057      113.658        0.054      340.937       15.298      856.448
11/14/2013  17:12:00     -364.091     -161.362      -18.056      233.191      155.280       78.766    54377.831    24111.746     6204.005       12.179        4.235      398.246       93.238        0.055      340.907       15.249      856.437
11/14/2013  17:13:00     -227.986      -70.285       -6.517      155.206      116.236       80.104    24088.889    13510.794     6416.720        5.048        2.201      238.574       78.977        0.110      340.872       15.192      856.434
11/14/2013  17:14:00     -338.009     -138.026        2.948      234.408      160.274       86.221    54947.039    25687.693     7434.121       11.067        4.403      365.105      101.637        0.077      340.866       15.179      856.422
11/14/2013  17:15:00     -301.245     -165.846        3.510      233.781      175.373      118.064    54653.677    30755.579    13939.141       10.879        4.967      343.880      117.369        0.116      340.861       15.171      856.392
11/14/2013  17:16:00     -331.531      -91.794       10.258      178.118      166.627       88.352    31726.193    27764.707     7806.112        9.286        3.365      344.005       91.043        0.070      340.842       15.137      856.378
11/14/2013  17:17:00     -490.176     -188.400      -56.366      226.390      152.557       98.847    51252.475    23273.717     9770.756       18.160        4.215      525.135      107.478        0.042      340.870       15.186      856.384
11/14/2013  17:18:00     -347.324     -157.587      -30.159      199.864      104.365       87.309    39945.696    10892.058     7622.923       10.241        2.923      381.402      101.302        0.071      340.853       15.157      856.375
11/14/2013  17:19:00     -464.860     -115.839      -24.447      201.956      153.519       80.074    40786.089    23568.069     6411.780       15.042        3.538      479.076       93.558        0.038      340.850       15.152      856.357
11/14/2013  17:20:00     -366.314     -137.275       -4.523      202.286      146.801       82.124    40919.646    21550.445     6744.396       11.112        3.461      391.191       98.287        0.063      340.818       15.098      856.332
11/14/2013  17:21:00     -605.797      -98.139      -36.926      248.812      198.143      107.470    61907.504    39260.552    11549.701       24.533        5.636      613.695      127.535        0.043      340.842       15.139      856.330
11/14/2013  17:22:00     -505.094     -135.739      -16.102      225.685      153.994       88.650    50933.728    23714.213     7858.844       17.814        4.125      523.015       81.744        0.024      340.816       15.094      856.308
11/14/2013  17:23:00     -544.217      -90.986      -23.211      180.399      186.470       84.531    32543.885    34770.882     7145.535       18.971        3.723      551.770       93.602        0.029      340.826       15.110      856.308
11/14/2013  17:24:00     -434.755      -76.700      -19.477      198.556      144.960       85.411    39424.678    21013.391     7294.975       13.149        3.387      441.469       99.767        0.051      340.775       15.025      856.302
11/14/2013  17:25:00     -467.270     -191.573      -29.074      259.833      143.640       90.530    67513.207    20632.412     8195.745       17.609        4.817      505.016      113.110        0.050      340.793       15.056      856.301
11/14/2013  17:26:00     -447.770     -137.894      -35.111      179.576      188.207       88.861    32247.617    35421.954     7896.342       14.814        3.778      468.521       85.576        0.033      340.799       15.067      856.294
11/14/2013  17:27:00     -385.888     -148.932      -13.408      170.371      141.787       76.972    29026.139    20103.673     5924.672       11.315        2.753      413.631       71.777        0.030      340.766       15.010      856.310
11/14/2013  17:28:00     -327.981      -44.627      -13.737      133.162      137.357       64.204    17732.094    18866.889     4122.196        7.523        2.036      331.003       65.646        0.039      340.734       14.956      856.323
11/14/2013  17:29:00     -290.074       17.213       13.314      263.007      111.186       86.788    69172.474    12362.237     7532.240        8.682        4.453      290.584      113.190        0.152      340.696       14.893      856.314
11/14/2013  17:30:00     -251.722     -142.007       -8.724      177.287      177.153       85.717    31430.683    31383.066     7347.322        7.687        3.508      289.016       84.617        0.086      340.689       14.880      856.304
11/14/2013  17:31:00     -562.202     -143.377      -44.626      189.034      179.144       87.533    35734.031    32092.723     7661.997       20.704        3.774      580.197       85.754        0.022      340.724       14.939      856.298
11/14/2013  17:32:00     -399.456     -133.965       -6.913      161.035      135.296       74.528    25932.268    18305.080     5554.428       11.367        2.490      421.321       83.095        0.039      340.696       14.891      856.318
11/14/2013  17:33:00     -201.769      -74.240       -4.801      168.447      147.042       77.607    28374.233    21621.479     6022.887        5.112        2.801      214.993       64.866        0.091      340.658       14.828      856.317
11/14/2013  17:34:00     -328.107      -53.619        4.282      188.949      193.708       92.392    35701.619    37522.900     8536.198        9.614        4.088      332.459       99.758        0.090      340.676       14.858      856.311
11/14/2013  17:35:00     -504.709      -87.400      -19.879      233.511      207.786       97.724    54527.314    43174.971     9549.914       18.499        5.363      512.221      110.498        0.047      340.715       14.924      856.311
11/14/2013  17:36:00     -670.639      -78.769      -56.788      256.728      183.589      100.341    65909.084    33704.955    10068.220       28.441        5.484      675.249      114.936        0.029      340.732       14.953      856.290
11/14/2013  17:37:00     -492.405     -165.286       -7.840      214.991      198.304       96.393    46220.972    39324.392     9291.661       18.232        4.742      519.406      101.425        0.038      340.726       14.944      856.291
11/14/2013  17:38:00     -411.196     -173.528        0.517      269.280      244.236      110.658    72511.508    59651.241    12245.210       17.177        7.220      446.312      129.429        0.084      340.728       14.947      856.279
11/14/2013  17:39:00     -285.739     -150.974      -11.768      228.782      195.909      113.326    52341.108    38380.289    12842.826       10.405        5.178      323.172       97.739        0.091      340.726       14.943      856.239
11/14/2013  17:40:00     -391.779     -186.001       -6.807      238.966      165.931       94.186    57104.921    27533.171     8871.019       14.080        4.675      433.690      109.822        0.064      340.703       14.902      856.229
11/14/2013  17:41:00     -436.096     -218.131      -12.549      249.228      175.099       96.588    62114.540    30659.574     9329.164       16.999        5.105      487.607      103.648        0.045      340.689       14.878      856.233
11/14/2013  17:42:00     -452.903     -190.739      -26.873      180.389      173.621       83.627    32540.039    30144.161     6993.458       15.594        3.484      491.429       75.613        0.024      340.691       14.883      856.233
11/14/2013  17:43:00     -324.544     -142.715       -7.287      270.077      214.589      126.764    72941.502    46048.377    16069.163       13.038        6.753      354.537      143.090        0.163      340.664       14.838      856.232
11/14/2013  17:44:00     -501.956     -247.426      -14.704      312.571      228.822      126.978    97700.454    52359.399    16123.426       23.976        8.309      559.624      155.563        0.077      340.710       14.916      856.191
11/14/2013  17:45:00     -579.801     -238.974      -39.053      257.810      257.096      129.049    66466.194    66098.537    16653.671       27.198        7.461      627.118      127.711        0.041      340.696       14.891      856.221
11/14/2013  17:46:00     -428.861     -175.624        3.057      288.187      198.372      124.665    83051.493    39351.392    15541.255       17.633        6.897      463.428      120.545        0.068      340.695       14.890      856.233
11/14/2013  17:47:00     -516.638     -140.242       -6.520      259.687      177.272      116.956    67437.545    31425.443    13678.766       19.956        5.627      535.335      127.327        0.057      340.677       14.859      856.236
11/14/2013  17:48:00     -466.529     -268.299      -12.683      295.016      241.152      127.660    87034.564    58154.084    16297.135       22.561        8.074      538.176      143.151        0.071      340.677       14.860      856.231
11/14/2013  17:49:00     -382.388     -216.263      -11.957      225.719      182.010      118.151    50948.922    33127.519    13959.681       14.557        4.902      439.307      116.602        0.070      340.647       14.810      856.227
11/14/2013  17:50:00     -683.020     -285.771      -19.982      293.899      226.404      124.952    86376.781    51258.664    15613.048       35.088        7.662      740.392      143.391        0.038      340.645       14.805      856.198
11/14/2013  17:51:00     -443.510     -183.700      -16.103      180.964      199.161       87.930    32747.879    39664.957     7731.757       15.541        4.007      480.049       80.291        0.028      340.603       14.733      856.232
11/14/2013  17:52:00     -368.313     -141.206        4.004      252.276      183.712      100.664    63642.973    33749.917    10133.167       13.155        5.376      394.453      110.708        0.079      340.560       14.663      856.223
11/14/2013  17:53:00     -541.963     -181.707       -7.037      350.664      220.599      121.696   122965.078    48663.873    14809.930       25.658        9.322      571.613      148.041        0.067      340.575       14.687      856.212
11/14/2013  17:54:00     -392.164     -209.725      -10.244      274.239      192.952      125.975    75206.945    37230.448    15869.607       16.307        6.415      444.721      136.712        0.095      340.553       14.648      856.156
11/14/2013  17:55:00     -609.674     -146.881      -20.711      339.552      212.819      112.787   115295.688    45292.133    12720.953       28.347        8.665      627.118      137.840        0.048      340.528       14.607      856.172
11/14/2013  17:56:00     -200.842     -212.508       17.378      257.191      182.583      122.392    66147.236    33336.495    14979.757       10.011        5.723      292.399      134.851        0.213      340.513       14.583      856.156
11/14/2013  17:57:00     -373.201     -265.963      -21.123      312.887      206.387      114.041    97898.236    42595.391    13005.380       18.195        7.675      458.274      138.318        0.091      340.546       14.637      856.145
11/14/2013  17:58:00     -478.125     -191.405      -30.300      236.278      195.253      110.308    55827.170    38123.698    12167.877       18.612        5.306      515.014      112.900        0.048      340.519       14.592      856.154
11/14/2013  17:59:00     -334.225     -257.873       15.449      285.358      217.236      122.768    81429.175    47191.399    15072.094       16.104        7.185      422.144      141.094        0.112      340.468       14.506      856.134
11/14/2013  18:00:00     -283.766     -120.613        2.621      210.051      186.018       90.967    44121.340    34602.641     8275.039        9.102        4.350      308.335       94.980        0.095      340.459       14.491      856.125
11/14/2013  18:01:00     -413.921     -252.248      -13.826      174.691      139.333       80.496    30516.778    19413.611     6479.617       14.577        2.821      484.726       83.729        0.030      340.434       14.448      856.125
11/14/2013  18:02:00     -309.338     -188.473        0.728      191.008      190.505       93.661    36484.234    36292.133     8772.371       10.636        4.077      362.232      105.519        0.085      340.378       14.356      856.109
11/14/2013  18:03:00     -450.955     -176.408       -7.216      292.325      225.864      122.260    85453.888    51014.564    14947.499       19.294        7.571      484.232      138.294        0.082      340.383       14.363      856.103
11/14/2013  18:04:00     -381.855     -264.315      -13.814      197.436      149.725       95.817    38980.971    22417.510     9180.819       14.321        3.529      464.409       98.038        0.045      340.348       14.304      856.097
11/14/2013  18:05:00     -324.173     -108.828        4.092      262.891      171.266       99.242    69111.844    29331.908     9849.012       11.260        5.415      341.953      119.352        0.122      340.330       14.273      856.063
11/14/2013  18:06:00     -414.263     -195.699       -0.472      283.647      203.963      123.862    80455.615    41601.103    15341.736       17.363        6.870      458.161      131.527        0.082      340.326       14.266      856.037
11/14/2013  18:07:00     -431.333     -263.115      -16.924      206.441      203.593      103.375    42617.936    41450.138    10686.492       17.514        4.738      505.250      107.033        0.045      340.400       14.391      856.050
11/14/2013  18:08:00     -427.047     -212.342       -5.977      270.671      175.253      100.638    73262.608    30713.721    10128.097       17.078        5.705      476.926      120.504        0.064      340.357       14.320      856.068
11/14/2013  18:09:00     -530.963     -202.072      -15.984      227.520      186.883       95.565    51765.376    34925.128     9132.708       20.940        4.791      568.115      110.411        0.038      340.357       14.318      856.059
11/14/2013  18:10:00     -292.166     -142.494       -5.038      253.161      183.253      107.486    64090.600    33581.552    11553.133       10.744        5.461      325.062      118.032        0.132      340.310       14.241      856.042
11/14/2013  18:11:00     -275.834     -129.225       12.623      200.575      157.579       85.512    40230.280    24831.040     7312.331        8.264        3.619      304.604       95.292        0.098      340.299       14.221      856.049
11/14/2013  18:12:00     -436.611     -357.096      -16.608      180.617      150.728       94.509    32622.591    22719.071     8931.918       19.133        3.214      564.045       88.496        0.025      340.298       14.219      856.050
11/14/2013  18:13:00     -358.139     -179.758      -23.602      198.129      139.232       97.030    39255.287    19385.430     9414.842       11.458        3.403      400.720      100.353        0.063      340.285       14.195      856.017
11/14/2013  18:14:00     -403.721     -247.712        0.415      268.687      198.035      105.094    72192.485    39217.812    11044.802       17.338        6.123      473.658      116.090        0.060      340.287       14.200      856.007
11/14/2013  18:15:00     -298.852     -118.179       15.406      240.656      157.328      103.476    57915.293    24752.170    10707.242        9.843        4.669      321.370      131.932        0.169      340.268       14.168      856.025
11/14/2013  18:16:00     -310.549      -85.042        2.315      201.080      197.449       96.925    40433.187    38986.148     9394.519        9.623        4.441      321.983      108.846        0.114      340.268       14.168      856.034
11/14/2013  18:17:00     -448.598     -199.023      -26.896      276.751      189.314      110.235    76591.263    35839.754    12151.833       18.305        6.229      490.765      116.279        0.056      340.283       14.194      856.011
11/14/2013  18:18:00     -461.705     -222.201      -14.824      233.127      185.455       99.619    54348.134    34393.569     9923.880       18.070        4.933      512.392      115.074        0.050      340.267       14.166      855.995
11/14/2013  18:19:00     -259.994     -104.048       -5.073      190.214      163.988       94.846    36181.186    26892.037     8995.821        7.524        3.603      280.041       93.143        0.111      340.228       14.101      855.987
11/14/2013  18:20:00     -324.502     -178.478       -8.072      222.251      166.357       97.576    49395.353    27674.669     9521.084       11.189        4.330      370.346      108.028        0.085      340.188       14.033      855.978
11/14/2013  18:21:00     -672.527     -200.708      -41.769      216.288      180.498       99.671    46780.543    32579.633     9934.322       29.179        4.465      701.837      102.680        0.021      340.224       14.093      855.995
11/14/2013  18:22:00     -342.385     -163.324        5.742      180.533      159.571       91.347    32592.160    25462.956     8344.250       10.515        3.320      379.344       95.490        0.063      340.178       14.016      855.978
11/14/2013  18:23:00     -340.156     -156.135      -11.162      214.516      177.986       97.067    46017.129    31679.082     9421.962       11.365        4.356      374.278      110.611        0.087      340.170       14.003      855.964
11/14/2013  18:24:00     -368.712     -197.785       -1.487      231.643      188.870      101.525    53658.376    35671.972    10307.282       13.733        4.982      418.410      115.219        0.076      340.185       14.029      855.951
11/14/2013  18:25:00     -416.370      -91.136        5.076      203.036      210.370      102.320    41223.455    44255.355    10469.456       13.880        4.797      426.228      110.662        0.067      340.222       14.089      855.943
11/14/2013  18:26:00     -199.390     -131.859       21.264      203.951      170.080      105.871    41596.209    28927.332    11208.687        6.965        4.087      239.047      106.053        0.197      340.215       14.078      855.937
11/14/2013  18:27:00     -332.424     -170.831       -8.437      215.646      202.418      104.709    46503.024    40973.178    10964.011       11.908        4.922      373.749       99.393        0.071      340.261       14.155      855.916
11/14/2013  18:28:00     -307.528     -175.525       -6.495      244.829      202.547      108.385    59941.010    41025.275    11747.410       11.905        5.636      354.094      123.299        0.121      340.272       14.174      855.916
11/14/2013  18:29:00     -425.567     -186.930      -17.563      229.741      151.075      102.113    52781.070    22823.695    10427.091       15.118        4.302      464.812      113.545        0.060      340.294       14.211      855.924
11/14/2013  18:30:00     -284.934     -154.166        5.810      188.437      168.065       97.357    35508.375    28245.717     9478.297        8.910        3.662      323.967       91.830        0.080      340.226       14.097      855.936
11/14/2013  18:31:00     -346.094     -209.093       -6.156      229.194      191.936      104.058    52529.822    36839.377    10827.991       13.185        5.010      404.353      112.285        0.077      340.246       14.129      855.943
11/14/2013  18:32:00     -393.642     -210.867      -22.368      216.282      194.251      107.754    46778.016    37733.408    11611.000       14.800        4.806      446.564      106.399        0.057      340.274       14.179      855.933
11/14/2013  18:33:00     -426.738     -239.884      -29.297      294.002      196.455      115.679    86436.954    38594.589    13381.668       18.943        6.921      489.540      154.971        0.100      340.251       14.139      855.948
11/14/2013  18:34:00     -405.668     -205.264      -14.050      233.946      202.669      116.762    54730.776    41074.840    13633.366       15.815        5.472      454.642      110.707        0.059      340.249       14.135      855.941
11/14/2013  18:35:00     -412.421     -136.462       -4.268      256.925      202.348       87.712    66010.245    40944.763     7693.408       15.167        5.732      434.411      102.382        0.056      340.210       14.071      855.935
11/14/2013  18:36:00     -389.369     -272.582       -3.694      229.912      176.703      104.381    52859.549    31224.048    10895.373       16.043        4.749      475.299      113.377        0.057      340.187       14.031      855.928
11/14/2013  18:37:00     -509.186     -217.830      -15.557      214.643      171.881       89.670    46071.598    29542.912     8040.679       19.529        4.183      553.823       91.745        0.027      340.198       14.049      855.939
11/14/2013  18:38:00     -320.814     -237.282        3.110      276.572      233.231      118.828    76491.939    54396.755    14120.025       15.209        7.250      399.029      129.661        0.106      340.209       14.068      855.930
11/14/2013  18:39:00     -577.404     -142.181      -26.996      218.627      149.090      108.388    47797.806    22227.778    11747.912       21.804        4.089      594.652       99.882        0.028      340.218       14.082      855.962
11/14/2013  18:40:00     -393.571     -171.848      -11.616      242.951      175.938       82.381    59025.431    30954.340     6786.669       14.065        4.838      429.453      113.839        0.070      340.215       14.078      856.002
11/14/2013  18:41:00     -466.272     -164.878      -24.229      212.508      168.903       97.463    45159.559    28528.231     9499.087       16.417        4.159      494.565       91.957        0.035      340.232       14.108      855.986
11/14/2013  18:42:00     -306.778     -162.253        5.690      248.260      182.400      117.826    61633.121    33269.709    13882.950       11.461        5.439      347.043      134.691        0.151      340.240       14.121      856.001
11/14/2013  18:43:00     -397.125     -244.485      -18.892      283.063      178.116       95.767    80124.483    31725.258     9171.355       16.941        6.051      466.349      112.034        0.058      340.265       14.164      856.006
11/14/2013  18:44:00     -387.688     -183.406      -23.102      170.036      138.411       76.973    28912.224    19157.498     5924.851       11.922        2.700      428.882       73.501        0.029      340.261       14.157      856.004
11/14/2013  18:45:00     -224.848      -96.899       13.318      152.956      138.235       80.765    23395.626    19108.963     6523.043        5.457        2.451      244.839       80.154        0.107      340.218       14.083      856.029
11/14/2013  18:46:00     -494.837     -161.254      -24.629      227.213      152.816       86.327    51625.590    23352.586     7452.410       17.694        4.122      520.448      102.399        0.039      340.223       14.092      856.042
11/14/2013  18:47:00     -304.363     -155.115       -7.264      216.840      144.019       91.975    47019.640    20741.564     8459.339        9.647        3.811      341.610      107.977        0.100      340.183       14.024      856.032
11/14/2013  18:48:00     -425.625     -123.799       -9.607      253.015      147.020       94.370    64016.375    21614.831     8905.686       14.554        4.727      443.264      110.602        0.062      340.150       13.969      856.025
11/14/2013  18:49:00     -475.234     -237.602       -1.135      234.113      231.090      122.390    54808.773    53402.797    14979.276       20.272        6.160      531.321      117.511        0.049      340.192       14.039      856.003
11/14/2013  18:50:00     -525.294     -111.730      -44.911      267.021      147.642       89.228    71300.395    21798.266     7961.708       19.573        5.053      537.045      118.679        0.049      340.235       14.112      855.995
11/14/2013  18:51:00     -515.982     -119.070      -18.840      289.326      161.823      116.707    83709.537    26186.532    13620.495       20.212        6.176      529.542      123.401        0.054      340.226       14.096      855.980
11/14/2013  18:52:00     -347.279     -107.902      -27.433      199.341      154.213       70.259    39736.859    23781.637     4936.372       10.071        3.423      363.655       72.808        0.040      340.209       14.069      855.991
11/14/2013  18:53:00     -341.811      -59.969       -5.788      199.657      145.013       78.652    39862.983    21028.782     6186.164        9.376        3.354      347.032       84.270        0.059      340.157       13.980      855.971
11/14/2013  18:54:00     -178.643      -74.850        2.828      138.816      122.911       76.366    19269.820    15107.167     5831.691        3.886        2.010      193.690       72.268        0.139      340.110       13.903      855.962
11/14/2013  18:55:00     -385.829     -115.943       -2.988      238.861      170.592       88.615    57054.546    29101.668     7852.684       12.814        4.700      402.873      116.492        0.084      340.105       13.893      855.938
11/14/2013  18:56:00     -280.793     -120.840       -4.453      242.532      148.005      100.947    58821.621    21905.447    10190.364        9.217        4.546      305.691      113.883        0.139      340.088       13.865      855.946
11/14/2013  18:57:00     -335.185     -174.134        2.992      258.248      232.491      121.166    66692.073    54052.050    14681.251       13.903        6.771      377.719      126.064        0.111      340.115       13.909      855.910
11/14/2013  18:58:00     -368.113     -278.553       -5.900      258.701      245.962      136.573    66926.069    60497.332    18652.285       17.958        7.304      461.626      142.167        0.095      340.111       13.903      855.906
11/14/2013  18:59:00     -426.330     -340.465      -22.237      224.793      189.817      110.458    50531.829    36030.410    12200.896       19.845        4.938      545.595      115.783        0.045      340.089       13.865      855.866
11/14/2013  19:00:00     -350.203     -159.730       11.415      238.905      195.508      119.807    57075.831    38223.419    14353.813       12.895        5.483      384.910      135.296        0.124      340.053       13.805      855.903
11/14/2013  19:01:00     -439.219     -202.952      -24.353      142.524      176.518       78.357    20313.232    31158.760     6139.794       14.614        2.881      483.842       75.579        0.024      340.025       13.756      855.894
11/14/2013  19:02:00     -500.435     -260.683      -18.557      338.119      232.718      116.579   114324.726    54157.868    13590.778       25.037        9.104      564.262      129.274        0.052      340.036       13.775      855.841
11/14/2013  19:03:00     -383.665     -168.261       -8.607      269.537      177.533      114.021    72650.425    31517.921    13000.776       14.635        5.858      418.940      122.898        0.086      340.025       13.757      855.837
11/14/2013  19:04:00     -404.563     -224.715      -35.280      248.624      238.485      123.687    61813.712    56875.019    15298.507       17.467        6.699      462.783      124.951        0.073      340.056       13.808      855.826
11/14/2013  19:05:00     -330.257     -185.592       -8.695      237.007      180.208      101.173    56172.385    32475.022    10236.011       12.122        4.944      378.832      116.545        0.095      340.043       13.787      855.809
11/14/2013  19:06:00     -443.113     -173.161      -30.501      287.149      205.845       95.532    82454.411    42372.340     9126.419       18.058        6.698      475.745       99.911        0.044      340.012       13.735      855.834
11/14/2013  19:07:00     -600.078     -264.169      -35.489      192.933      218.355      102.746    37222.959    47678.790    10556.797       26.328        4.773      655.651      100.966        0.024      340.014       13.738      855.846
11/14/2013  19:08:00     -209.410      -91.646       25.058      200.726      134.879       88.996    40291.021    18192.398     7920.299        5.963        3.320      228.586      109.270        0.229      339.925       13.590      855.861
11/14/2013  19:09:00     -276.672     -140.288      -10.892      182.454      174.954       88.642    33289.462    30608.882     7857.458        8.404        3.588      310.207       86.502        0.078      339.923       13.586      855.860
11/14/2013  19:10:00     -378.893     -118.622      -42.243      166.553      159.381       76.863    27739.805    25402.199     5907.866       10.922        2.952      397.027       80.389        0.041      339.929       13.595      855.844
11/14/2013  19:11:00     -254.309     -166.763        3.694      154.048      131.607       74.905    23730.759    17320.462     5610.817        6.957        2.333      304.110       67.288        0.049      339.869       13.494      855.884
11/14/2013  19:12:00     -319.748      -76.655        6.060      187.978      171.633       96.240    35335.872    29457.717     9262.045        9.109        3.703      328.809      100.919        0.094      339.843       13.450      855.858
11/14/2013  19:13:00     -419.375     -146.075      -11.482      235.145      160.645       96.808    55292.941    25806.859     9371.811       14.389        4.524      444.087      112.374        0.064      339.879       13.510      855.829
11/14/2013  19:14:00     -297.487     -247.620      -16.480      160.867      147.302       78.030    25878.173    21697.986     6088.663       10.186        2.683      387.058       75.933        0.038      339.868       13.491      855.809
11/14/2013  19:15:00     -436.897     -199.227      -21.733      193.846      171.698       99.212    37576.343    29480.055     9843.066       15.396        3.845      480.178       93.587        0.038      339.856       13.470      855.760
11/14/2013  19:16:00     -362.413     -125.314      -19.228      201.579      143.991       78.597    40634.047    20733.387     6177.427       10.747        3.377      383.467       93.380        0.059      339.807       13.391      855.772
11/14/2013  19:17:00     -425.953     -199.660      -23.386      226.037      159.931       92.674    51092.673    25577.972     8588.504       15.354        4.263      470.426      111.968        0.057      339.819       13.411      855.749
11/14/2013  19:18:00     -398.714     -185.036      -30.353      239.010      154.856       92.112    57125.768    23980.239     8484.583       14.184        4.480      439.558      106.052        0.058      339.818       13.409      855.758
11/14/2013  19:19:00     -423.584     -259.470      -17.244      209.348      158.622       97.684    43826.667    25161.021     9542.145       16.277        3.926      496.738       93.591        0.035      339.826       13.422      855.732
11/14/2013  19:20:00     -431.664     -304.215        0.071      241.368      188.641      120.301    58258.483    35585.556    14472.269       19.358        5.416      528.092      125.715        0.057      339.845       13.454      855.696
11/14/2013  19:21:00     -461.762     -137.987      -22.308      188.929      152.146       75.743    35694.133    23148.257     5736.954       14.866        3.229      481.938       86.422        0.032      339.834       13.434      855.727
11/14/2013  19:22:00     -439.379     -139.631      -17.415      197.058      180.441       98.451    38831.696    32558.926     9692.577       14.695        4.054      461.032      110.335        0.057      339.840       13.446      855.736
11/14/2013  19:23:00     -213.896     -146.679       -2.613      204.233      194.817      104.887    41710.972    37953.749    11001.362        7.895        4.533      259.357      121.188        0.218      339.842       13.450      855.701
11/14/2013  19:24:00     -404.133     -106.397      -16.084      236.687      145.049       77.851    56020.863    21039.214     6060.856       12.900        4.156      417.904      102.653        0.060      339.830       13.428      855.697
11/14/2013  19:25:00     -381.727     -142.837       -7.632      244.564      164.006      105.626    59811.653    26897.856    11156.777       13.200        4.893      407.576      119.951        0.087      339.800       13.379      855.690
11/14/2013  19:26:00     -365.199      -87.204      -14.582      206.195      154.862       86.705    42516.191    23982.267     7517.740       10.759        3.701      375.466      102.395        0.074      339.777       13.339      855.685
11/14/2013  19:27:00     -264.199     -129.152        4.384      172.199      142.044       71.830    29652.514    20176.481     5159.613        7.073        2.749      294.077       78.284        0.071      339.762       13.316      855.660
11/14/2013  19:28:00     -220.544     -107.118        5.518      242.702      155.468       91.183    58904.195    24170.291     8314.430        7.575        4.569      245.182      119.793        0.239      339.759       13.311      855.645
11/14/2013  19:29:00     -378.010     -101.952      -17.024      193.891      139.395       79.122    37593.710    19430.907     6260.326       10.842        3.164      391.517       73.470        0.035      339.755       13.302      855.632
11/14/2013  19:30:00     -374.852     -201.363       -1.584      185.469      160.994       91.233    34398.909    25919.208     8323.408       12.484        3.432      425.513       88.876        0.044      339.783       13.349      855.625
11/14/2013  19:31:00     -347.852     -187.738       -4.270      172.947      195.504       95.273    29910.810    38221.715     9076.903       11.672        3.860      395.280      107.898        0.075      339.807       13.391      855.598
11/14/2013  19:32:00     -373.370     -223.171       11.126      259.027      147.846       96.885    67094.996    21858.406     9386.761       14.382        4.917      434.984      117.436        0.073      339.822       13.414      855.625
11/14/2013  19:33:00     -241.491     -137.037      -12.155      204.524      118.660       72.917    41829.903    14080.273     5316.866        6.922        3.061      277.663       75.003        0.073      339.782       13.349      855.625
11/14/2013  19:34:00     -327.562     -253.577       -3.254      252.846      192.882      115.588    63931.077    37203.599    13360.603       14.303        5.725      414.244      130.360        0.099      339.789       13.360      855.605
11/14/2013  19:35:00     -355.095     -209.384      -13.942      199.432      158.688       88.003    39773.068    25181.952     7744.590       12.140        3.635      412.231       95.982        0.054      339.772       13.331      855.603
11/14/2013  19:36:00     -361.728     -153.922       -7.134      190.078      142.924       75.697    36129.784    20427.338     5730.056       10.843        3.114      393.115       91.191        0.054      339.730       13.262      855.596
11/14/2013  19:37:00     -273.214     -216.572       -2.980      194.383      171.737       85.860    37784.932    29493.561     7372.016        9.809        3.733      348.639       96.573        0.077      339.736       13.271      855.588
11/14/2013  19:38:00     -350.017     -184.801      -14.495      235.683      124.388       91.757    55546.413    15472.399     8419.257       11.814        3.972      395.807      104.788        0.070      339.737       13.274      855.541
11/14/2013  19:39:00     -235.508      -98.478        6.426      209.745      123.664       76.614    43992.932    15292.773     5869.738        6.517        3.258      255.269       93.022        0.133      339.685       13.185      855.542
11/14/2013  19:40:00     -366.634     -121.493      -10.895      165.036      121.912       76.915    27236.846    14862.458     5915.869        9.865        2.401      386.240       70.737        0.034      339.667       13.153      855.528
11/14/2013  19:41:00     -324.204     -158.305        9.909      242.877      179.532      103.049    58989.468    32231.581    10619.113       11.603        5.092      360.789      122.645        0.116      339.683       13.182      855.502
11/14/2013  19:42:00     -291.778     -177.402       -1.050      182.882      143.268       87.905    33445.662    20525.811     7727.249        8.914        3.085      341.476      103.535        0.092      339.648       13.123      855.491
11/14/2013  19:43:00     -313.220     -151.199      -11.501      153.455      138.674       79.349    23548.360    19230.341     6296.287        8.508        2.454      347.805       85.592        0.061      339.643       13.113      855.482
11/14/2013  19:44:00     -232.431      -91.348       -6.362      138.273      108.162       74.163    19119.463    11698.992     5500.199        4.936        1.816      249.737       61.013        0.060      339.619       13.074      855.473
11/14/2013  19:45:00     -221.203     -116.344       13.922      144.712      130.949       75.654    20941.555    17147.582     5723.598        5.323        2.191      249.933       68.108        0.074      339.607       13.054      855.456
11/14/2013  19:46:00     -247.413     -117.557        1.654      121.577       97.748       66.425    14780.930     9554.709     4412.314        5.189        1.437      273.921       62.301        0.052      339.555       12.964      855.462
11/14/2013  19:47:00     -246.100      -77.823       17.456      278.539      143.885       98.425    77584.149    20702.806     9687.407        8.743        5.399      258.111      136.447        0.279      339.594       13.031      855.448
11/14/2013  19:48:00     -268.624     -105.562       -7.300      150.799      123.494       68.116    22740.283    15250.855     4639.808        6.298        2.132      288.621       62.919        0.048      339.603       13.047      855.463
11/14/2013  19:49:00     -434.628     -131.041      -10.468      233.616      166.654       81.881    54576.660    27773.631     6704.487       14.760        4.453      453.953       80.177        0.031      339.588       13.022      855.473
11/14/2013  19:50:00     -350.874     -120.744        2.938      191.549      158.455       84.163    36691.205    25108.095     7083.468       10.328        3.444      371.068       92.078        0.062      339.596       13.034      855.459
11/14/2013  19:51:00     -318.864     -140.727       -8.676      193.495      141.856       76.557    37440.463    20123.210     5860.932        9.248        3.171      348.537       89.896        0.067      339.587       13.021      855.475
11/14/2013  19:52:00     -211.188      -91.279       -0.441      131.702       97.090       65.770    17345.315     9426.496     4325.717        4.201        1.555      230.070       52.500        0.052      339.555       12.966      855.473
11/14/2013  19:53:00     -334.732     -135.028      -31.476      189.217      125.282       72.942    35803.053    15695.613     5320.543        9.403        2.841      360.941       72.343        0.040      339.562       12.977      855.461
11/14/2013  19:54:00     -388.374     -223.611      -14.200      165.323      139.414       75.069    27331.601    19436.298     5635.314       12.671        2.620      448.148       66.139        0.022      339.542       12.943      855.468
11/14/2013  19:55:00     -219.419     -141.240       -7.399      153.890      109.963       68.560    23682.038    12091.971     4700.493        5.430        2.024      260.947       76.827        0.087      339.522       12.910      855.487
11/14/2013  19:56:00     -208.869     -108.043       17.325      231.133      164.165      104.709    53422.485    26950.030    10963.911        7.345        4.567      235.158      121.715        0.268      339.532       12.927      855.456
11/14/2013  19:57:00     -233.381     -191.438       -4.311      196.006      157.398       97.797    38418.208    24773.978     9564.237        8.193        3.638      301.853       89.100        0.087      339.533       12.929      855.421
11/14/2013  19:58:00     -246.996     -190.191        4.555      186.050      150.754       89.531    34614.542    22726.851     8015.861        8.127        3.268      311.736      101.502        0.106      339.523       12.911      855.419
11/14/2013  19:59:00     -209.788     -163.866      -10.515      181.127      137.210       90.334    32806.937    18826.707     8160.281        6.537        2.990      266.201       95.929        0.130      339.542       12.944      855.389
11/14/2013  20:00:00     -370.381     -189.236       -5.248      211.370      153.327       89.225    44677.154    23509.091     7961.089       12.457        3.807      415.923      104.541        0.063      339.554       12.964      855.392
11/14/2013  20:01:00     -316.025     -188.031       -7.004      163.661      156.756       79.244    26785.049    24572.328     6279.636        9.645        2.882      367.733       76.784        0.044      339.523       12.911      855.390
11/14/2013  20:02:00     -312.401     -114.485      -12.709      154.925      123.876       72.585    24001.718    15345.245     5268.542        7.773        2.231      332.718       54.199        0.027      339.522       12.911      855.371
11/14/2013  20:03:00     -405.983     -198.930      -21.672      231.597      143.152       89.493    53637.127    20492.358     8009.018       14.349        4.107      452.101       81.563        0.033      339.560       12.973      855.402
11/14/2013  20:04:00     -325.193     -157.249        2.859      231.852      152.936       90.944    53755.356    23389.405     8270.882       10.793        4.271      361.217      110.596        0.094      339.559       12.972      855.402
11/14/2013  20:05:00     -217.556     -132.035       13.991      206.045      149.969       99.084    42454.671    22490.659     9817.711        6.985        3.738      254.487      108.156        0.181      339.533       12.928      855.411
11/14/2013  20:06:00     -396.756     -250.763      -21.125      209.541      143.999       92.578    43907.562    20735.653     8570.745       14.696        3.661      469.359       96.481        0.042      339.557       12.967      855.423
11/14/2013  20:07:00     -297.132     -241.326      -13.282      228.988      163.025       95.666    52435.428    26577.134     9151.958       11.742        4.408      382.786       90.921        0.056      339.543       12.944      855.402
11/14/2013  20:08:00     -273.046     -152.281        8.221      188.774      133.804       90.482    35635.773    17903.549     8186.980        7.976        3.086      312.640       95.642        0.094      339.497       12.867      855.409
11/14/2013  20:09:00     -358.147     -200.010      -10.382      212.923      161.013       98.005    45336.146    25925.098     9604.953       12.461        4.043      410.211      111.239        0.074      339.513       12.895      855.409
11/14/2013  20:10:00     -325.704     -248.740      -23.835      200.412      172.215       87.545    40164.858    29658.150     7664.198       12.299        3.874      409.823      104.404        0.065      339.507       12.882      855.435
11/14/2013  20:11:00     -439.645     -247.832      -14.967      186.449      146.220      103.783    34763.359    21380.193    10771.003       16.091        3.346      504.686       97.659        0.037      339.497       12.868      855.437
11/14/2013  20:12:00     -383.467     -181.863      -18.246      199.377      158.193       94.979    39751.249    25025.035     9020.957       12.711        3.690      424.406      107.265        0.064      339.496       12.865      855.424
11/14/2013  20:13:00     -347.119     -193.822       -9.254      216.885      174.345       95.582    47039.067    30396.079     9135.878       12.234        4.329      397.566      113.983        0.082      339.471       12.822      855.423
11/14/2013  20:14:00     -309.468     -103.453        0.275      215.330      144.649       92.463    46366.859    20923.350     8549.382        9.114        3.792      326.302      110.205        0.114      339.468       12.817      855.403
11/14/2013  20:15:00     -355.186     -194.727      -11.748      195.317      168.619       89.504    38148.916    28432.517     8011.008       11.939        3.730      405.062       96.938        0.057      339.451       12.790      855.423
11/14/2013  20:16:00     -320.302     -156.727        4.262      213.851      149.592       88.365    45732.342    22377.738     7808.297       10.153        3.796      356.590      105.971        0.088      339.418       12.734      855.423
11/14/2013  20:17:00     -352.157     -123.043       -9.106      191.764      181.339       87.450    36773.241    32883.875     7647.421       10.826        3.865      373.034       89.086        0.057      339.398       12.701      855.440
11/14/2013  20:18:00     -332.314     -199.054      -15.058      199.670      167.765       92.330    39867.911    28145.236     8524.774       11.339        3.827      387.369      101.325        0.068      339.397       12.699      855.448
11/14/2013  20:19:00     -319.424     -212.694        7.067      201.635      179.016       96.895    40656.492    32046.605     9388.662       11.469        4.105      383.758      107.689        0.079      339.385       12.680      855.442
11/14/2013  20:20:00     -368.334     -231.301      -13.759      164.730      139.904       76.006    27136.067    19573.192     5776.914       12.091        2.624      434.937       80.956        0.035      339.375       12.663      855.438
11/14/2013  20:21:00     -313.739     -160.071      -24.125      124.401      138.026       70.462    15475.559    19051.285     4964.963        8.206        1.975      352.214       64.908        0.034      339.364       12.645      855.419
11/14/2013  20:22:00      -97.798      -79.627       17.049      129.933      110.207       73.364    16882.641    12145.554     5382.319        2.530        1.721      126.115       74.145        0.346      339.307       12.548      855.431
11/14/2013  20:23:00     -275.056     -177.432       -3.614      148.191      122.721       74.611    21960.474    15060.436     5566.779        7.486        2.129      327.320       85.047        0.068      339.321       12.572      855.420
11/14/2013  20:24:00     -276.109     -173.878      -13.794      161.281      153.224       86.482    26011.683    23477.634     7479.209        8.180        2.848      326.297       86.069        0.070      339.289       12.517      855.395
11/14/2013  20:25:00     -314.746     -165.522        0.965      176.214      138.544       73.157    31051.257    19194.370     5351.880        9.102        2.780      355.615       69.240        0.038      339.282       12.507      855.387
11/14/2013  20:26:00     -380.874     -169.227      -14.191      191.586      109.828       86.747    36705.225    12062.236     7525.115       11.509        2.815      416.777      103.828        0.062      339.329       12.585      855.361
11/14/2013  20:27:00     -298.453     -234.835       -5.532      207.861      153.107       82.056    43206.124    23441.804     6733.159       10.880        3.669      379.765      105.805        0.078      339.320       12.568      855.364
11/14/2013  20:28:00     -447.258     -277.144      -16.496      195.978      160.243       96.078    38407.185    25677.903     9230.945       17.520        3.666      526.164       95.656        0.033      339.327       12.580      855.350
11/14/2013  20:29:00     -321.600     -226.110      -10.714      206.805      138.097      101.834    42768.504    19070.752    10370.199       11.342        3.610      393.132      119.211        0.092      339.310       12.552      855.335
11/14/2013  20:30:00     -267.375     -130.508        0.594      183.762      142.062       87.148    33768.361    20181.651     7594.705        7.502        3.077      297.526       96.632        0.105      339.281       12.505      855.323
11/14/2013  20:31:00     -298.228     -222.754        4.424      178.588      143.127       95.126    31893.757    20485.451     9048.983        9.999        3.071      372.236       86.962        0.055      339.277       12.495      855.346
11/14/2013  20:32:00     -302.748     -185.139       -5.157      192.084      153.910       97.426    36896.434    23688.294     9491.807        9.800        3.504      354.870      103.996        0.086      339.269       12.483      855.336
11/14/2013  20:33:00     -324.573     -175.044       -4.483      191.967      152.167       90.634    36851.330    23154.709     8214.593       10.210        3.411      368.766      104.614        0.080      339.261       12.469      855.321
11/14/2013  20:34:00     -289.974     -170.072        1.520      222.860      143.628       89.555    49666.398    20628.977     8020.174        9.565        3.916      336.169      103.257        0.094      339.235       12.428      855.289
11/14/2013  20:35:00     -378.081     -178.578      -11.180      155.245      162.496       75.993    24100.965    26404.884     5774.880       11.561        2.814      418.133       75.562        0.033      339.250       12.452      855.281
11/14/2013  20:36:00     -298.393     -162.793       -4.580      177.300      142.010       89.920    31435.133    20166.771     8085.563        8.761        2.984      339.912       90.159        0.070      339.242       12.438      855.288
11/14/2013  20:37:00     -358.742      -96.142       15.760      222.245      117.364       89.484    49392.988    13774.392     8007.303       10.467        3.559      371.401      103.963        0.078      339.225       12.411      855.303
11/14/2013  20:38:00     -308.354     -166.000      -10.050      172.137      142.773       81.561    29631.034    20383.989     6652.200        8.969        2.833      350.197       84.752        0.059      339.211       12.386      855.306
11/14/2013  20:39:00     -398.628     -120.091       -8.172      171.624      148.605       71.785    29454.820    22083.333     5153.055       11.503        2.835      416.325       71.528        0.030      339.236       12.428      855.310
11/14/2013  20:40:00     -357.085     -248.960      -18.352      205.183      161.057       88.429    42099.940    25939.364     7819.737       13.283        3.793      435.305       88.972        0.042      339.251       12.453      855.283
11/14/2013  20:41:00     -402.259     -133.075       -6.773      182.931      119.743       81.222    33463.920    14338.345     6596.954       11.697        2.720      423.700       87.953        0.043      339.226       12.411      855.285
11/14/2013  20:42:00     -237.636     -104.886       -9.366      100.736       98.782       52.204    10147.697     9757.789     2725.211        4.509        1.132      259.753       40.172        0.024      339.228       12.413      855.275
11/14/2013  20:43:00     -270.853     -118.271        1.936      121.623      103.108       67.224    14792.184    10631.287     4519.064        5.864        1.497      295.549       57.653        0.038      339.193       12.356      855.257
11/14/2013  20:44:00     -238.506     -122.841       11.152      170.158      129.376       71.870    28953.837    16738.259     5165.367        6.147        2.543      268.282       86.383        0.104      339.201       12.371      855.242
11/14/2013  20:45:00     -327.143     -168.809      -11.079      174.248      145.347       77.919    30362.397    21125.730     6071.334        9.659        2.878      368.128       88.106        0.057      339.248       12.448      855.244
11/14/2013  20:46:00     -330.054     -219.521      -26.478      156.258      114.032       75.799    24416.510    13003.377     5745.548       10.049        2.158      396.390       84.388        0.045      339.241       12.436      855.251
11/14/2013  20:47:00     -166.937      -60.769        0.482      149.247      115.139       61.510    22274.565    13256.895     3783.443        3.543        1.966      177.653       68.986        0.151      339.174       12.325      855.262
11/14/2013  20:48:00     -274.346     -193.559       -5.008      179.472      110.931       76.776    32210.037    12305.599     5894.558        8.157        2.521      335.754       83.069        0.061      339.219       12.400      855.282
11/14/2013  20:49:00     -300.439      -79.772        6.234      157.845      137.032       74.196    24915.169    18777.804     5505.019        7.292        2.460      310.849       76.305        0.060      339.203       12.371      855.315
11/14/2013  20:50:00     -177.464     -126.792        1.141      117.085       86.817       57.674    13708.782     7537.212     3326.257        3.607        1.229      218.104       47.311        0.047      339.176       12.328      855.325
11/14/2013  20:51:00     -264.071     -139.031      -22.733      154.831       95.150       54.035    23972.567     9053.508     2919.810        6.276        1.797      298.435       62.952        0.044      339.178       12.330      855.327
11/14/2013  20:52:00     -252.731      -95.151      -16.028      147.839       79.894       47.869    21856.294     6383.011     2291.481        5.185        1.527      270.049       50.506        0.035      339.161       12.302      855.351
11/14/2013  20:53:00     -165.733      -48.624        7.833      139.726      112.888       52.095    19523.365    12743.749     2713.919        3.243        1.749      172.719       60.748        0.124      339.124       12.239      855.373
11/14/2013  20:54:00     -353.330      -74.340      -16.892      168.280      123.404       69.297    28318.004    15228.555     4802.070        8.949        2.417      361.066       69.575        0.037      339.145       12.276      855.408
11/14/2013  20:55:00     -334.673      -74.706      -15.261      137.494      121.711       62.073    18904.620    14813.530     3853.013        7.769        1.879      342.910       69.568        0.041      339.150       12.284      855.433
11/14/2013  20:56:00     -306.451      -65.423        3.595      157.300      123.400       63.154    24743.228    15227.495     3988.370        7.107        2.198      313.357       71.673        0.052      339.095       12.191      855.461
11/14/2013  20:57:00     -360.542       -2.861       -1.154      125.212      100.091       61.873    15678.121    10018.219     3828.317        7.976        1.476      360.554       61.303        0.029      339.097       12.194      855.488
11/14/2013  20:58:00     -295.006      -57.469      -20.316      121.335       95.034       50.951    14722.301     9031.537     2595.996        5.854        1.317      300.551       52.987        0.031      339.105       12.206      855.518
11/14/2013  20:59:00     -264.845      -98.071      -13.213      133.349      106.808       63.518    17781.972    11407.955     4034.553        5.657        1.661      282.419       58.196        0.042      339.055       12.124      855.542
11/14/2013  21:00:00     -323.637      -28.136      -17.569      145.448       84.926       58.992    21155.187     7212.358     3480.016        6.884        1.592      324.858       71.085        0.048      339.050       12.115      855.555
11/14/2013  21:01:00     -353.119      -53.166      -14.737      169.746      101.630       68.822    28813.744    10328.745     4736.479        8.580        2.194      357.099       77.082        0.047      339.094       12.189      855.558
11/14/2013  21:02:00     -180.933      -12.555        2.680      133.006      100.589       59.730    17690.540    10118.159     3567.682        3.213        1.569      181.368       65.477        0.130      339.021       12.067      855.556
11/14/2013  21:03:00     -278.980      -35.431       -6.773      127.839       95.479       63.916    16342.710     9116.164     4085.234        5.433        1.477      281.221       64.391        0.052      339.056       12.124      855.557
11/14/2013  21:04:00     -240.717      -40.851       -6.361      139.768       83.271       52.897    19535.114     6934.090     2798.097        4.445        1.463      244.158       43.708        0.032      339.048       12.113      855.568
11/14/2013  21:05:00     -393.652     -116.740      -12.936      132.209      126.770       67.269    17479.254    16070.641     4525.185       10.341        1.904      410.597       59.277        0.021      339.085       12.173      855.585
11/14/2013  21:06:00     -261.843      -10.803       -0.487      125.677       88.383       54.420    15794.642     7811.472     2961.510        4.762        1.328      262.065       56.836        0.047      339.042       12.104      855.604
11/14/2013  21:07:00     -265.188      -27.404       -5.814      113.930       88.856       46.952    12979.965     7895.393     2204.491        4.709        1.154      266.600       46.682        0.031      339.036       12.091      855.614
11/14/2013  21:08:00     -242.489      -30.866      -11.594      120.016       98.328       49.240    14403.841     9668.369     2424.538        4.319        1.325      244.446       56.996        0.054      338.990       12.014      855.601
11/14/2013  21:09:00     -380.690      -52.141      -26.826      140.537      100.612       60.224    19750.557    10122.819     3626.931        9.092        1.675      384.244       71.727        0.035      339.039       12.096      855.593
11/14/2013  21:10:00     -457.876      -82.420      -25.783      136.703      100.266       65.165    18687.724    10053.317     4246.486       12.504        1.649      465.235       70.831        0.023      339.095       12.190      855.617
11/14/2013  21:11:00     -335.843      -90.511        3.049      161.511       96.146       72.764    26085.927     9244.051     5294.658        8.080        2.031      347.826       82.014        0.056      339.038       12.096      855.651
11/14/2013  21:12:00     -302.007     -109.881       -6.153      138.592      129.309       66.913    19207.700    16720.816     4477.303        7.185        2.020      321.376       63.548        0.039      339.053       12.121      855.671
11/14/2013  21:13:00     -320.564      -50.656      -22.895      171.904      123.770       72.582    29550.895    15319.025     5268.093        7.798        2.507      324.542       86.108        0.070      339.047       12.111      855.682
11/14/2013  21:14:00     -276.069      -69.787       -5.393      165.112       97.171       62.511    27261.962     9442.232     3907.609        6.085        2.031      284.754       61.296        0.046      339.007       12.043      855.678
11/14/2013  21:15:00     -343.879      -45.875      -14.905       98.325       88.445       52.637     9667.854     7822.569     2770.611        7.042        1.013      346.925       47.424        0.019      339.027       12.076      855.676
11/14/2013  21:16:00     -295.446      -67.746      -20.189       95.401       60.550       41.737     9101.350     3666.243     1742.004        5.339        0.725      303.114       37.555        0.015      339.008       12.045      855.691
11/14/2013  21:17:00     -234.705     -124.293      -25.370      107.702       85.057       51.828    11599.770     7234.679     2686.154        4.635        1.076      265.584       39.568        0.022      338.989       12.012      855.671
11/14/2013  21:18:00     -271.312      -64.086      -16.673      128.472       87.756       43.662    16505.133     7701.177     1906.395        5.205        1.306      278.778       52.776        0.036      338.981       11.998      855.671
11/14/2013  21:19:00     -293.124      -73.867      -18.505      102.958       89.068       54.687    10600.302     7933.156     2990.667        5.662        1.076      302.288       60.179        0.040      338.990       12.015      855.676
11/14/2013  21:20:00     -223.925      -10.293      -13.616       82.060       88.124       43.003     6733.902     7765.909     1849.241        3.339        0.817      224.161       30.365        0.018      338.933       11.919      855.694
11/14/2013  21:21:00     -202.993      -64.289      -12.434       82.942       82.197       47.401     6879.431     6756.362     2246.894        3.068        0.794      212.930       45.706        0.046      338.942       11.935      855.708
11/14/2013  21:22:00     -216.388      -57.881       -3.959      113.528       96.876       52.417    12888.548     9384.931     2747.491        3.760        1.251      223.995       43.365        0.037      338.923       11.902      855.709
11/14/2013  21:23:00     -270.713     -124.444       -2.409      128.603      102.084       59.117    16538.742    10421.210     3494.788        5.961        1.523      297.947       58.216        0.038      338.948       11.943      855.709
11/14/2013  21:24:00     -292.442      -45.601      -17.256       97.612       78.418       46.997     9528.179     6149.398     2208.736        5.289        0.894      295.976       47.635        0.026      338.933       11.918      855.721
11/14/2013  21:25:00     -282.747      -78.727      -17.883      109.134       83.138       51.274    11910.147     6911.878     2628.993        5.395        1.073      293.502       53.975        0.034      338.889       11.844      855.728
11/14/2013  21:26:00     -240.797      -57.132       -5.400       89.592       79.606       45.554     8026.787     6337.044     2075.175        3.885        0.822      247.481       38.765        0.025      338.844       11.769      855.728
11/14/2013  21:27:00     -222.004      -49.885       -3.060       78.785       79.000       43.413     6207.109     6240.966     1884.693        3.306        0.717      227.539       34.327        0.023      338.833       11.750      855.724
11/14/2013  21:28:00     -300.970      -50.975      -20.837      113.740       77.767       44.424    12936.752     6047.717     1973.492        5.728        1.048      305.256       45.373        0.022      338.884       11.834      855.728
11/14/2013  21:29:00     -253.855      -57.039      -10.965      107.866       83.289       54.049    11634.982     6937.024     2921.277        4.465        1.075      260.184       58.076        0.050      338.860       11.796      855.737
11/14/2013  21:30:00     -285.872      -63.681      -19.727       78.673       75.394       38.226     6189.364     5684.315     1461.250        4.975        0.667      292.879       36.958        0.016      338.853       11.784      855.729
11/14/2013  21:31:00     -239.890     -124.823        0.220       77.022       74.314       46.303     5932.353     5522.507     2143.954        4.336        0.680      270.421       44.035        0.027      338.825       11.736      855.706
11/14/2013  21:32:00     -227.411      -88.863       -0.445      102.941       63.334       38.634    10596.884     4011.241     1492.548        3.785        0.805      244.156       39.840        0.027      338.779       11.658      855.688
11/14/2013  21:33:00     -234.596      -84.905       -5.148       57.889       43.105       31.687     3351.185     1858.005     1004.097        3.424        0.311      249.488       25.594        0.011      338.776       11.653      855.679
11/14/2013  21:34:00     -185.222      -48.041        1.756       69.614       51.878       34.473     4846.071     2691.332     1188.360        2.267        0.436      191.351       36.449        0.036      338.725       11.570      855.667
11/14/2013  21:35:00     -249.215      -46.436       -2.436       63.088       44.735       24.953     3980.137     2001.194      622.653        3.544        0.330      253.505       28.329        0.012      338.776       11.653      855.636
11/14/2013  21:36:00     -170.266      -40.003       -6.672       65.496       51.843       35.713     4289.694     2687.734     1275.406        1.944        0.413      174.902       41.025        0.055      338.713       11.550      855.621
11/14/2013  21:37:00     -201.688      -77.796       -4.752       65.736       39.361       29.772     4321.158     1549.275      886.371        2.675        0.338      216.172       31.344        0.021      338.711       11.546      855.620
11/14/2013  21:38:00     -164.460      -68.291        2.491       53.382       44.039       27.130     2849.623     1939.465      736.046        1.862        0.276      178.076       21.739        0.015      338.681       11.497      855.630
11/14/2013  21:39:00     -129.365      -18.134        1.939       93.829       48.813       35.315     8803.938     2382.727     1247.161        1.475        0.622      130.629       42.686        0.107      338.605       11.368      855.613
11/14/2013  21:40:00     -142.072      -76.617        0.603       69.907       53.733       35.744     4886.938     2887.243     1277.657        1.755        0.453      161.414       33.022        0.042      338.647       11.439      855.594
11/14/2013  21:41:00     -128.472      -44.803       -0.441       52.377       49.009       30.243     2743.348     2401.840      914.623        1.228        0.303      136.060       26.731        0.039      338.610       11.378      855.589
11/14/2013  21:42:00     -156.615      -68.164        3.073       75.100       49.721       36.127     5640.002     2472.222     1305.142        1.930        0.471      170.805       33.669        0.039      338.624       11.401      855.582
11/14/2013  21:43:00     -218.045      -82.633      -10.471       60.018       47.518       25.853     3602.216     2257.947      668.374        3.050        0.326      233.177       12.978        0.003      338.700       11.527      855.575
11/14/2013  21:44:00     -178.435      -37.571       -1.939       54.617       49.402       27.875     2983.036     2440.522      777.033        1.973        0.310      182.348       23.189        0.016      338.640       11.427      855.562
11/14/2013  21:45:00     -189.106      -55.901       -4.068       85.438       70.060       44.020     7299.580     4908.390     1937.738        2.652        0.707      197.195       42.684        0.047      338.662       11.462      855.555
11/14/2013  21:46:00     -151.253      -28.850       -0.327       73.810       56.653       37.188     5447.944     3209.560     1382.962        1.687        0.502      153.980       36.948        0.058      338.659       11.461      855.535
11/14/2013  21:47:00     -144.273      -34.564        0.320       72.472       60.471       33.707     5252.197     3656.772     1136.168        1.603        0.502      148.356       28.082        0.036      338.617       11.389      855.535
11/14/2013  21:48:00     -238.987      -45.975      -19.565       56.506       54.537       34.218     3192.902     2974.237     1170.899        3.347        0.367      243.369       34.347        0.020      338.632       11.411      855.541
11/14/2013  21:49:00     -212.295      -56.327       -6.747       98.334       82.660       48.331     9669.525     6832.628     2335.922        3.356        0.942      219.640       46.923        0.046      338.652       11.448      855.527
11/14/2013  21:50:00     -221.795      -70.183       -0.926      108.116       62.939       44.005    11689.167     3961.306     1936.421        3.585        0.879      232.635       46.839        0.041      338.642       11.430      855.522
11/14/2013  21:51:00     -199.938      -95.698       -6.789       67.957       65.452       37.366     4618.208     4283.915     1396.240        2.974        0.515      221.660       25.105        0.013      338.672       11.479      855.527
11/14/2013  21:52:00     -213.126      -37.487      -10.527       99.233       61.984       42.831     9847.141     3841.972     1834.506        3.123        0.776      216.398       44.825        0.043      338.645       11.434      855.530
11/14/2013  21:53:00     -203.759      -62.072       -5.184       94.705       66.205       39.546     8968.975     4383.158     1563.903        3.015        0.746      213.004       45.685        0.046      338.631       11.410      855.529
11/14/2013  21:54:00     -179.535      -65.548       -5.089       82.537       82.336       42.442     6812.414     6779.291     1801.352        2.597        0.770      191.126       33.908        0.031      338.607       11.370      855.521
11/14/2013  21:55:00     -269.119       -7.392      -30.871       93.480       55.117       42.474     8738.598     3037.832     1804.009        4.350        0.679      269.220       43.623        0.026      338.693       11.514      855.514
11/14/2013  21:56:00     -214.356      -69.855      -14.302       83.449       70.327       40.325     6963.717     4945.952     1626.070        3.228        0.677      225.451       35.913        0.025      338.661       11.461      855.513
11/14/2013  21:57:00     -136.303      -52.720        0.897       74.679       58.843       43.111     5576.917     3462.527     1858.575        1.613        0.545      146.143       38.732        0.070      338.595       11.352      855.496
11/14/2013  21:58:00     -130.759      -47.373       -1.160       65.072       63.844       37.743     4234.366     4076.017     1424.562        1.454        0.487      139.076       41.356        0.088      338.591       11.346      855.489
11/14/2013  21:59:00     -174.370      -20.425       -0.855      107.773       82.774       50.376    11614.939     6851.616     2537.781        2.591        1.050      175.562       58.966        0.113      338.626       11.402      855.465
11/14/2013  22:00:00     -214.811      -41.293       -7.148      108.752       94.364       51.543    11826.922     8904.611     2656.704        3.564        1.169      218.744       55.279        0.064      338.670       11.477      855.439
11/14/2013  22:01:00     -192.871      -57.096       -4.445       53.079       65.997       32.478     2817.428     4355.589     1054.823        2.435        0.411      201.145       30.013        0.022      338.594       11.349      855.431
11/14/2013  22:02:00     -169.306      -54.584       -4.223       57.708       49.147       30.303     3330.255     2415.455      918.268        1.916        0.333      177.888       27.583        0.024      338.616       11.387      855.421
11/14/2013  22:03:00     -173.237      -11.616      -14.395       59.682       52.015       30.546     3561.898     2705.591      933.068        1.878        0.360      173.626       25.824        0.022      338.615       11.385      855.397
11/14/2013  22:04:00     -138.136      -35.485       -2.695       57.674       64.021       28.468     3326.340     4098.693      810.417        1.429        0.412      142.621       28.384        0.040      338.538       11.257      855.380
11/14/2013  22:05:00     -196.103      -25.240       -8.018       90.226       58.443       41.395     8140.791     3415.619     1713.572        2.621        0.663      197.721       47.983        0.059      338.606       11.370      855.369
11/14/2013  22:06:00     -192.846      -46.081       -6.513       80.544       50.413       33.310     6487.400     2541.487     1109.576        2.474        0.507      198.275       36.277        0.033      338.611       11.377      855.358
11/14/2013  22:07:00     -152.346      -17.402       -4.454       71.922       47.181       32.981     5172.772     2226.010     1087.766        1.601        0.424      153.337       35.393        0.053      338.527       11.238      855.338
11/14/2013  22:08:00     -109.903      -40.777       -3.467       55.724       38.856       30.691     3105.133     1509.753      941.918        0.965        0.278      117.224       29.203        0.062      338.491       11.179      855.314
11/14/2013  22:09:00     -211.452      -32.444      -18.303       71.079       39.872       28.772     5052.225     1589.761      827.806        2.678        0.373      213.926       30.872        0.021      338.595       11.351      855.292
11/14/2013  22:10:00     -139.282      -58.787       -7.818       62.699       49.524       27.912     3931.198     2452.665      779.061        1.504        0.358      151.180       26.811        0.031      338.581       11.327      855.276
11/14/2013  22:11:00     -128.707      -29.498        2.134       56.594       53.025       28.524     3202.831     2811.602      813.620        1.213        0.341      132.044       30.116        0.052      338.527       11.238      855.263
11/14/2013  22:12:00     -130.089      -54.298       -3.926       50.914       49.606       31.819     2592.259     2460.765     1012.470        1.297        0.303      140.966       32.933        0.055      338.515       11.220      855.263
11/14/2013  22:13:00     -159.359      -13.269       -8.784       50.197       37.112       23.198     2519.717     1377.278      538.158        1.504        0.222      159.910       23.891        0.022      338.566       11.303      855.266
11/14/2013  22:14:00      -92.983      -51.124        2.766       51.251       34.348       23.231     2626.628     1179.751      539.683        0.781        0.217      106.111       26.436        0.062      338.476       11.154      855.280
11/14/2013  22:15:00      -85.442      -35.307       -0.261       38.122       27.021       15.359     1453.323      730.113      235.884        0.548        0.121       92.450       15.635        0.029      338.445       11.100      855.282
11/14/2013  22:16:00     -143.388      -29.479      -11.006       47.135       38.058       26.956     2221.720     1448.428      726.602        1.297        0.220      146.387       20.390        0.019      338.525       11.235      855.279
11/14/2013  22:17:00     -110.463      -13.352       -7.461       37.547       22.162       20.226     1409.773      491.151      409.098        0.737        0.116      111.267       21.254        0.036      338.489       11.175      855.286
11/14/2013  22:18:00      -88.123      -10.677        0.803       41.579       32.004       22.876     1728.813     1024.269      523.325        0.558        0.164       88.767       21.852        0.061      338.406       11.035      855.276
11/14/2013  22:19:00      -89.782      -27.752       -3.526       47.895       31.336       18.818     2293.897      981.925      354.116        0.624        0.181       93.973       20.970        0.050      338.392       11.012      855.273
11/14/2013  22:20:00      -94.919      -51.774       -0.550       32.014       27.583       17.337     1024.904      760.825      300.576        0.689        0.104      108.121       17.245        0.025      338.409       11.041      855.267
11/14/2013  22:21:00      -96.953      -42.362       -7.175       12.639       15.627       15.674      159.733      244.192      245.676        0.595        0.032      105.804        7.930        0.006      338.415       11.052      855.264
11/14/2013  22:22:00      -61.962      -10.069       -5.592       12.803       17.747       12.936      163.908      314.956      167.327        0.231        0.032       62.775        4.372        0.005      338.409       11.040      855.270
11/14/2013  22:23:00      -54.242      -22.725       -4.952       17.694       22.044       10.303      313.080      485.928      106.142        0.219        0.045       58.810        7.834        0.018      338.367       10.971      855.270
11/14/2013  22:24:00      -58.300      -23.571       -9.671       14.839        9.172        8.730      220.194       84.119       76.221        0.221        0.019       62.885        6.758        0.012      338.386       11.003      855.273
11/14/2013  22:25:00      -54.367      -19.476       -7.883       10.561       12.725        8.302      111.539      161.920       68.920        0.187        0.017       57.750        5.399        0.009      338.397       11.018      855.255
11/14/2013  22:26:00      -59.530      -14.656       -5.691       12.456       13.705       11.541      155.158      187.815      133.202        0.213        0.024       61.308        8.078        0.017      338.377       10.986      855.244
11/14/2013  22:27:00      -73.259       10.803       -7.544       19.600       14.436       10.475      384.146      208.387      109.726        0.312        0.035       74.052       10.608        0.021      338.359       10.955      855.230
11/14/2013  22:28:00      -63.276       32.983       -6.361       17.399       17.476       11.817      302.736      305.397      139.649        0.294        0.037       71.357       11.984        0.028      338.338       10.923      855.213
11/14/2013  22:29:00      -61.944       39.274       -5.428       25.114       19.957       18.007      630.710      398.263      324.250        0.338        0.068       73.346       13.366        0.033      338.376       10.986      855.203
11/14/2013  22:30:00      -79.716       39.752       -6.323       24.868       16.953       18.036      618.417      287.399      325.295        0.460        0.062       89.077        8.422        0.009      338.371       10.975      855.196
11/14/2013  22:31:00      -92.148       42.078      -10.693       25.761       19.610       16.207      663.632      384.556      262.682        0.584        0.066      101.300        7.968        0.006      338.382       10.996      855.183
11/14/2013  22:32:00      -95.229       28.425      -10.291       42.153       33.442       19.981     1776.915     1118.344      399.255        0.664        0.165       99.381       21.654        0.047      338.443       11.097      855.176
11/14/2013  22:33:00      -98.664       21.592       -7.167       25.972       19.918       13.686      674.535      396.710      187.301        0.576        0.063      100.999       11.592        0.013      338.398       11.022      855.190
11/14/2013  22:34:00     -153.972       -7.420      -18.440       51.873       44.963       24.922     2690.758     2021.668      621.098        1.472        0.267      154.151       28.319        0.034      338.348       10.938      855.209
11/14/2013  22:35:00      -83.466      -18.212       -4.995       45.939       33.430       18.058     2110.359     1117.557      326.078        0.544        0.178       85.430       20.383        0.057      338.237       10.752      855.226
11/14/2013  22:36:00     -139.242       44.537      -13.813       49.875       34.310       24.268     2487.504     1177.157      588.947        1.291        0.213      146.192       23.964        0.027      338.318       10.887      855.233
11/14/2013  22:37:00     -132.776       42.071      -18.239       27.002       35.799       18.881      729.099     1281.586      356.511        1.105        0.118      139.282       10.776        0.006      338.363       10.963      855.247
11/14/2013  22:38:00     -121.250       -8.049      -15.388       33.703       31.937       20.539     1135.887     1019.951      421.860        0.879        0.129      121.517       14.257        0.014      338.236       10.750      855.261
11/14/2013  22:39:00     -105.051      -15.340      -13.718       25.912       25.180       15.800      671.453      634.011      249.635        0.651        0.078      106.165       11.851        0.012      338.103       10.527      855.269
11/14/2013  22:40:00      -90.223      -20.500       -1.151       22.095       24.114       16.963      488.207      581.497      287.752        0.496        0.068       92.523       15.178        0.027      338.043       10.426      855.278
11/14/2013  22:41:00     -111.643      -12.828       -9.779       31.075       31.975       23.465      965.669     1022.412      550.617        0.763        0.127      112.377       15.183        0.018      337.989       10.336      855.282
11/14/2013  22:42:00      -99.857      -38.240       -9.524       30.200       28.438       17.205      912.018      808.699      296.026        0.677        0.101      106.929       17.789        0.028      337.955       10.279      855.270
11/14/2013  22:43:00     -120.215        2.623       -8.894       27.122       33.222       19.967      735.612     1103.684      398.672        0.839        0.112      120.243       15.947        0.018      337.897       10.180      855.254
11/14/2013  22:44:00     -138.655       17.643      -15.798       29.613       23.018       13.183      876.951      529.850      173.797        1.068        0.079      139.773       10.502        0.006      338.026       10.399      855.239
11/14/2013  22:45:00      -98.433       49.109       -8.023       28.615       21.714       18.978      818.843      471.487      360.183        0.691        0.083      110.003       10.627        0.009      338.150       10.606      855.227
11/14/2013  22:46:00      -87.945       65.922      -15.549       29.776       34.715       24.639      886.639     1205.115      607.097        0.751        0.135      109.909       22.960        0.044      338.095       10.514      855.224
11/14/2013  22:47:00      -98.747       60.631      -15.141       36.425       33.331       20.282     1326.762     1110.969      411.350        0.825        0.142      115.875       17.003        0.022      337.947       10.267      855.225
11/14/2013  22:48:00     -102.702       47.191      -17.082       20.882       30.212       17.077      436.041      912.735      291.627        0.735        0.082      113.025       14.573        0.017      337.900       10.187      855.221
11/14/2013  22:49:00     -102.300       91.096      -21.389       26.712       38.238       20.611      713.546     1462.162      424.796        1.091        0.130      136.981       17.336        0.016      338.001       10.357      855.200
11/14/2013  22:50:00      -97.910       78.426      -26.140       33.095       38.697       17.473     1095.286     1497.459      305.301        0.966        0.145      125.447       17.939        0.020      338.039       10.422      855.188
11/14/2013  22:51:00      -86.552       23.780      -17.390       28.475       28.291       14.353      810.841      800.369      206.004        0.509        0.091       89.759       13.362        0.022      337.972       10.308      855.179
11/14/2013  22:52:00      -83.642       -7.611      -21.484       16.158       12.928       10.403      261.080      167.142      108.213        0.403        0.027       83.988        6.618        0.006      337.562        9.620      855.162
11/14/2013  22:53:00      -90.766       -9.220      -17.750       19.480       15.373        9.543      379.462      236.344       91.061        0.467        0.035       91.233        8.233        0.008      337.573        9.638      855.157
11/14/2013  22:54:00      -89.206       40.846      -16.245       25.295       57.389       18.739      639.852     3293.473      351.160        0.709        0.214       98.113       22.188        0.051      337.830       10.068      855.169
11/14/2013  22:55:00      -91.274       71.541      -14.788       41.696       48.594       24.261     1738.536     2361.330      588.599        0.918        0.234      115.969       25.461        0.048      337.939       10.253      855.172
11/14/2013  22:56:00      -48.283       67.187       -7.739       47.772       45.780       21.786     2282.163     2095.835      474.629        0.588        0.243       82.736       13.759        0.028      337.958       10.284      855.165
11/14/2013  22:57:00      -92.277      -14.761      -19.855       25.753       18.398       17.126      663.196      338.489      293.293        0.521        0.065       93.451       12.905        0.019      337.475        9.474      855.157
11/14/2013  22:58:00      -58.080      -14.458       -8.016       17.491       29.584       16.791      305.948      875.219      281.929        0.255        0.073       59.852        8.639        0.021      337.366        9.292      855.146
11/14/2013  22:59:00      -98.303       56.030      -14.038       27.732       61.119       24.175      769.065     3735.515      584.418        0.904        0.254      113.150       23.687        0.044      337.748        9.932      855.140
11/14/2013  23:00:00     -104.092      127.414      -19.912       35.963       57.344       29.101     1293.353     3288.360      846.892        1.645        0.271      164.528       25.155        0.023      337.931       10.238      855.130
11/14/2013  23:01:00      -94.087      150.533      -16.010       42.279       48.677       26.708     1787.549     2369.465      713.307        1.832        0.244      177.518       20.191        0.013      337.926       10.228      855.133
11/14/2013  23:02:00      -97.966      100.930      -20.709       37.492       49.920       28.811     1405.651     2492.046      830.074        1.247        0.236      140.656       25.099        0.032      337.922       10.224      855.152
11/14/2013  23:03:00      -88.717       65.444      -13.461       41.443       37.512       26.084     1717.513     1407.168      680.385        0.807        0.190      110.244       17.507        0.025      337.782        9.989      855.191
11/14/2013  23:04:00     -115.965      132.197      -24.459       48.752       50.170       29.302     2376.749     2517.044      858.610        1.864        0.288      175.852       27.801        0.025      337.855       10.111      855.219
11/14/2013  23:05:00     -115.251      100.859      -26.828       38.185       54.610       22.515     1458.122     2982.212      506.913        1.456        0.247      153.151       18.388        0.014      337.863       10.124      855.229
11/14/2013  23:06:00     -104.853      120.112      -27.068       50.529       60.222       32.010     2553.228     3626.655     1024.666        1.668        0.360      159.440       36.454        0.052      337.895       10.177      855.232
11/14/2013  23:07:00     -127.492      127.117      -36.045       39.984       47.192       24.607     1598.751     2227.085      605.505        1.907        0.222      180.036       24.570        0.019      337.921       10.221      855.229
11/14/2013  23:08:00     -111.195      128.520      -27.828       41.093       54.910       33.093     1688.614     3015.161     1095.158        1.773        0.290      169.946       30.180        0.032      337.917       10.215      855.234
11/14/2013  23:09:00     -124.191      137.216      -25.920       45.669       54.994       30.272     2085.645     3024.392      916.420        2.047        0.301      185.072       27.580        0.022      337.848       10.098      855.226
11/14/2013  23:10:00     -106.115       85.535      -22.187       35.454       32.818       20.227     1257.005     1077.053      409.141        1.091        0.137      136.296       17.757        0.017      337.865       10.127      855.215
11/14/2013  23:11:00      -93.273       28.165      -13.335       23.278       46.485       18.090      541.861     2160.831      327.249        0.635        0.151       97.432        8.490        0.008      337.622        9.720      855.217
11/14/2013  23:12:00      -61.974        5.361        0.947       31.816       32.556       21.263     1012.256     1059.866      452.116        0.320        0.126       62.205       19.549        0.099      337.557        9.610      855.221
11/14/2013  23:13:00      -68.705      -14.015       -5.674       20.587       25.457       15.658      423.828      648.040      245.159        0.313        0.066       70.120       13.204        0.035      337.487        9.495      855.210
11/14/2013  23:14:00      -77.648       43.872       -5.044       34.653       51.374       25.558     1200.825     2639.321      653.213        0.624        0.225       89.184       29.957        0.113      337.589        9.665      855.198
11/14/2013  23:15:00      -92.320       47.232      -15.919       29.563       56.821       21.980      873.986     3228.663      483.104        0.780        0.229      103.701       24.044        0.054      337.616        9.711      855.197
11/14/2013  23:16:00      -88.045       69.056      -15.768       25.651       45.953       23.578      657.998     2111.684      555.903        0.805        0.166      111.896       16.776        0.022      337.647        9.764      855.201
11/14/2013  23:17:00      -83.541       59.696       -9.796       32.470       45.587       22.767     1054.284     2078.219      518.351        0.714        0.183      102.678       22.613        0.049      337.558        9.615      855.198
11/14/2013  23:18:00     -102.800       80.243      -17.668       37.297       52.606       28.483     1391.056     2767.360      811.304        1.114        0.248      130.411       18.982        0.021      337.638        9.747      855.206
11/14/2013  23:19:00      -99.471      109.921      -22.944       37.077       36.233       28.448     1374.691     1312.844      809.279        1.300        0.175      148.246       14.455        0.010      337.662        9.787      855.207
11/14/2013  23:20:00      -35.981       39.002       -6.572       40.816       38.236       22.011     1665.941     1461.969      484.491        0.323        0.181       53.064       13.607        0.066      337.646        9.761      855.212
11/14/2013  23:21:00      -90.563      117.635      -20.149       35.234       65.004       26.284     1241.462     4225.509      690.873        1.430        0.308      148.458       27.401        0.034      337.679        9.816      855.215
11/14/2013  23:22:00     -116.089       98.666      -23.660       62.323       57.397       29.786     3884.162     3294.470      887.210        1.592        0.403      152.354       17.264        0.013      337.624        9.723      855.205
11/14/2013  23:23:00      -67.776      105.245       -7.369       27.304       87.503       34.069      745.503     7656.707     1160.664        1.264        0.478      125.180       35.766        0.082      337.614        9.706      855.201
11/14/2013  23:24:00     -124.279      118.358      -29.560       47.300       66.281       27.831     2237.260     4393.190      774.588        1.886        0.370      171.622       34.176        0.040      337.653        9.771      855.195
11/14/2013  23:25:00     -117.505      121.826      -28.159       41.722       47.882       30.191     1740.722     2292.688      911.494        1.719        0.247      169.260       25.762        0.023      337.620        9.717      855.194
11/14/2013  23:26:00     -157.361      158.570      -38.061       65.239       60.731       35.951     4256.138     3688.293     1292.500        3.029        0.462      223.399       34.534        0.024      337.604        9.688      855.199
11/14/2013  23:27:00      -94.514      107.417      -16.338       64.083       44.955       28.255     4106.571     2020.947      798.330        1.383        0.346      143.078       24.211        0.029      337.595        9.675      855.203
11/14/2013  23:28:00      -92.486      111.221      -19.821       42.232       65.707       32.703     1783.564     4317.466     1069.487        1.424        0.359      144.650       31.285        0.047      337.578        9.646      855.227
11/14/2013  23:29:00      -31.231       53.454        0.104       29.814       40.463       16.197      888.855     1637.254      262.347        0.331        0.139       61.908       15.881        0.066      337.556        9.609      855.252
11/14/2013  23:30:00      -32.874       50.695       -7.432       23.980       39.717       18.360      575.041     1577.431      337.082        0.310        0.124       60.421       22.778        0.142      337.572        9.636      855.277
11/14/2013  23:31:00      -32.335      146.078      -10.201       36.828       51.808       36.183     1356.338     2684.059     1309.240        1.392        0.267      149.614       16.334        0.012      337.472        9.468      855.303
11/14/2013  23:32:00      -81.531      130.600      -14.585       43.799       75.578       33.415     1918.327     5712.106     1116.552        1.633        0.437      153.960       29.834        0.038      337.431        9.400      855.322
11/14/2013  23:33:00      -56.752      213.020      -11.919       53.962      119.665       46.859     2911.884    14319.768     2195.759        3.408        0.971      220.450       42.626        0.037      337.420        9.381      855.338
11/14/2013  23:34:00     -123.014      125.666      -30.566       82.744       95.041       52.394     6846.536     9032.767     2745.081        2.524        0.931      175.853       55.178        0.098      337.441        9.415      855.353
11/14/2013  23:35:00     -122.242      172.731      -37.369       86.202       83.115       41.063     7430.810     6908.171     1686.155        3.110        0.801      211.610       45.910        0.047      337.363        9.283      855.359
11/14/2013  23:36:00     -123.690      168.997      -32.513       64.982       98.980       42.876     4222.622     9797.114     1838.354        3.038        0.793      209.426       43.181        0.043      337.338        9.243      855.356
11/14/2013  23:37:00      -75.237      144.444      -10.039       48.855       83.964       31.797     2386.845     7049.942     1011.076        1.853        0.522      162.864       25.276        0.024      337.283        9.152      855.366
11/14/2013  23:38:00     -108.698      124.515      -15.840       80.889       52.720       42.937     6542.976     2779.423     1843.622        1.937        0.558      165.286       41.258        0.062      337.271        9.131      855.382
11/14/2013  23:39:00     -160.581      171.191      -38.056       75.140       85.909       52.041     5645.968     7380.381     2708.269        3.613        0.787      234.718       45.025        0.037      337.223        9.050      855.392
11/14/2013  23:40:00     -119.195      220.383      -32.235       77.685       86.228       40.446     6034.922     7435.236     1635.893        3.946        0.755      250.551       39.771        0.025      337.179        8.975      855.397
11/14/2013  23:41:00     -160.056      197.257      -20.711      111.934       75.379       62.335    12529.206     5681.956     3885.607        4.352        1.105      254.024       52.372        0.043      337.131        8.896      855.403
11/14/2013  23:42:00     -135.157      176.573      -39.941       65.741       67.069       34.686     4321.913     4498.260     1203.089        3.053        0.501      222.363       31.372        0.020      337.126        8.885      855.407
11/14/2013  23:43:00     -142.619      254.134      -38.849       77.245      154.703       64.970     5966.838    23933.032     4221.108        6.027        1.706      291.418       65.575        0.051      337.092        8.829      855.393
11/14/2013  23:44:00     -133.462      286.484      -41.688       64.199       89.065       48.258     4121.545     7932.647     2328.869        5.800        0.719      316.046       37.918        0.014      337.069        8.789      855.408
11/14/2013  23:45:00     -168.326      142.606      -37.049      109.807      113.123       57.457    12057.613    12796.909     3301.272        3.909        1.408      220.613       68.165        0.095      337.121        8.880      855.395
11/14/2013  23:46:00     -134.880      158.934      -23.065       92.408       69.108       57.806     8539.257     4775.902     3341.485        3.032        0.833      208.453       39.862        0.037      337.037        8.738      855.385
11/14/2013  23:47:00     -158.331      296.461      -50.522       90.465      139.184       66.733     8183.892    19372.052     4453.349        7.375        1.600      336.092       53.563        0.025      337.017        8.702      855.384
11/14/2013  23:48:00     -119.915      169.207      -18.475       83.337      138.884       51.153     6944.976    19288.779     2616.662        3.610        1.443      207.390       44.118        0.045      336.992        8.662      855.362
11/14/2013  23:49:00     -190.525      228.562      -49.974       90.347       67.426       57.159     8162.628     4546.212     3267.096        5.350        0.799      297.557       54.028        0.033      336.969        8.624      855.360
11/14/2013  23:50:00     -161.839      211.911      -21.979      112.658      111.550       62.795    12691.714    12443.339     3943.162        5.032        1.454      266.643       64.973        0.059      336.901        8.510      855.356
11/14/2013  23:51:00     -154.920      166.533      -23.600       77.780       86.822       41.640     6049.764     7538.136     1733.930        3.380        0.766      227.450       44.657        0.039      336.890        8.493      855.333
11/14/2013  23:52:00     -181.710      168.182      -37.614       99.537       73.646       49.681     9907.704     5423.707     2468.152        4.026        0.890      247.595       46.962        0.036      336.874        8.465      855.316
11/14/2013  23:53:00     -172.999      172.169      -34.867       96.581       94.483       51.504     9327.880     8927.012     2652.633        4.084        1.045      244.071       53.622        0.048      336.853        8.430      855.295
11/14/2013  23:54:00     -128.801      145.969      -23.105       56.654       68.038       44.987     3209.669     4629.114     2023.842        2.414        0.493      194.670       34.444        0.031      336.842        8.413      855.279
11/14/2013  23:55:00     -112.672      176.015      -21.253       79.983      103.522       45.751     6397.238    10716.719     2093.145        3.166        0.960      208.989       39.623        0.036      336.830        8.392      855.244
11/14/2013  23:56:00     -114.932      268.103      -16.054       82.364      100.900       62.662     6783.810    10180.770     3926.520        5.311        1.045      291.700       63.163        0.047      336.795        8.333      855.222
11/14/2013  23:57:00     -139.077      165.708      -34.338       76.143       87.579       49.920     5797.780     7670.021     2492.028        3.197        0.798      216.337       45.082        0.043      336.751        8.263      855.223
11/14/2013  23:58:00     -149.094      171.823      -27.366       91.055       86.800       46.269     8291.036     7534.206     2140.800        3.523        0.898      227.491       46.686        0.042      336.741        8.244      855.219
11/14/2013  23:59:00     -163.893      250.439      -35.723       96.033      136.437       62.753     9222.269    18614.998     3937.994        6.131        1.589      299.300       52.429        0.031      336.714        8.198      855.234
